GFSWCAN_925_thetae_000.txt.gz
Theta_e
301 301 302 302 302 302 302 303 303 303 303 302 303 304 304 303 303 302 302 303 303 304 304 306 306 305 306 309 312 311 311 314 318 329 328 325 327 327 327 332 340 340 339 335 338 342 341 337 339 346 346 343 342 343
301 301 301 302 302 302 302 302 303 303 301 301 302 303 303 302 301 302 303 304 304 304 304 304 304 304 305 305 307 308 310 310 311 322 328 331 337 334 331 331 336 337 334 335 337 335 338 335 338 338 340 342 342 343
301 301 301 302 302 303 302 302 303 302 301 302 302 301 303 302 302 302 302 303 304 305 305 306 307 305 304 303 305 309 308 308 314 313 316 325 335 336 340 338 335 336 335 338 340 338 337 336 335 335 336 337 338 338
301 301 302 302 302 302 302 302 302 301 302 301 301 301 301 301 301 301 302 303 303 304 305 306 305 306 305 305 304 306 307 308 310 312 319 323 333 332 337 340 342 336 336 339 339 337 334 333 332 332 332 333 335 336
300 301 301 302 302 301 301 301 302 302 302 302 301 300 301 301 302 302 303 303 303 304 305 304 303 308 307 304 306 306 307 306 310 313 323 325 324 328 333 336 333 328 337 339 337 336 335 328 326 326 328 329 331 332
301 301 301 301 300 301 301 302 302 302 302 302 300 301 301 301 302 303 304 303 304 303 303 307 307 309 310 308 307 308 309 309 311 314 322 319 319 327 334 332 324 326 330 332 334 329 324 323 322 322 323 324 325 326
301 300 300 300 301 301 302 302 302 301 301 301 301 301 301 302 303 304 304 303 302 303 304 308 312 312 311 312 312 311 311 312 313 316 318 322 326 326 325 328 324 325 326 327 325 324 324 323 324 322 322 321 321 322
300 300 301 301 301 301 301 300 301 301 301 300 300 300 301 300 301 303 304 302 302 304 304 309 313 315 312 314 314 312 313 312 315 316 318 325 325 325 326 324 323 323 322 322 322 322 321 320 322 322 321 321 321 322
302 301 301 301 301 301 301 300 301 301 301 301 301 300 303 303 304 305 303 305 303 303 308 310 313 316 314 313 315 314 313 314 316 321 328 325 324 327 324 323 323 323 322 322 321 320 321 323 323 321 321 322 323 323
301 301 301 301 301 301 302 301 301 302 302 303 304 306 307 306 305 306 307 308 307 306 306 310 310 315 314 317 315 315 316 317 322 326 325 324 324 321 321 321 321 319 322 321 321 320 320 323 323 322 322 322 322 323
300 300 300 301 301 301 301 301 301 303 304 305 306 308 307 306 308 309 310 311 312 313 312 313 314 315 315 319 320 319 320 321 323 326 327 325 321 322 321 321 321 321 321 322 323 322 321 323 322 322 322 322 323 324
301 301 300 300 301 301 301 301 301 304 304 304 303 304 306 310 311 311 313 313 313 316 315 316 315 314 314 316 320 320 320 321 324 324 327 322 320 320 321 321 322 322 322 323 321 320 320 320 321 321 321 321 321 322
300 301 301 301 301 302 303 303 302 302 304 306 307 308 310 311 314 316 317 316 318 316 317 317 318 315 318 318 320 321 321 325 321 325 327 324 323 322 322 321 322 321 320 319 319 318 318 319 319 320 321 321 320 321
301 301 301 302 303 304 304 303 303 303 306 308 308 310 307 311 313 315 316 317 316 317 317 317 319 319 318 319 320 321 323 323 325 325 327 324 323 322 321 320 319 319 318 318 318 318 318 319 320 320 321 321 321 322
300 300 301 303 303 304 303 303 304 306 307 307 304 308 311 310 313 314 315 315 315 316 317 319 317 318 319 321 320 322 322 325 325 323 324 325 323 323 323 322 321 320 320 320 320 319 319 319 319 319 322 323 323 323
301 303 304 303 303 305 304 305 307 308 308 311 311 313 313 314 313 313 314 316 315 316 318 316 316 317 320 321 322 324 323 322 322 321 322 323 324 323 324 322 322 322 322 321 320 320 319 319 320 321 320 320 322 324
303 304 303 303 304 306 305 307 309 311 312 312 313 312 313 313 313 312 313 314 314 317 318 317 320 321 320 321 320 318 315 313 321 322 323 324 324 324 324 323 323 322 322 321 321 321 322 321 319 319 321 320 320 320
305 304 303 303 304 307 308 308 310 311 312 311 312 311 312 312 313 313 312 313 315 317 318 319 317 318 319 319 319 319 319 320 322 323 323 323 322 322 322 323 322 322 322 321 321 320 320 320 318 318 318 319 318 316
303 303 303 304 305 307 310 309 310 311 310 310 310 310 311 312 312 312 313 313 313 315 316 316 317 318 319 319 320 320 320 321 322 321 321 322 322 322 322 322 322 321 320 318 316 317 317 317 317 316 315 315 316 316
304 303 304 304 306 309 310 311 309 310 311 310 310 312 312 312 313 313 314 314 315 315 316 315 316 316 316 315 316 317 318 319 322 321 322 323 319 319 319 317 316 314 314 313 312 311 313 313 312 313 313 314 315 315
306 306 305 305 307 308 309 310 311 310 310 311 311 312 313 313 314 314 314 313 314 314 314 315 315 315 317 316 315 316 318 319 321 321 321 317 313 312 311 311 310 310 311 311 311 310 309 309 309 308 309 310 309 310
307 304 306 306 308 308 310 308 309 310 311 312 312 312 314 315 316 316 315 317 318 317 317 318 319 319 320 320 320 319 319 318 318 318 316 316 315 313 312 310 310 310 308 308 308 308 307 306 305 305 306 306 307 308
305 306 307 307 308 308 310 309 312 310 313 314 314 315 314 315 314 314 315 316 315 316 314 317 317 317 319 317 317 317 316 317 320 319 319 315 309 308 308 307 307 308 308 307 306 306 305 304 304 304 304 305 306 308
305 306 309 309 311 314 312 315 313 315 315 315 312 313 314 315 316 316 318 319 319 319 320 319 318 318 316 314 312 311 310 310 311 314 313 311 311 309 308 307 307 306 305 305 305 304 304 304 303 303 303 304 306 306
309 309 311 313 311 315 317 318 317 317 319 318 319 319 319 317 319 319 319 319 319 319 317 312 311 311 312 311 310 309 307 307 308 310 310 310 309 309 308 307 306 304 303 303 303 303 302 302 303 303 303 303 303 302
311 314 315 318 319 318 319 320 320 320 319 319 319 319 318 318 316 318 318 319 318 314 312 311 310 310 309 308 308 306 305 304 306 307 307 306 306 307 307 307 307 305 301 301 301 302 302 302 302 302 302 302 302 302
319 322 319 313 314 315 319 319 318 320 320 320 319 319 317 316 317 317 313 311 310 308 307 307 307 307 307 305 304 303 302 302 305 305 305 303 302 301 302 302 302 300 300 300 300 301 301 301 301 301 301 301 301 300
319 319 321 320 318 316 319 319 318 318 317 318 318 318 318 318 314 311 309 308 308 307 306 305 305 305 305 304 302 302 301 300 301 301 302 303 302 300 299 299 299 298 299 297 297 297 296 297 297 297 297 297 297 296
321 320 319 322 319 319 320 318 317 316 316 317 318 317 312 309 307 306 306 306 306 306 305 305 304 304 303 302 301 301 300 299 300 301 301 301 300 298 297 296 296 295 295 294 294 293 291 291 293 292 293 293 293 293
321 319 321 320 320 320 321 319 317 315 313 312 312 311 311 309 308 307 306 306 306 306 305 303 302 301 301 300 299 299 299 298 298 298 299 299 297 295 294 293 293 292 292 292 292 292 291 290 291 292 291 291 291 290
321 321 320 320 320 320 319 316 314 314 314 312 311 312 311 311 308 308 307 306 304 303 303 302 302 300 298 297 297 297 297 296 295 294 293 293 293 292 291 291 291 291 291 290 290 290 290 290 290 290 290 290 290 289
320 321 322 319 320 322 320 318 318 314 312 311 312 312 312 313 313 311 303 303 303 303 301 300 299 297 296 295 295 295 293 293 291 291 289 289 289 289 289 289 289 289 289 289 289 289 289 289 289 289 289 288 289 289
318 317 317 316 316 316 320 320 320 318 316 316 315 315 314 314 313 310 302 300 300 299 299 298 296 295 294 294 293 293 293 292 290 289 287 286 285 285 287 287 288 288 288 289 289 289 289 289 289 288 288 288 288 288

GFSWCAN_925_thetae_003.txt.gz
Theta_e
300 301 301 302 302 303 303 302 303 303 303 303 302 304 304 303 303 303 305 305 304 306 305 306 307 308 306 309 310 313 314 314 316 320 322 319 319 321 323 325 328 326 332 332 334 335 337 340 339 341 346 344 345 345
301 301 301 302 302 302 303 302 302 302 303 301 302 303 303 303 302 302 304 303 303 305 306 305 306 305 306 307 308 309 311 311 314 321 324 324 331 332 327 329 326 331 330 332 332 335 343 340 342 341 341 343 344 344
301 300 302 302 302 302 301 302 302 302 301 301 302 302 302 302 301 302 303 304 304 306 307 308 308 307 307 305 305 308 309 311 314 314 315 321 330 335 337 333 330 333 332 335 337 341 341 340 338 338 338 339 340 342
300 301 301 301 301 301 301 301 301 302 301 301 302 302 302 302 302 301 305 304 304 306 308 307 307 308 307 307 306 306 308 311 309 312 314 322 327 329 334 339 344 337 338 337 343 341 338 336 336 335 336 337 337 340
300 301 300 300 301 301 301 302 302 302 302 302 301 301 301 301 302 303 304 306 305 305 308 307 306 308 307 306 308 306 307 309 309 312 317 324 324 326 333 336 330 328 335 343 340 340 338 333 330 330 331 331 331 333
300 300 300 301 301 301 301 301 302 302 301 301 302 302 301 301 301 304 307 305 305 306 307 307 309 311 311 307 309 310 310 311 311 314 315 322 321 324 332 330 326 329 333 335 337 333 328 326 325 324 324 324 325 326
301 300 301 301 301 301 301 300 301 302 301 301 301 300 301 302 303 305 306 304 302 305 305 308 311 313 314 312 311 312 312 312 313 313 316 324 324 325 324 328 327 326 329 329 330 330 330 328 325 322 324 322 322 324
301 301 301 301 301 301 301 301 301 301 301 301 301 301 301 301 302 304 305 304 303 305 306 309 312 317 315 315 316 314 314 313 317 316 322 322 324 325 325 324 323 323 325 326 325 327 327 326 324 324 324 324 322 322
300 300 300 301 301 301 301 301 301 302 302 302 302 303 304 305 306 309 305 305 303 304 308 309 314 317 316 317 316 314 314 315 315 318 325 324 323 324 323 321 323 322 322 324 323 324 324 323 321 322 323 323 324 324
300 301 300 300 300 301 301 301 301 302 304 305 306 307 311 308 306 307 309 310 306 308 306 310 314 317 317 317 314 314 314 316 321 324 321 322 320 320 321 320 322 322 320 320 321 323 324 324 323 323 322 321 320 324
300 300 301 301 301 302 303 303 303 303 306 307 308 309 308 308 309 312 313 313 313 314 313 316 319 320 317 321 320 320 325 321 324 327 325 322 322 320 319 320 322 322 323 319 318 319 321 321 324 324 322 322 323 324
300 300 300 301 302 303 303 304 304 306 306 306 305 305 308 311 313 313 315 315 316 318 318 319 319 318 317 317 322 325 323 323 326 323 321 323 323 321 320 320 320 322 322 321 321 322 323 323 321 322 322 322 323 324
300 300 300 300 302 303 304 304 303 303 305 308 309 311 311 313 316 315 318 316 318 318 319 320 320 318 320 322 321 326 322 325 324 325 322 320 320 321 322 322 321 322 320 320 320 320 320 320 321 321 323 322 322 323
300 301 301 303 303 303 305 304 304 306 308 310 311 312 309 315 316 318 319 318 318 319 319 318 318 321 322 322 322 323 322 323 326 325 323 322 322 322 323 322 322 321 320 320 319 319 319 320 321 322 322 322 322 324
300 302 304 305 303 304 305 305 307 310 310 310 310 312 314 314 316 316 318 316 316 317 317 318 319 319 320 322 322 323 324 322 322 326 325 322 322 322 322 321 320 320 320 320 320 320 319 320 321 321 323 322 323 324
301 306 306 303 303 305 307 309 311 312 313 314 313 314 314 315 314 314 316 317 317 318 318 319 319 320 321 321 322 322 322 319 318 324 324 324 323 322 322 322 322 321 321 320 320 319 319 319 320 321 320 321 322 323
303 307 305 303 304 307 309 311 312 313 313 312 313 311 312 312 314 316 316 317 318 319 319 318 320 321 319 320 320 316 316 315 319 321 323 322 324 323 322 322 322 321 322 321 320 321 322 320 319 320 323 319 319 319
306 306 304 304 304 309 311 310 312 311 311 311 312 312 312 313 315 316 316 317 318 319 319 319 318 320 321 321 320 320 321 321 322 323 325 324 324 323 323 323 321 321 322 321 320 320 320 321 322 322 319 318 320 318
304 305 304 305 306 309 312 311 312 312 312 312 312 312 313 314 315 315 316 316 317 317 317 317 318 319 320 320 321 322 323 324 325 325 325 323 322 323 322 321 321 321 318 319 319 319 318 318 317 317 316 316 317 317
307 307 307 307 308 312 312 312 311 312 312 313 313 313 314 314 315 315 315 315 315 316 316 315 316 317 317 318 319 320 322 323 324 324 323 320 319 317 318 317 318 317 316 316 314 313 314 314 313 313 313 313 314 314
310 310 308 310 311 312 313 313 313 312 313 313 313 313 314 316 317 318 319 316 317 318 319 320 321 321 320 319 319 320 321 321 323 324 320 316 314 314 315 314 314 314 314 314 314 313 312 311 310 309 310 310 309 310
310 307 311 312 314 314 315 312 313 313 314 314 316 316 317 317 317 317 317 318 318 319 319 321 322 323 323 321 319 316 318 319 319 319 318 318 317 315 314 312 312 312 312 311 310 310 309 308 307 306 307 306 307 309
308 309 313 313 316 314 317 315 316 315 317 317 316 317 317 319 317 316 317 317 318 317 319 319 317 316 316 312 311 310 311 314 316 316 316 315 314 313 312 311 310 310 310 309 308 308 307 305 305 305 305 305 306 308
307 310 314 316 318 319 318 319 318 318 317 318 319 320 319 320 319 320 320 319 319 319 316 317 312 313 313 313 311 310 308 309 311 312 312 312 313 312 310 310 309 308 306 306 306 306 305 304 303 304 305 305 305 305
315 313 320 318 321 321 319 318 319 318 318 319 319 319 320 319 318 318 318 318 316 313 313 312 312 312 311 310 309 307 305 307 309 311 309 308 309 310 310 309 307 306 304 304 305 304 303 303 303 303 304 304 304 303
321 321 318 321 320 321 319 318 318 319 318 318 318 318 318 318 318 319 318 315 312 311 312 311 311 311 310 308 308 306 304 304 306 308 306 305 305 305 306 307 307 305 302 302 301 301 301 301 301 302 302 302 302 301
321 321 322 320 320 320 321 320 319 319 318 319 318 318 317 319 317 312 311 309 310 308 308 308 307 308 308 307 306 304 303 303 303 304 305 305 303 302 301 301 301 298 299 299 298 298 298 297 297 298 298 298 298 298
322 323 323 321 321 320 321 319 318 318 318 318 318 319 318 316 313 309 310 309 309 309 308 308 306 305 305 305 304 303 303 302 301 302 302 303 301 300 298 297 296 295 295 295 294 294 294 293 293 294 295 295 295 295
322 321 322 322 321 320 321 320 319 318 317 318 320 317 313 311 308 307 307 307 307 305 308 306 305 304 303 302 301 301 301 300 300 301 301 301 300 297 296 295 295 294 294 294 293 292 291 291 292 292 293 293 293 293
320 320 321 320 322 322 321 318 318 317 315 313 311 309 308 308 307 308 309 309 308 306 306 305 304 302 300 300 300 299 299 298 297 296 297 297 296 294 294 293 293 293 293 293 293 293 291 292 292 293 292 291 291 290
318 318 319 321 321 320 318 317 315 315 314 313 311 311 310 310 310 309 306 306 305 305 304 302 301 299 298 298 298 298 297 296 294 293 291 291 292 292 292 292 292 292 291 292 292 292 291 291 291 291 291 290 290 290
318 317 317 317 320 320 319 318 317 316 315 314 314 313 312 313 313 308 305 304 303 302 301 300 299 298 297 296 296 296 294 295 293 291 290 288 289 289 290 290 290 291 291 291 291 291 291 291 290 290 290 290 290 289
317 318 317 316 316 315 320 321 320 318 316 315 316 315 314 314 312 308 305 303 301 300 299 298 298 297 296 295 294 294 294 293 291 289 288 287 287 287 289 290 290 291 291 291 291 291 290 290 289 289 289 289 289 289

GFSWCAN_925_thetae_006.txt.gz
Theta_e
302 301 301 302 302 302 302 302 303 303 303 304 304 304 303 304 304 304 305 306 304 305 305 306 307 308 307 309 311 311 310 315 314 311 312 315 319 320 321 325 328 327 326 331 338 343 344 339 340 343 345 343 342 342
302 300 301 301 301 301 302 302 303 303 303 304 303 304 303 303 303 303 305 305 306 306 305 304 306 307 306 307 309 309 310 311 316 317 320 322 322 326 326 326 323 325 326 328 331 334 336 342 346 343 341 342 345 348
302 301 301 301 301 301 302 302 302 302 302 302 303 303 304 304 303 303 304 305 305 305 306 308 308 308 308 308 306 309 308 310 313 315 318 320 325 328 332 328 328 326 332 329 332 335 341 341 339 339 340 345 345 346
300 300 300 301 301 301 301 302 302 302 303 303 303 303 303 303 302 302 304 304 306 306 308 306 306 308 308 309 309 307 307 310 312 313 315 318 323 324 326 330 337 336 334 341 335 347 343 341 340 340 340 340 341 339
301 300 301 301 301 301 301 301 302 302 302 302 302 302 302 302 302 303 304 305 305 305 308 308 307 307 309 308 309 308 308 309 310 311 317 318 322 323 327 328 329 330 335 341 348 343 342 340 337 333 334 335 335 335
301 301 301 300 301 301 301 301 302 302 302 302 301 301 301 301 301 304 307 306 307 306 307 308 309 310 311 309 308 310 309 310 310 314 316 315 318 323 328 328 327 330 332 334 332 333 329 329 327 327 328 327 327 329
300 300 300 301 301 301 301 301 301 301 302 302 303 302 301 301 303 305 307 306 303 304 307 308 310 314 314 310 310 311 310 311 313 315 315 317 323 324 326 328 327 328 330 329 328 328 329 327 327 325 325 326 326 328
300 301 300 300 301 301 301 301 301 301 302 303 303 302 302 302 303 305 305 305 304 305 305 309 312 315 314 312 313 314 314 313 316 316 315 323 322 322 326 326 326 325 328 329 330 327 326 327 327 325 326 326 326 325
300 300 301 301 301 302 303 303 304 304 303 304 304 305 306 306 307 310 305 306 304 305 308 310 312 317 313 316 317 314 314 314 317 318 321 323 321 323 323 324 323 324 326 326 326 325 325 325 324 324 325 324 326 327
300 300 301 301 301 302 302 303 304 304 305 306 307 309 312 310 307 307 308 309 307 307 307 310 313 317 312 313 315 315 314 316 321 321 321 321 320 320 320 322 321 321 321 325 325 325 323 325 325 323 323 323 322 320
300 300 300 300 301 301 303 304 305 304 308 309 309 310 309 308 310 312 313 312 312 313 312 314 318 321 316 321 323 323 325 323 324 320 324 321 321 320 320 321 322 320 319 320 322 323 322 321 320 319 321 321 322 323
300 300 300 301 303 304 303 305 305 307 308 306 305 306 309 313 314 312 312 313 314 313 316 320 320 320 321 318 321 323 325 323 326 322 321 322 320 320 319 320 321 320 320 322 322 324 324 324 324 322 321 323 324 325
300 300 301 303 305 304 304 305 305 305 307 310 311 313 313 314 317 317 318 312 318 317 320 320 322 320 322 323 320 322 323 327 323 323 322 320 320 320 320 320 319 319 320 321 321 321 321 323 322 322 323 324 323 325
300 300 303 305 305 304 306 306 308 309 308 312 312 318 315 316 315 317 319 319 319 320 322 318 320 320 317 320 323 324 323 323 325 326 324 321 320 321 322 322 323 322 321 320 321 320 322 324 323 323 322 322 324 325
301 301 306 307 305 305 308 309 309 311 313 314 315 320 317 317 319 319 318 319 320 319 320 320 320 321 322 323 323 323 322 323 321 326 323 323 322 323 324 323 323 322 322 321 321 321 322 322 324 324 324 324 324 324
302 305 308 307 305 306 310 312 313 315 316 316 315 314 314 314 315 316 318 318 320 320 320 320 320 320 320 321 320 319 321 320 318 322 322 322 323 322 322 323 323 321 321 323 322 322 323 322 323 322 320 322 321 322
304 309 308 306 305 308 312 312 313 313 313 312 313 313 314 316 317 317 318 319 319 320 321 320 322 323 320 320 317 316 318 318 320 321 321 321 322 321 323 324 324 322 324 322 321 322 319 322 321 322 325 322 320 320
308 308 307 306 306 312 312 312 314 312 312 313 314 315 316 316 317 317 317 317 318 320 321 319 318 320 321 321 323 321 321 321 321 321 322 323 324 324 325 323 323 322 321 320 319 320 321 321 319 318 317 317 317 317
306 307 308 307 307 309 313 312 313 313 313 313 314 315 315 317 318 319 317 316 318 317 318 318 318 321 322 323 323 324 325 325 326 326 326 325 321 323 323 322 322 319 320 319 319 318 316 317 315 314 314 315 316 315
309 310 310 310 310 315 314 314 312 313 314 314 314 316 317 318 318 318 318 320 318 319 319 321 323 323 324 324 324 324 325 326 325 324 323 323 318 319 321 319 317 317 315 315 314 313 314 313 311 311 311 311 312 312
314 313 313 313 315 314 315 315 314 314 315 316 317 318 319 317 319 319 320 318 317 319 321 323 323 323 319 319 319 318 322 321 324 323 322 317 317 315 315 315 314 314 313 313 313 312 311 310 308 308 308 309 308 309
313 310 314 316 316 316 316 315 316 315 317 318 318 318 319 319 318 316 315 317 318 321 321 321 322 317 316 317 315 314 317 318 319 320 318 318 316 315 315 314 313 313 312 311 310 310 309 307 306 306 307 307 307 308
312 312 317 317 319 317 319 317 319 318 318 318 320 319 320 320 319 316 317 318 318 321 319 319 318 315 316 314 311 309 310 313 315 314 314 314 313 313 312 311 311 310 310 308 308 307 307 306 305 305 306 306 306 307
311 315 319 321 320 320 320 319 319 318 319 320 320 321 321 321 318 318 318 320 318 314 314 318 313 314 312 312 311 309 308 309 310 311 309 310 312 312 310 310 309 307 306 307 306 306 305 304 304 305 305 305 306 305
318 318 320 317 323 321 319 319 318 318 318 318 319 320 322 321 318 318 317 315 313 313 313 312 311 313 311 311 309 307 306 306 308 310 308 307 307 307 308 307 306 304 303 303 303 302 302 302 302 302 303 303 302 302
317 323 319 320 320 321 322 319 319 319 318 318 318 319 320 322 318 318 315 313 312 312 312 311 312 311 310 308 308 307 306 305 305 306 306 306 305 304 304 304 303 300 299 300 299 298 299 298 297 297 298 299 299 299
321 322 322 322 322 321 322 321 320 319 320 320 321 321 320 321 317 313 312 310 311 310 310 310 309 308 307 306 305 304 304 304 303 303 304 304 302 301 300 300 298 296 297 297 296 296 296 295 295 295 296 296 297 297
325 324 317 316 322 321 321 321 320 320 319 319 320 319 318 317 313 311 309 309 309 309 309 308 308 307 305 303 303 303 302 302 301 301 302 302 300 298 297 297 296 295 296 294 294 295 294 293 294 294 295 295 295 295
321 320 322 323 320 320 320 319 319 318 317 318 320 318 314 311 310 310 309 309 309 309 309 306 305 304 303 301 301 301 300 299 298 299 299 299 298 296 295 295 295 295 295 295 293 292 292 293 293 293 293 293 293 292
319 321 322 321 319 321 319 318 318 316 314 313 312 311 311 311 310 310 311 309 307 307 305 304 303 301 300 300 300 299 298 297 295 294 295 295 295 294 294 294 294 294 294 294 294 294 293 293 293 293 293 292 292 291
319 318 319 321 319 318 318 318 315 314 314 314 313 313 312 312 312 308 306 305 304 303 302 301 301 300 299 299 299 298 297 297 295 293 291 291 292 293 293 293 293 293 293 293 294 294 293 293 293 292 292 292 291 291
319 318 317 318 322 320 319 320 318 317 316 316 315 313 313 314 314 309 307 305 303 302 300 300 300 299 298 297 297 296 295 295 293 291 290 290 291 291 291 292 292 292 292 293 293 292 292 291 291 291 291 291 291 291
318 318 318 317 317 317 322 322 322 319 316 316 316 315 314 314 312 308 307 304 302 300 299 298 298 298 298 297 296 295 295 293 291 290 290 290 289 289 290 291 291 291 291 292 291 291 291 291 291 291 291 291 291 291

GFSWCAN_925_thetae_012.txt.gz
Theta_e
301 301 300 300 300 300 301 301 301 301 303 304 305 305 305 305 304 304 303 303 304 303 303 302 302 304 303 303 306 305 307 307 306 312 314 313 313 313 316 318 325 328 331 334 329 337 342 326 336 334 335 348 349 351
300 300 300 300 301 301 301 301 301 301 302 304 304 304 304 304 304 304 304 303 303 304 305 304 304 304 304 304 302 303 308 307 308 311 312 314 314 316 317 323 324 329 327 330 327 334 326 325 338 343 341 343 344 345
300 300 300 300 300 301 301 301 301 301 301 302 304 304 304 304 304 304 304 304 304 304 302 302 303 304 304 304 304 305 304 307 308 306 309 311 318 318 321 322 326 326 327 327 330 329 332 341 342 339 337 340 339 338
299 300 300 301 301 301 301 302 303 302 302 304 304 304 304 304 303 304 304 302 303 305 305 304 304 303 304 304 304 304 305 306 308 308 309 308 314 317 320 324 324 327 328 332 330 329 331 334 338 337 335 335 335 334
299 300 300 300 301 301 301 301 301 301 301 302 304 304 305 304 304 303 301 302 303 305 306 306 303 304 306 307 304 305 305 306 306 308 311 314 316 316 320 321 324 325 330 335 337 331 331 330 334 333 332 331 331 331
300 300 300 300 300 300 300 301 302 303 303 303 304 304 305 305 304 303 302 305 305 305 305 305 301 303 306 310 308 305 306 306 305 305 311 314 314 316 318 323 323 322 323 325 331 326 326 328 326 326 327 327 328 328
300 300 300 300 300 300 300 302 304 304 304 305 305 305 305 305 305 303 302 305 305 305 305 307 304 306 310 308 306 304 304 304 307 310 314 315 316 311 317 323 322 323 325 329 327 327 328 326 327 326 325 326 325 327
300 300 300 300 300 300 301 303 304 304 305 305 305 306 306 305 306 306 306 306 303 303 305 308 307 309 309 311 311 311 307 310 312 313 313 315 314 314 321 320 319 321 325 328 326 326 326 326 325 324 323 323 325 326
300 300 300 300 300 300 301 304 305 305 306 307 308 309 307 306 306 308 307 306 304 305 308 308 310 312 310 313 313 313 314 315 313 314 314 314 319 319 320 320 322 324 328 327 325 324 325 326 326 323 323 322 323 324
300 301 301 301 301 301 302 306 305 306 308 309 309 309 309 310 309 307 309 308 305 306 306 306 308 311 310 314 314 314 315 314 313 313 315 315 317 317 318 321 321 323 324 324 325 325 322 323 323 323 323 323 322 321
302 302 302 302 302 303 305 307 305 307 308 307 304 307 307 308 309 310 310 309 309 310 308 308 309 310 313 317 315 317 316 315 314 318 319 318 316 319 320 322 322 321 321 321 321 320 321 322 322 323 324 324 323 323
303 303 303 304 304 304 308 306 306 307 308 307 306 306 307 309 311 311 305 306 307 310 312 313 317 316 316 315 314 318 319 318 322 320 318 317 318 319 320 321 320 320 321 322 322 323 322 319 319 321 322 323 324 324
302 303 303 304 305 308 308 306 307 309 309 310 308 310 309 310 314 312 312 312 314 314 316 318 318 316 316 317 318 317 319 322 322 318 315 315 318 318 318 320 321 321 321 321 323 323 322 323 322 320 323 324 325 325
303 303 305 305 309 309 307 307 308 310 312 310 311 311 313 314 317 317 319 320 315 316 317 318 320 317 318 320 319 323 322 318 321 319 316 317 317 316 317 318 320 321 322 322 322 323 322 322 323 323 324 322 321 321
304 305 306 310 309 307 308 309 311 312 313 313 311 314 316 314 315 317 317 318 317 315 318 319 319 318 318 318 317 319 320 318 317 321 320 321 320 320 321 321 321 321 321 321 321 321 322 321 321 321 321 322 321 320
305 307 310 309 309 309 310 312 314 314 315 313 314 317 315 317 318 318 318 318 317 315 314 314 318 318 318 316 318 318 318 319 320 321 319 318 319 319 319 320 318 318 318 318 318 317 316 317 316 316 316 317 317 315
306 308 309 309 310 312 313 313 315 316 312 314 314 313 314 315 316 317 315 315 315 316 318 317 321 320 315 315 317 317 320 320 320 319 319 319 318 317 318 317 316 317 317 316 313 309 309 310 312 314 313 314 314 313
308 310 311 311 311 312 314 314 313 312 315 314 313 314 313 313 314 314 314 312 313 315 316 319 319 320 319 318 319 320 319 318 318 318 318 318 318 318 318 316 315 315 314 312 308 306 306 307 307 308 307 310 310 310
310 312 313 313 311 311 312 313 313 314 314 312 312 312 312 312 312 312 312 313 311 309 312 315 317 317 317 319 319 318 317 317 317 317 317 317 318 317 316 317 317 312 309 307 305 304 304 304 305 306 306 307 307 307
314 313 314 314 314 314 314 310 314 312 315 315 314 314 312 312 310 311 312 311 311 311 310 311 313 313 311 310 311 315 316 316 316 316 315 313 313 312 311 309 308 308 306 305 304 303 303 303 304 305 306 306 305 304
316 314 316 317 317 315 312 311 313 312 312 314 313 314 314 312 312 312 312 309 311 312 314 310 308 307 306 306 306 309 311 311 310 309 310 306 305 307 308 306 306 306 305 304 303 302 302 301 302 303 304 304 304 303
314 314 316 318 317 316 315 316 313 314 314 314 314 314 314 314 313 312 309 312 312 312 313 310 308 307 306 305 305 305 306 308 307 308 310 307 304 302 302 302 303 301 301 301 301 300 298 298 299 300 300 303 304 303
314 314 317 318 318 309 312 317 318 316 319 317 318 318 317 314 312 309 310 311 311 310 309 309 309 309 309 306 305 304 304 304 304 305 307 305 302 301 299 299 300 300 299 298 298 297 296 296 296 298 298 298 299 300
315 315 317 319 317 315 318 320 318 318 319 320 318 319 318 317 316 311 313 312 309 310 308 308 309 307 307 305 302 303 303 303 303 304 304 303 300 297 296 296 297 297 296 296 296 295 295 295 295 296 297 297 297 296
313 314 316 310 317 318 320 319 319 318 319 319 318 317 317 314 317 315 315 310 311 309 307 309 308 307 303 301 301 301 300 301 301 299 299 299 298 297 296 295 296 296 296 295 294 294 294 295 295 296 295 294 294 295
315 318 315 319 318 318 320 320 320 321 319 319 319 317 317 317 315 314 311 309 308 308 307 307 308 304 300 301 299 298 297 298 300 297 297 297 297 296 294 293 293 295 295 295 294 293 294 294 294 294 293 293 293 293
314 317 315 314 316 318 319 318 317 315 316 319 318 318 317 315 314 310 307 308 307 310 309 307 303 300 299 299 298 297 296 296 296 296 295 295 295 295 295 294 294 295 294 294 294 293 293 293 293 293 293 292 292 292
317 317 319 320 320 319 319 316 316 314 313 312 315 316 315 312 309 307 307 310 310 310 306 301 300 300 299 298 297 296 295 295 295 294 294 294 294 294 294 294 294 294 294 294 293 293 293 293 293 293 292 291 291 292
321 321 319 321 320 318 317 316 314 312 310 311 315 313 311 309 309 309 310 307 302 301 301 301 299 299 298 296 295 295 295 294 293 291 291 290 291 293 293 293 293 293 293 294 293 293 293 292 292 292 292 291 291 291
323 320 322 320 318 318 316 313 312 310 309 308 308 308 308 309 310 310 306 304 301 300 299 300 299 298 297 296 294 293 293 292 292 291 289 289 291 292 292 292 292 292 292 293 292 292 292 292 292 292 292 292 291 291
319 318 320 319 318 316 314 312 312 312 310 309 308 309 309 308 311 308 304 301 299 299 298 299 298 298 297 296 295 293 292 292 291 291 291 291 291 291 291 291 291 291 292 292 292 291 291 292 292 292 292 291 291 291
318 317 317 320 319 316 314 314 313 314 313 314 314 311 311 312 312 310 305 302 300 299 298 298 297 296 296 296 295 295 294 292 292 292 291 291 291 291 291 291 291 291 291 292 292 292 292 292 291 291 291 291 291 292
317 318 317 317 320 321 319 319 319 319 315 315 316 315 314 311 310 305 301 301 299 298 298 298 297 296 295 295 295 294 294 293 292 292 292 292 291 291 291 291 291 291 291 291 292 292 292 292 291 291 291 292 292 292

GFSWCAN_925_thetae_015.txt.gz
Theta_e
300 300 300 300 300 300 300 301 301 301 301 303 304 304 304 305 304 304 303 303 303 304 302 302 302 303 303 303 304 301 304 306 303 309 310 309 311 312 312 314 318 321 324 327 321 327 331 335 339 345 341 340 346 345
299 299 299 300 300 301 301 301 301 302 302 302 303 304 304 304 304 304 303 303 303 304 302 303 303 303 302 302 303 302 303 304 306 307 307 308 310 312 312 317 316 321 323 328 325 328 327 331 334 339 337 340 342 344
299 299 299 300 300 300 300 300 300 300 301 302 304 304 305 305 304 304 304 304 303 303 303 303 302 303 303 303 303 304 305 303 305 306 309 309 312 313 314 316 317 319 321 326 327 328 332 334 333 334 334 335 335 335
299 299 300 300 300 300 300 300 300 301 302 303 304 305 305 305 305 305 305 304 303 303 305 303 304 302 304 304 303 303 303 305 307 308 309 308 311 311 315 315 314 315 322 324 329 328 330 334 332 332 332 331 332 333
300 300 300 300 300 300 300 300 301 302 303 304 305 305 305 305 305 305 304 304 304 302 306 305 302 303 304 303 302 302 303 303 305 309 310 311 311 312 315 312 316 320 325 326 326 330 331 331 329 328 329 330 327 331
300 300 300 300 300 300 300 300 301 303 305 305 306 306 306 306 305 304 302 305 304 303 305 305 299 301 303 305 304 302 303 303 305 307 305 306 310 312 316 312 321 322 322 324 329 326 327 327 326 326 328 328 331 330
300 300 300 300 300 300 301 302 302 305 306 305 307 307 306 306 306 303 302 304 305 304 305 307 305 302 306 307 304 304 304 303 306 305 307 309 311 312 313 317 320 320 320 323 325 325 328 328 327 325 327 327 327 327
301 301 301 301 301 302 302 303 304 307 305 307 308 309 308 307 306 306 306 305 304 303 304 307 308 307 309 310 311 310 305 307 310 312 313 314 313 312 314 315 319 318 322 323 327 324 325 324 324 324 323 327 326 326
303 303 303 303 303 303 304 304 307 306 306 308 308 308 307 306 306 306 307 306 305 303 305 306 308 312 310 311 312 311 312 313 312 314 314 313 312 314 317 317 317 320 323 328 326 324 324 324 324 323 323 323 326 326
302 302 302 303 303 304 304 307 307 306 309 309 308 308 307 308 308 308 308 307 305 305 305 305 305 308 309 312 313 313 313 314 312 311 313 311 310 312 314 317 320 324 324 323 325 325 324 323 323 322 322 322 323 324
302 302 303 303 304 305 306 308 307 307 309 308 304 305 307 308 309 310 308 308 308 306 306 306 306 307 310 314 315 314 310 312 313 314 315 311 312 319 320 321 322 322 322 321 321 320 321 321 321 320 322 322 323 324
304 304 304 304 305 306 309 307 308 307 307 307 306 307 307 307 310 310 309 307 306 309 309 311 314 311 314 314 314 315 314 313 320 318 316 315 313 318 320 321 322 322 323 323 322 322 321 321 320 321 321 322 323 324
305 304 305 306 306 309 308 309 309 310 309 309 307 309 307 309 318 313 313 317 319 314 314 316 319 316 316 316 316 316 321 323 319 315 313 312 315 318 318 319 322 322 323 324 324 322 321 322 322 322 324 324 323 323
305 306 307 307 309 309 310 310 312 312 312 309 309 313 314 316 318 318 319 320 318 315 317 317 320 317 317 318 319 321 319 316 319 318 317 319 322 322 321 321 320 320 320 320 322 322 322 322 321 321 320 319 318 317
306 308 308 309 310 311 311 312 313 314 313 312 312 312 316 315 315 315 314 315 316 316 316 317 317 315 315 317 316 316 319 317 317 321 321 320 320 319 319 318 317 316 316 316 316 318 318 317 316 316 315 315 315 315
308 309 309 311 312 312 312 313 313 315 311 313 314 316 314 314 315 314 313 314 313 315 313 314 317 316 318 316 318 317 316 318 320 321 320 319 318 317 317 314 312 309 308 307 308 308 309 311 312 312 311 311 312 312
309 310 311 312 313 312 313 313 313 311 312 315 316 313 311 312 312 312 311 310 310 315 318 317 319 320 316 318 319 319 321 321 320 319 318 317 317 316 314 312 311 309 306 306 305 306 306 306 307 307 308 308 310 311
310 312 313 313 313 313 314 313 311 314 315 311 312 311 310 310 311 311 310 309 308 309 313 318 316 317 319 321 320 319 318 317 316 316 317 316 314 314 314 311 308 305 303 303 303 303 303 304 304 304 305 308 308 306
311 313 313 314 314 313 313 312 312 315 313 311 312 310 308 309 309 309 309 309 308 306 307 308 312 313 313 313 314 315 316 316 316 315 313 310 311 308 306 305 303 303 302 301 301 302 302 303 303 304 304 304 304 303
314 314 314 316 314 313 311 309 311 310 313 313 310 311 309 309 307 308 309 309 307 306 307 309 308 308 310 307 308 309 310 309 311 311 305 305 305 303 302 302 302 301 300 299 299 299 300 301 302 303 302 302 301 300
315 314 316 317 317 314 309 309 310 309 310 313 310 311 311 309 309 309 309 307 309 309 309 307 308 305 303 303 303 304 304 304 304 302 301 300 301 302 300 299 299 299 298 297 296 296 296 296 298 301 302 301 299 297
313 314 315 317 316 313 312 312 311 310 313 314 313 311 312 312 309 309 305 307 309 311 309 306 305 304 301 301 301 302 304 304 303 302 300 300 299 299 299 299 297 296 296 296 295 294 294 295 297 298 300 298 295 295
314 314 316 316 316 309 312 314 316 316 318 318 316 316 316 314 311 306 309 308 309 307 307 306 305 305 302 301 301 301 302 303 301 300 297 296 295 296 296 296 296 296 295 294 294 294 294 295 296 296 297 296 294 293
314 314 315 315 315 313 315 317 315 315 317 316 314 316 317 316 311 309 310 308 308 308 305 305 304 301 299 299 296 297 299 299 298 299 297 295 294 294 295 295 295 295 294 294 294 294 294 294 295 295 295 294 293 293
310 312 312 309 313 315 318 316 317 316 317 316 315 313 313 312 312 310 310 307 305 305 304 306 303 299 297 296 295 296 297 297 295 294 296 295 294 294 294 294 294 294 294 293 293 293 293 293 293 293 293 293 292 291
311 315 313 317 316 317 317 319 317 317 316 318 317 316 313 311 312 310 308 306 306 305 305 304 303 296 295 295 293 294 295 295 295 294 294 295 294 293 292 291 291 293 294 293 293 293 293 293 292 292 292 292 292 291
313 315 313 310 312 314 316 314 313 311 313 315 316 316 312 313 310 306 304 305 305 308 306 301 300 297 295 295 294 294 295 295 294 294 293 293 293 293 293 293 293 293 293 293 293 293 292 292 292 291 291 291 291 291
315 314 317 316 317 315 318 313 313 312 311 309 312 314 313 309 305 304 304 308 304 300 299 300 299 298 296 295 295 295 294 294 294 293 293 293 292 293 292 292 293 293 293 293 293 293 292 292 292 291 291 291 291 291
317 316 315 318 318 316 314 313 312 309 307 310 312 311 309 306 305 307 309 304 299 300 298 297 296 296 295 295 294 293 293 292 291 290 289 288 289 291 292 292 292 292 292 292 292 292 292 292 291 291 291 291 291 291
321 316 318 319 317 316 314 309 310 307 305 307 305 305 306 306 309 309 307 300 299 298 299 297 296 296 294 293 292 292 292 291 291 290 288 288 290 291 291 291 291 291 291 292 292 291 291 291 291 291 291 291 291 291
317 317 318 316 315 313 312 309 310 310 308 306 306 307 308 306 308 305 301 299 298 298 298 297 296 295 295 293 292 291 291 291 291 291 291 291 291 291 290 291 291 291 292 291 291 291 291 291 291 291 291 291 291 291
313 313 315 318 316 311 310 311 311 312 312 310 310 308 309 309 309 306 300 299 298 298 298 297 296 295 295 295 295 294 294 292 292 292 291 291 291 291 291 290 290 291 291 292 291 291 291 291 291 291 291 291 291 291
313 313 312 316 316 315 314 314 314 317 312 311 312 312 310 310 310 303 300 299 299 298 298 297 296 295 295 295 294 294 293 292 292 292 292 292 291 291 291 291 291 291 291 291 291 291 291 291 292 291 291 291 291 291

GFSWCAN_925_thetae_018.txt.gz
Theta_e
299 299 299 299 300 300 300 300 300 300 300 303 304 305 305 305 304 304 303 303 303 303 301 300 302 303 302 302 303 302 302 303 304 308 309 308 308 309 309 308 312 313 315 316 315 320 321 325 335 345 339 338 338 341
299 299 299 300 300 300 300 300 300 300 300 301 304 305 304 305 305 304 304 303 302 302 303 303 302 302 302 301 302 303 305 301 302 304 307 304 309 309 312 312 311 312 317 320 318 319 318 327 328 333 334 336 336 336
299 300 300 300 300 300 300 300 300 300 301 302 304 305 305 305 305 305 305 304 302 303 301 300 301 302 302 302 302 303 303 303 304 305 308 308 311 310 310 312 314 313 316 318 319 320 323 330 331 330 331 332 331 333
300 300 300 300 300 300 300 300 300 301 302 303 306 306 306 306 306 306 306 305 302 302 303 300 303 302 304 303 302 301 302 302 303 307 307 307 310 309 312 312 310 311 312 315 318 319 325 331 330 328 330 330 330 331
300 300 300 300 300 300 300 301 302 303 303 306 306 306 307 307 306 306 306 306 305 303 302 302 302 302 302 302 301 301 302 302 304 307 309 310 309 309 311 311 313 311 312 316 318 319 324 327 327 327 329 331 329 331
300 301 302 302 302 302 302 302 303 303 306 307 306 307 307 307 306 306 302 303 303 303 304 307 301 301 303 302 300 301 301 301 303 304 306 309 307 310 313 315 312 314 314 315 321 322 324 326 326 327 329 331 331 331
303 303 303 303 303 303 302 303 304 305 307 306 306 308 307 307 306 304 304 303 304 303 305 305 307 303 303 306 303 301 301 302 302 305 306 305 309 311 313 312 311 313 313 316 319 322 327 327 328 327 328 327 328 329
302 302 302 302 303 303 303 304 305 308 307 307 307 308 308 307 306 306 306 304 304 304 303 305 308 307 307 306 308 303 303 303 306 307 309 311 312 312 313 312 313 313 314 317 319 321 325 325 326 326 326 327 328 327
302 302 303 303 304 304 304 305 307 307 308 308 307 307 307 306 306 306 306 306 304 302 303 303 307 311 308 310 311 311 310 312 311 313 313 312 312 312 311 310 314 315 317 320 323 323 324 326 327 326 326 326 327 326
303 304 305 305 305 305 306 307 308 308 308 309 307 306 306 307 308 308 305 305 304 305 304 303 303 306 306 310 313 312 312 312 313 310 311 312 310 309 310 311 316 316 319 321 325 326 326 326 326 326 325 324 325 325
305 306 305 305 306 307 307 308 309 308 308 308 303 303 307 308 309 309 308 308 306 305 301 302 304 306 307 310 314 313 310 309 312 313 311 310 311 315 317 317 321 322 322 322 321 321 321 322 324 324 323 323 324 324
307 306 306 307 307 308 309 310 310 308 308 307 306 306 307 307 310 311 311 309 307 310 310 309 312 307 310 311 314 313 312 307 316 316 311 314 313 316 321 323 324 323 323 323 323 322 322 322 320 322 324 325 324 324
306 307 308 308 309 310 311 311 312 311 309 308 305 307 309 312 318 317 317 317 319 317 315 316 318 316 316 316 316 316 319 318 315 312 311 319 319 316 316 319 320 322 322 322 322 323 322 321 319 320 320 321 323 322
307 309 308 310 311 312 312 313 313 313 312 307 310 311 314 316 316 317 316 315 316 316 315 314 317 316 314 313 317 320 318 315 317 316 319 319 316 313 311 311 312 314 318 317 317 317 316 315 315 314 315 318 318 318
309 309 311 311 312 312 312 313 313 314 312 310 311 313 312 313 313 313 312 313 313 313 312 314 313 313 315 318 316 315 318 317 316 318 318 316 314 312 310 309 309 310 309 311 310 311 311 312 311 311 311 311 310 309
310 311 312 312 313 312 312 312 313 313 311 312 312 312 311 312 311 310 309 309 309 313 312 313 315 316 318 317 318 319 315 318 320 319 317 314 312 310 308 306 306 306 307 307 307 308 308 309 310 309 308 307 306 305
311 312 312 314 312 313 313 312 312 310 311 313 312 308 309 309 309 309 308 307 305 311 315 316 319 320 316 317 319 318 319 318 317 314 313 312 311 308 305 303 303 302 303 303 303 304 305 306 306 307 306 305 304 303
311 312 313 315 314 312 313 313 311 312 313 309 311 310 307 307 307 308 307 307 304 304 310 315 312 314 314 316 317 317 316 316 311 308 307 306 305 304 303 302 300 300 300 301 302 302 303 303 304 304 303 303 302 301
312 313 314 315 314 313 311 311 311 312 311 309 308 307 306 307 306 306 307 307 306 303 305 308 309 310 311 309 311 311 310 312 310 307 304 303 300 300 300 299 298 297 297 297 298 299 301 301 301 301 302 301 300 299
314 314 314 316 314 312 310 309 310 310 313 311 310 310 308 307 305 307 308 307 305 304 306 306 307 307 307 306 306 307 306 303 307 302 300 301 300 298 297 297 296 296 295 295 296 296 297 299 299 299 298 297 297 296
314 314 316 316 316 313 308 308 309 308 308 311 309 310 309 307 307 306 306 304 306 306 306 304 303 301 299 301 301 302 301 300 299 299 299 297 299 298 297 296 295 295 294 294 294 294 294 294 297 298 296 294 294 294
313 314 315 316 315 312 310 310 309 309 311 312 311 309 310 310 307 307 303 307 307 306 305 303 302 301 299 299 299 300 301 299 298 297 296 296 295 295 296 296 295 294 293 293 293 293 293 295 297 295 294 293 293 292
314 314 316 315 315 307 311 312 314 313 315 312 310 313 312 312 308 304 308 307 307 305 306 303 303 300 298 298 300 299 299 297 295 295 294 294 294 294 294 294 294 293 292 292 293 293 293 295 295 293 293 292 292 291
314 313 313 313 313 312 312 314 312 313 313 312 312 315 315 312 308 306 309 306 304 305 303 303 301 297 297 297 294 294 296 296 295 295 294 294 293 293 293 293 293 292 292 293 293 293 293 293 294 292 292 291 291 291
310 312 310 306 311 314 316 315 314 313 315 313 314 313 311 308 310 309 308 305 304 304 303 302 298 296 295 294 293 294 295 295 294 293 293 293 293 293 293 293 293 292 292 293 292 292 292 292 292 292 292 291 290 290
309 314 312 315 314 315 315 317 316 315 314 316 317 314 309 309 309 307 306 304 304 304 304 303 298 294 293 293 292 293 294 294 294 293 292 292 292 292 291 291 291 292 293 292 292 292 292 291 291 291 291 291 291 290
312 314 311 308 310 312 314 312 310 309 312 315 313 313 310 310 307 304 303 303 303 306 305 301 301 296 293 293 293 293 294 293 293 292 292 292 292 292 292 292 291 293 293 292 292 292 292 291 291 291 290 290 290 290
313 312 316 314 315 313 316 312 312 311 309 307 310 313 312 308 304 302 302 306 302 300 299 299 298 296 294 294 294 294 294 293 292 291 291 291 291 291 291 291 291 292 292 292 292 292 292 291 291 290 290 290 290 290
315 313 313 316 317 316 315 313 311 308 306 308 312 310 309 305 303 305 307 301 299 298 297 297 295 295 294 294 293 293 293 292 291 290 289 289 289 291 291 291 291 292 292 291 291 291 291 291 291 291 291 290 290 291
318 313 316 317 317 315 313 309 310 306 304 306 305 305 305 306 308 308 306 299 298 298 298 298 297 294 294 293 292 292 292 291 291 290 288 289 290 290 290 290 291 291 291 291 291 291 291 291 291 291 291 291 291 291
315 316 318 316 316 312 311 308 308 309 309 308 305 306 308 306 307 305 305 300 299 298 297 296 295 295 294 293 292 291 291 292 291 291 291 290 290 290 290 290 291 291 291 291 291 291 291 291 291 291 291 291 291 291
313 317 317 316 314 310 308 309 309 311 311 310 310 307 309 309 309 305 299 298 297 297 297 296 295 295 295 295 294 294 293 292 292 291 291 291 291 290 290 290 290 291 291 291 291 291 291 291 291 291 291 291 290 290
310 310 311 315 313 313 311 312 311 312 311 309 310 309 311 311 312 306 301 298 298 299 298 297 297 296 295 295 294 294 294 293 292 292 292 291 291 291 291 290 290 290 290 291 291 291 291 291 291 292 292 291 290 291

GFSWCAN_925_thetae_021.txt.gz
Theta_e
299 299 299 300 300 300 300 300 300 300 300 301 303 305 306 306 305 306 304 303 303 304 303 303 303 303 304 303 304 303 304 306 308 309 309 308 310 310 312 308 308 314 317 317 313 313 314 315 321 326 340 340 342 343
300 300 300 300 300 300 300 300 300 301 301 302 305 306 306 306 306 306 305 304 303 303 303 303 302 302 303 302 303 303 305 305 306 308 308 307 310 310 311 312 311 313 312 318 313 313 314 317 323 331 336 339 340 341
299 299 300 300 300 300 301 302 302 302 302 303 306 306 306 306 306 307 307 305 301 303 303 303 303 302 302 302 302 303 304 304 304 306 308 310 310 310 313 312 312 313 314 317 315 313 315 317 321 326 333 336 336 337
299 300 301 302 302 302 302 302 302 303 303 303 306 306 306 307 307 307 308 306 304 303 304 304 302 302 302 303 302 302 303 303 304 306 307 308 311 310 311 311 313 312 311 313 316 316 318 317 318 324 331 333 336 334
303 303 303 303 302 302 302 302 303 304 304 305 306 307 307 307 307 307 307 306 306 304 306 304 303 303 302 302 303 303 303 303 304 307 308 309 309 309 310 311 312 311 313 316 316 316 319 320 323 327 330 334 334 334
302 302 302 302 302 302 302 304 304 304 305 307 307 307 307 307 307 307 305 302 303 304 304 307 305 305 305 302 303 303 303 303 303 305 305 307 307 310 314 313 311 312 313 314 317 315 317 319 321 323 329 334 333 335
302 302 302 302 303 303 304 305 305 305 307 307 307 307 308 307 307 305 306 304 304 304 304 306 306 306 305 307 304 303 303 304 304 305 307 307 308 310 312 312 312 312 313 313 314 314 315 318 321 326 331 333 330 333
302 302 302 304 305 305 306 306 306 308 308 308 307 308 308 307 307 306 306 304 304 304 303 306 308 308 308 311 311 304 305 304 305 307 308 311 312 310 312 312 313 313 312 312 313 313 314 319 322 326 328 331 331 330
302 304 305 306 306 306 306 306 308 308 308 307 307 307 307 307 307 306 307 305 304 303 303 303 308 312 307 309 311 311 306 308 308 308 312 311 313 314 313 313 312 312 313 314 316 318 319 321 325 326 328 329 328 328
306 308 306 306 307 307 307 309 309 308 308 308 306 307 311 308 307 306 305 305 305 305 303 302 301 305 306 309 312 312 312 312 312 310 308 311 310 310 310 311 311 312 313 315 316 318 321 324 325 327 328 328 329 329
308 306 307 307 308 309 310 310 310 307 309 308 308 309 307 308 309 310 309 308 306 304 301 303 302 305 306 309 312 312 309 307 313 312 309 310 311 312 316 324 323 322 320 321 321 322 318 318 325 326 326 327 328 328
306 307 308 308 310 311 311 311 312 310 308 307 307 306 307 311 313 315 314 312 311 312 311 310 312 307 308 309 313 312 310 308 316 314 312 314 310 313 317 317 317 318 318 323 322 322 320 323 325 326 326 326 325 323
306 308 309 311 312 312 312 312 313 311 309 308 308 311 314 314 312 314 313 313 316 318 318 316 319 318 317 317 318 318 319 319 317 314 312 309 312 311 313 314 313 313 313 313 315 317 319 319 319 319 320 318 318 318
308 309 311 312 313 312 312 313 313 313 310 314 314 313 316 315 313 312 313 313 314 316 315 316 319 317 316 318 318 319 318 316 319 316 313 312 310 309 310 311 311 312 313 312 312 313 313 313 312 310 309 310 310 310
309 310 312 313 313 312 312 313 313 313 313 316 314 314 315 314 313 312 312 312 311 311 316 318 317 317 318 319 316 316 320 318 313 313 311 311 308 307 307 308 308 307 308 309 310 311 310 310 309 307 306 307 308 309
311 312 312 314 313 313 312 312 313 313 314 316 314 314 313 312 311 310 310 310 310 310 316 317 318 319 319 318 317 317 316 318 317 315 311 310 307 306 305 305 305 306 307 307 307 308 308 307 307 306 305 305 305 305
311 312 314 314 312 313 313 313 313 314 315 315 314 313 312 312 311 310 310 310 309 313 317 317 315 318 317 317 316 317 315 312 310 309 308 307 306 305 304 303 302 303 304 306 306 306 307 306 306 305 305 303 302 302
312 313 314 315 313 312 313 313 314 315 314 314 313 312 312 311 311 310 310 310 310 310 312 313 312 313 313 314 314 312 314 313 309 306 304 303 303 302 301 302 301 302 302 303 304 305 305 305 306 305 303 302 302 301
312 314 314 316 314 312 313 313 313 316 315 314 313 312 311 312 311 310 310 310 308 308 310 310 311 312 311 310 310 311 312 313 309 305 303 301 300 300 300 300 300 300 300 301 302 303 303 302 302 303 302 302 301 300
313 313 314 316 315 312 314 315 311 316 316 317 314 313 312 312 310 310 310 310 309 308 308 309 309 308 308 307 307 308 307 307 307 306 304 302 300 300 299 298 298 298 299 299 299 299 302 302 300 298 298 299 298 298
313 313 315 317 315 312 313 314 315 314 314 317 315 314 315 313 312 311 310 310 309 310 309 309 307 306 304 304 303 304 304 303 304 304 303 303 300 299 298 298 297 297 297 297 297 298 299 299 298 297 297 296 295 295
313 314 315 317 316 313 316 312 315 314 317 318 318 315 316 316 314 312 310 310 311 312 310 309 306 305 305 305 303 301 301 300 300 299 298 298 299 299 298 297 296 296 296 296 296 297 297 298 297 296 295 295 294 293
314 314 315 315 318 314 315 314 319 318 320 318 317 318 318 317 315 310 312 311 311 309 308 307 306 303 302 301 301 300 299 299 299 298 297 297 296 296 296 295 294 295 295 295 295 296 297 295 295 295 295 295 294 294
314 314 317 317 316 315 316 319 318 319 318 317 317 318 318 318 314 313 312 311 310 309 309 307 304 304 302 302 301 299 297 298 298 297 296 297 297 296 295 295 294 294 294 294 295 296 296 295 294 294 294 294 293 293
314 315 314 311 316 319 320 319 318 318 320 318 318 318 318 315 316 313 311 310 310 311 310 307 302 301 301 301 299 298 295 296 297 297 295 294 295 296 296 295 295 294 293 294 294 294 294 294 293 293 293 293 292 292
312 316 315 317 318 320 320 320 320 319 317 320 320 318 315 314 309 309 310 310 311 310 308 307 305 302 300 298 299 297 295 294 295 296 294 293 293 295 295 295 295 295 293 293 294 294 293 293 293 293 293 292 291 292
315 318 317 313 316 317 320 317 315 313 314 317 318 318 314 312 308 309 309 308 309 307 306 302 302 301 300 297 294 293 293 293 293 293 292 292 292 292 292 293 294 293 292 293 293 293 294 293 293 292 292 292 292 292
319 318 320 320 320 318 321 317 316 314 312 313 315 316 314 312 309 308 309 307 306 301 298 298 297 297 296 295 294 294 294 293 292 291 291 292 292 291 291 292 292 291 292 292 293 293 293 293 292 292 292 292 292 292
321 318 317 320 320 320 321 319 316 313 312 313 317 315 313 311 308 307 307 304 300 299 299 298 296 295 294 293 293 293 293 293 294 294 293 293 292 292 291 291 291 292 292 292 291 291 292 292 292 292 292 292 292 292
322 318 320 320 321 320 319 317 318 313 310 313 312 310 310 310 309 307 306 302 299 300 300 298 297 296 297 296 296 294 293 292 292 292 293 293 292 291 291 291 291 291 291 292 292 291 291 292 292 292 292 292 292 292
319 320 321 321 322 319 316 312 311 311 311 312 310 311 313 312 308 306 306 305 299 298 298 298 297 296 296 296 296 295 295 293 292 292 291 291 291 291 291 291 291 292 292 292 292 292 292 292 292 292 292 292 292 292
320 323 323 322 320 315 312 314 314 314 314 313 313 312 312 313 314 311 300 299 297 298 298 298 298 298 296 295 295 294 293 293 293 292 292 291 291 291 291 291 291 291 292 292 292 292 292 292 292 292 292 292 291 291
315 315 316 318 319 317 315 316 316 317 315 315 314 313 313 314 315 309 301 297 298 300 299 298 297 296 295 295 294 294 293 293 292 292 292 291 291 291 291 291 291 291 291 292 292 292 292 292 292 292 292 292 291 291

GFSWCAN_925_thetae_024.txt.gz
Theta_e
299 300 300 300 300 300 300 301 301 302 302 302 305 307 306 306 307 307 306 305 303 304 305 306 305 306 305 305 307 305 306 307 308 310 309 307 309 310 311 309 310 312 313 313 314 316 317 316 318 325 334 337 336 338
299 299 299 300 302 303 303 302 303 302 303 303 307 306 306 307 307 307 308 306 304 304 305 305 305 305 305 304 305 305 305 306 307 310 311 312 310 311 311 312 311 311 311 314 314 315 315 316 318 320 322 325 333 332
300 302 303 303 303 302 302 302 303 303 303 305 307 306 307 307 307 307 308 306 302 304 304 305 308 306 305 305 305 305 305 304 306 306 307 310 312 311 314 312 312 312 312 313 313 313 315 316 316 318 320 323 325 329
303 303 302 302 302 302 302 303 303 304 305 306 307 307 307 307 308 308 309 307 304 305 307 308 305 306 306 305 305 305 305 305 305 307 309 309 311 310 313 312 312 312 313 314 316 315 314 314 316 318 319 323 327 328
303 302 302 302 302 302 303 303 304 305 306 307 307 307 307 307 308 308 308 308 306 305 308 308 306 307 306 306 305 305 305 305 305 307 308 309 309 309 311 311 312 312 313 315 315 314 315 316 317 319 322 323 326 329
302 302 302 302 303 304 305 305 305 307 307 308 307 307 307 307 307 309 309 306 305 304 306 308 307 308 307 306 306 306 306 306 306 306 306 306 306 310 315 314 313 312 313 314 315 316 316 317 317 317 320 321 323 328
302 302 303 304 306 306 306 306 306 307 307 307 307 307 308 307 308 309 308 306 304 304 305 307 309 308 307 307 307 306 305 306 305 306 307 307 308 310 312 313 312 312 313 314 314 314 316 316 318 317 320 323 325 331
302 303 307 307 306 307 307 308 309 308 308 307 307 308 308 307 307 307 306 305 304 303 303 307 309 309 308 311 312 306 306 305 304 305 306 308 309 309 312 311 312 312 313 314 313 312 313 314 316 317 321 327 330 333
305 307 306 306 307 308 309 309 309 308 307 307 307 307 309 310 309 308 307 304 304 303 304 303 308 312 307 308 310 307 304 307 305 307 308 310 310 310 310 310 310 311 313 312 312 312 313 317 318 319 322 325 322 330
308 307 307 308 309 310 310 310 309 309 308 307 309 312 317 311 307 306 305 306 305 305 303 303 302 305 305 308 311 311 311 309 312 309 305 306 308 306 308 315 321 312 310 312 314 314 316 320 322 322 323 321 324 328
308 307 308 309 311 311 311 311 311 311 311 313 315 316 311 309 308 312 314 310 308 309 304 304 304 307 306 310 312 310 311 308 314 314 310 310 311 310 312 315 316 318 314 313 314 316 319 322 323 323 325 328 329 327
308 308 309 312 312 312 312 312 313 313 312 310 310 307 311 315 316 316 315 314 315 319 318 315 316 308 310 308 313 313 314 314 320 318 314 313 308 310 311 313 313 315 319 320 318 318 321 320 320 322 321 320 321 320
309 309 311 312 313 312 312 313 312 312 310 312 314 315 316 315 314 314 314 316 316 318 318 318 320 320 319 317 321 321 320 321 319 318 313 308 310 310 309 310 312 312 312 314 315 314 312 312 311 313 314 315 316 317
310 310 312 313 313 312 312 312 313 313 315 317 316 316 317 317 315 314 315 316 315 316 317 320 321 320 319 320 319 321 320 316 317 317 313 312 312 311 309 309 311 311 311 311 312 312 311 310 310 310 311 314 315 314
310 311 312 313 313 313 312 312 312 316 314 316 316 318 316 314 314 314 314 314 315 315 319 321 320 319 320 320 319 318 320 318 314 314 314 313 311 310 310 309 311 311 311 310 310 310 310 309 308 307 306 306 308 311
310 313 313 314 312 312 313 313 315 314 315 314 314 315 314 314 314 314 314 315 315 318 320 319 320 320 321 319 317 317 317 315 313 312 312 309 309 309 309 310 310 310 311 310 310 309 310 311 309 307 306 306 305 307
311 314 314 315 311 311 313 316 315 315 315 314 314 313 314 314 314 314 313 313 313 316 318 318 317 317 316 316 316 313 313 311 310 308 306 307 308 309 309 309 308 309 309 310 310 309 308 307 308 308 309 307 306 305
313 313 314 316 313 314 316 315 315 315 315 315 315 315 314 313 312 312 312 311 313 314 315 314 313 313 315 315 314 315 315 315 308 305 304 306 306 306 306 307 306 306 306 307 308 308 308 308 308 308 306 305 304 304
312 313 314 316 313 316 317 317 316 317 316 315 315 315 315 313 311 311 312 310 310 311 312 311 311 312 311 310 310 309 309 311 311 307 305 304 305 305 304 303 303 303 303 304 304 307 306 305 305 305 305 304 303 303
313 313 314 316 314 317 318 318 316 317 318 318 316 316 316 315 311 311 311 311 310 311 310 310 309 309 309 308 308 307 306 307 307 308 308 307 304 303 303 302 302 301 301 300 301 301 304 304 303 302 301 301 301 300
314 315 315 317 319 317 318 319 319 319 318 319 319 318 317 315 313 311 311 310 310 310 309 309 308 308 308 308 307 305 305 305 305 305 304 304 302 302 301 300 300 300 300 300 300 301 301 302 301 301 300 299 299 298
316 314 318 320 320 319 321 319 321 320 321 320 320 318 317 316 315 311 311 310 310 310 310 309 309 308 307 308 306 305 304 304 303 302 301 301 302 301 300 299 299 299 299 299 299 300 300 300 300 299 299 298 297 296
315 316 320 320 322 319 321 320 323 322 323 321 319 319 318 317 317 313 310 310 310 310 309 308 308 308 306 305 305 304 303 302 302 301 300 300 300 299 299 298 297 297 298 298 298 299 299 298 297 298 298 298 297 297
315 320 322 322 320 319 321 322 322 323 322 321 320 319 319 319 317 313 310 309 309 309 309 308 305 305 305 305 303 302 301 300 300 300 299 298 299 299 298 298 297 297 297 297 297 297 297 297 296 296 296 296 296 295
320 319 320 316 322 322 320 320 320 319 318 321 320 319 320 318 317 312 309 308 309 308 308 307 305 304 303 303 302 301 300 299 299 299 298 297 297 298 298 298 297 297 296 296 297 296 296 296 296 296 296 295 295 295
319 320 322 321 322 322 320 319 318 317 315 320 320 320 319 318 312 310 309 309 309 308 308 307 306 305 304 301 301 300 299 298 298 298 297 296 296 296 297 298 297 297 295 296 296 296 296 295 295 295 295 294 292 294
321 321 322 320 322 322 323 321 319 317 314 316 318 320 317 314 311 311 311 310 310 308 307 304 304 304 303 301 299 298 298 297 296 296 295 295 295 295 295 295 295 294 294 295 295 295 296 295 295 295 295 295 294 294
322 322 322 324 324 322 322 322 320 317 315 314 315 317 315 313 314 312 311 310 309 306 304 302 302 302 301 299 298 298 297 297 297 296 295 295 294 294 293 294 294 292 293 293 294 295 294 294 294 294 294 294 294 294
325 323 321 324 323 323 323 322 320 317 316 315 317 317 315 314 313 311 310 309 306 305 303 302 301 300 299 298 297 297 297 296 296 297 296 296 296 294 294 294 294 294 294 294 292 292 292 293 293 293 294 294 294 294
325 323 324 323 323 322 321 321 321 319 316 316 316 315 315 314 313 310 309 305 307 305 303 304 301 301 301 300 300 298 297 296 295 295 296 296 295 294 294 294 294 294 294 294 294 293 292 293 293 293 294 293 294 294
324 324 325 324 322 322 321 319 317 317 316 316 315 316 316 316 313 310 310 308 307 303 302 302 302 301 301 300 299 298 298 296 295 295 294 294 294 294 294 294 294 294 294 294 293 293 293 293 293 293 293 293 293 293
324 325 324 322 319 321 318 320 319 319 319 318 318 316 316 317 318 313 304 305 305 304 301 302 303 301 299 298 297 297 294 296 296 295 295 294 294 294 294 293 293 293 293 293 293 293 293 293 293 294 294 294 293 293
321 320 321 320 320 321 320 319 321 321 320 319 319 318 318 317 318 311 303 301 303 304 303 302 300 299 298 297 296 296 295 296 295 293 293 292 292 292 292 293 293 293 293 293 293 293 293 293 293 294 293 293 293 292

GFSWCAN_925_thetae_027.txt.gz
Theta_e
299 299 300 301 303 304 303 302 302 302 303 305 308 306 307 306 307 307 308 307 305 305 305 307 308 308 309 307 309 308 309 309 308 311 312 311 309 313 314 312 315 315 316 318 319 321 324 322 323 330 332 331 334 337
299 300 303 304 303 302 302 302 302 303 305 306 307 306 307 307 307 307 308 307 306 305 306 307 307 307 307 307 307 308 308 308 309 311 314 314 311 311 312 313 312 315 316 316 317 319 320 320 321 321 322 324 327 330
301 303 303 303 302 302 302 302 303 305 305 306 306 307 307 308 308 308 309 307 304 304 305 306 310 309 308 307 307 307 308 307 307 307 309 310 312 312 315 312 312 315 315 314 315 316 316 317 318 318 319 320 322 323
304 303 302 302 302 302 303 305 306 306 306 307 306 307 308 308 308 308 309 308 304 305 307 310 308 308 307 308 307 306 307 306 306 308 310 312 312 311 313 313 314 314 314 314 314 315 316 316 317 317 318 318 320 324
303 302 302 302 302 304 306 306 306 307 306 307 307 308 308 308 308 309 310 308 307 307 310 309 308 309 308 308 308 307 306 307 307 308 310 311 310 310 311 312 312 312 313 315 316 316 316 317 317 317 317 319 322 324
302 302 302 302 306 305 306 306 306 307 307 307 308 308 307 307 307 311 313 308 307 305 307 310 308 309 309 308 307 308 308 308 308 309 308 308 307 310 314 316 313 313 313 314 315 314 315 316 316 317 317 319 320 321
302 302 302 306 305 306 307 308 309 307 307 308 308 308 309 308 311 311 311 308 304 305 306 308 310 310 309 308 309 309 308 308 308 306 306 307 308 308 310 314 312 312 313 314 313 314 317 316 318 318 317 317 318 319
302 303 306 306 307 308 310 310 309 307 308 308 307 308 308 309 310 311 308 306 304 304 304 307 309 310 307 309 311 306 306 305 304 303 304 306 306 307 310 310 312 311 311 313 315 314 315 316 316 317 317 319 320 324
303 307 307 307 308 311 311 310 308 309 308 308 308 308 311 311 312 309 306 305 304 305 305 305 308 311 306 308 310 307 304 307 304 305 305 305 308 310 309 305 305 307 309 309 314 314 315 316 316 316 317 319 319 322
308 308 308 309 311 312 311 311 311 310 309 309 309 314 317 314 308 306 305 308 306 306 304 306 304 307 306 309 311 312 308 311 313 310 305 306 307 305 307 313 319 315 309 308 312 313 312 314 316 317 318 319 320 327
309 309 309 311 312 312 312 312 313 311 312 314 318 319 314 310 309 314 320 319 317 319 311 311 308 311 307 311 313 311 313 310 316 318 316 311 311 309 310 314 316 317 313 311 311 312 313 315 318 320 322 324 324 324
310 310 310 312 313 312 312 312 313 316 316 314 314 314 317 316 318 320 319 319 321 326 321 322 322 314 314 309 314 318 321 319 321 316 315 314 310 311 311 313 313 313 314 315 316 316 318 320 322 322 321 322 319 317
310 310 311 312 313 313 311 314 313 313 313 317 316 316 318 318 322 318 317 318 317 318 319 320 324 321 322 318 324 322 317 319 315 317 313 313 314 312 312 313 313 313 312 313 312 312 311 313 314 315 316 316 315 314
311 310 311 313 313 312 312 314 315 316 315 317 317 322 319 320 318 319 320 318 319 319 320 321 325 322 321 322 321 322 319 316 318 317 315 316 314 314 314 314 315 314 313 314 312 311 310 310 310 310 312 312 313 311
311 310 312 313 313 312 313 315 315 317 316 317 317 324 317 315 316 316 317 318 318 319 321 322 321 320 319 319 318 318 320 320 316 315 314 311 314 314 313 313 314 314 315 314 315 313 311 309 309 308 309 309 311 312
312 314 316 314 313 311 314 317 317 316 315 316 316 316 315 315 314 314 315 316 317 319 323 320 320 320 318 317 316 317 318 316 314 312 310 312 313 313 313 311 312 311 312 311 311 311 312 311 311 310 309 309 308 307
314 318 315 315 313 314 316 318 317 317 317 316 316 316 315 314 314 314 314 315 315 318 319 318 318 318 315 315 317 314 315 312 313 309 309 311 312 312 310 310 309 308 309 309 309 310 310 310 309 309 311 308 307 306
317 317 313 315 313 318 318 317 317 317 318 317 318 317 316 313 313 314 314 314 315 316 317 316 315 314 314 315 313 311 312 315 312 309 309 310 311 308 307 308 307 306 306 306 307 308 308 308 308 308 308 307 306 306
314 313 313 315 314 318 319 319 319 318 318 317 317 317 316 314 313 312 313 312 313 313 314 313 312 311 311 310 309 310 309 308 309 310 310 309 307 306 306 304 304 304 304 304 304 306 307 306 306 306 306 306 305 304
314 313 313 316 316 321 321 321 320 320 319 319 318 318 318 316 313 313 313 313 312 312 312 312 311 311 311 310 309 308 308 307 307 308 308 307 305 305 304 303 303 303 303 303 303 302 305 305 304 303 303 302 302 302
318 319 316 320 322 321 321 320 321 320 320 320 319 318 317 316 315 313 313 313 313 312 312 311 311 311 309 309 308 306 306 305 307 306 305 304 303 303 303 302 301 302 302 302 303 304 303 303 303 302 302 301 300 300
320 316 321 322 323 321 323 320 321 321 321 320 319 318 318 318 316 314 313 313 312 312 311 310 310 310 309 310 307 306 305 304 304 304 302 302 304 304 303 302 301 301 301 301 302 302 302 301 300 301 300 301 300 298
318 320 323 322 324 321 323 322 322 320 321 320 319 319 318 317 317 315 313 312 312 311 311 310 308 308 308 307 306 306 304 303 303 303 303 302 302 303 302 301 300 300 301 300 301 301 300 298 299 299 299 299 299 299
319 323 325 323 322 320 321 322 321 321 321 320 319 319 318 318 317 315 312 311 312 311 311 310 308 307 307 308 307 305 304 302 302 302 302 301 301 301 301 301 300 300 299 300 299 299 299 299 298 299 298 298 298 298
323 322 323 319 323 322 319 319 319 319 318 319 320 319 319 318 318 314 314 312 311 311 310 309 308 307 306 306 304 304 303 301 301 302 301 299 299 300 300 300 300 299 299 299 299 299 299 298 298 298 298 297 296 298
318 322 326 320 321 322 320 321 319 319 318 318 319 319 319 320 317 314 314 313 313 312 311 310 309 308 307 305 304 303 301 300 300 300 299 298 298 298 299 300 300 299 297 297 298 298 298 298 298 297 298 297 295 297
320 321 322 321 321 321 322 321 320 320 318 317 317 318 318 318 316 315 314 313 313 311 309 308 307 307 307 305 303 301 300 299 299 298 298 297 297 297 297 297 298 296 296 297 297 297 297 297 297 297 297 297 297 296
323 323 322 323 322 322 322 321 320 320 318 317 318 317 319 316 317 316 315 313 312 309 308 306 305 305 304 303 302 301 300 299 299 299 299 298 298 297 296 296 296 294 295 295 295 295 296 296 296 296 296 296 296 296
325 324 321 322 323 322 322 321 320 319 319 317 317 317 318 317 317 315 314 312 310 312 309 307 306 305 303 303 302 300 299 299 299 300 299 300 299 297 296 296 296 296 296 295 294 294 293 294 294 295 295 296 295 296
325 322 322 323 322 320 320 321 319 319 319 319 318 318 318 318 317 314 312 311 314 312 309 308 307 304 304 304 302 301 300 299 298 298 299 299 297 297 296 296 296 296 296 296 296 295 294 294 295 295 295 295 295 295
322 322 323 322 321 320 320 318 318 319 320 319 318 318 317 319 316 314 313 312 313 311 309 307 305 305 303 302 300 300 300 299 298 297 296 297 297 296 296 295 295 295 295 295 295 295 295 295 295 295 295 295 295 295
323 323 322 321 320 320 320 320 319 319 319 319 319 319 319 320 320 316 310 311 310 309 305 305 305 304 302 300 299 299 297 298 298 298 297 296 296 295 295 295 295 295 295 295 295 295 295 295 295 295 295 295 295 294
320 320 320 320 321 320 319 318 319 320 319 319 320 320 319 319 319 313 308 307 307 307 305 304 302 301 300 299 298 298 297 298 296 295 294 293 293 293 293 295 295 295 295 295 295 295 295 295 295 295 295 295 295 294

GFSWCAN_925_thetae_030.txt.gz
Theta_e
302 301 301 302 304 303 302 302 302 302 305 307 306 306 307 307 307 307 308 308 305 306 305 307 308 309 310 310 311 310 310 311 313 315 316 318 316 315 315 316 317 316 317 319 320 325 329 324 327 335 337 331 331 334
302 302 303 304 303 302 302 302 303 306 306 306 306 306 307 307 308 308 309 309 308 306 307 307 307 307 308 309 310 309 309 309 309 311 314 313 313 312 315 316 316 317 318 318 319 322 328 322 323 322 323 325 325 327
303 304 303 302 302 302 302 304 306 305 306 306 306 306 307 307 308 308 309 308 306 305 306 306 309 310 310 309 308 308 309 308 309 309 309 310 313 312 316 314 315 315 316 317 318 319 320 319 319 319 320 320 322 321
304 303 302 302 302 302 305 306 306 306 307 307 307 307 308 308 308 308 310 308 305 306 307 309 309 310 309 308 308 308 308 308 308 308 309 312 312 311 313 312 313 313 314 316 317 317 317 317 317 318 318 318 319 320
303 302 302 302 302 305 306 307 307 307 307 307 307 308 308 308 308 309 311 309 307 307 310 310 309 310 309 309 309 309 308 308 308 309 309 310 310 311 311 312 312 312 312 313 315 317 320 321 318 317 317 318 318 319
302 302 302 302 306 306 306 307 308 308 307 308 308 308 308 308 310 313 314 309 307 306 307 310 308 310 309 309 309 309 309 310 311 310 310 309 308 309 312 315 313 313 313 313 315 314 316 317 316 317 318 319 318 319
301 302 303 307 308 307 309 309 309 308 308 308 308 308 310 311 311 312 312 309 306 305 306 308 308 310 308 308 309 309 309 308 307 306 305 307 308 308 309 311 310 310 311 313 312 313 315 316 317 317 317 319 320 319
303 305 308 308 309 310 310 310 308 308 309 308 308 309 310 310 311 312 308 306 305 305 305 308 309 309 307 310 311 306 306 305 304 304 303 306 307 306 309 308 308 308 308 308 309 310 312 314 316 317 318 318 319 319
306 308 309 309 311 311 311 310 310 309 309 308 309 311 313 312 313 311 306 305 305 307 309 308 310 316 308 309 310 308 305 309 305 305 304 303 306 309 305 303 314 314 312 312 308 309 311 313 316 317 317 317 318 318
309 310 309 310 311 312 312 311 312 311 309 309 311 316 319 315 310 307 307 310 309 308 307 312 308 317 309 311 312 312 308 312 313 313 304 305 306 310 313 313 313 315 313 312 311 313 313 316 316 317 317 317 317 317
310 310 309 310 312 313 312 312 313 313 310 314 320 320 315 310 313 315 323 321 321 325 319 319 315 320 311 316 316 313 315 313 320 318 316 312 311 313 313 313 313 314 313 313 314 314 314 315 315 317 317 318 318 321
311 310 309 311 313 313 312 314 313 315 316 314 316 318 317 319 319 321 322 320 321 324 320 321 322 321 320 313 315 318 323 321 318 314 315 314 313 314 312 313 313 312 312 312 311 315 315 315 318 318 318 317 317 316
312 311 309 311 313 314 312 315 315 315 313 320 318 319 320 320 322 321 320 323 322 320 321 321 327 325 325 320 325 324 317 315 315 317 313 313 315 315 313 313 313 313 311 311 311 310 310 311 311 313 315 314 313 312
312 311 310 311 314 314 312 315 315 315 315 320 319 318 319 319 318 318 319 320 320 320 321 322 323 322 320 321 319 321 317 315 316 317 317 315 316 315 314 312 313 313 313 313 311 310 310 309 309 308 311 311 310 309
312 312 312 315 314 314 314 314 316 317 319 319 319 321 318 316 315 315 316 316 317 319 321 324 321 321 319 318 317 317 318 317 316 316 314 315 316 315 314 311 311 312 312 313 313 312 311 310 310 308 308 306 309 310
313 317 318 316 315 313 317 317 319 319 317 317 317 317 316 315 315 315 315 315 316 318 320 319 318 320 318 317 317 317 318 318 315 314 311 312 315 314 313 312 310 309 309 311 312 311 310 310 309 309 307 306 306 306
315 320 318 314 314 314 318 319 319 318 318 318 318 317 316 315 315 315 315 315 315 317 318 318 317 317 316 315 315 316 315 316 314 314 311 313 314 311 311 309 308 308 308 307 310 309 311 309 308 308 309 307 307 306
319 318 313 313 315 320 321 319 319 319 319 319 319 318 317 315 315 315 314 314 315 316 316 316 313 313 314 314 313 311 311 311 312 312 312 312 313 309 307 307 306 306 306 306 306 308 308 308 309 309 308 307 306 304
314 313 313 314 316 318 321 320 321 321 319 318 319 319 318 317 315 315 315 314 314 314 314 313 313 313 312 311 311 310 310 309 308 310 312 311 310 308 306 305 304 304 304 305 305 306 306 306 305 304 305 304 304 302
315 315 315 315 318 325 322 321 321 322 320 319 320 319 318 318 316 315 315 314 314 314 313 313 313 312 311 311 311 309 309 308 308 308 308 306 305 305 305 304 303 304 303 304 304 304 305 304 304 303 302 302 302 301
320 322 317 321 326 323 321 320 323 320 320 320 320 319 319 319 317 316 315 314 314 313 313 312 311 311 311 310 309 308 308 306 308 308 307 306 304 305 305 304 303 303 303 303 305 304 303 303 303 303 302 302 301 300
323 319 322 324 324 322 323 319 320 321 322 322 319 319 320 318 318 317 315 314 315 314 313 313 311 311 311 311 309 308 307 306 305 305 302 304 304 305 305 303 303 302 303 302 303 303 302 301 299 301 301 301 301 299
321 322 325 324 324 322 321 321 323 321 321 321 320 319 318 318 318 317 317 314 314 313 313 312 311 310 310 309 308 309 307 305 304 304 304 304 303 303 303 303 303 302 302 302 301 301 301 300 300 300 300 300 300 300
322 325 326 324 321 320 321 323 321 320 320 321 320 320 320 321 319 319 316 314 314 313 313 312 311 310 309 310 308 307 306 304 303 303 303 303 302 302 302 302 302 302 301 301 301 301 300 300 300 300 299 298 299 300
323 321 322 317 323 322 320 319 319 319 320 319 319 320 320 319 320 319 316 315 315 315 315 312 310 311 310 308 307 305 304 303 302 303 302 301 300 301 301 301 302 301 300 299 300 300 300 300 299 299 299 298 298 299
317 322 321 321 322 321 320 320 321 320 320 318 318 321 321 321 320 318 316 316 316 315 314 312 311 310 310 309 308 305 303 302 301 301 300 300 300 300 300 301 301 300 298 299 299 299 300 299 299 299 299 298 297 298
318 323 323 321 320 321 322 322 322 323 323 321 319 319 321 321 320 319 317 316 316 313 313 312 310 309 309 308 306 303 302 302 301 301 300 299 299 299 298 298 299 297 296 298 298 298 298 298 298 298 298 298 298 298
324 323 323 323 325 323 324 325 323 324 323 321 320 320 321 321 320 319 317 315 313 313 313 310 309 308 307 306 304 303 302 301 301 301 300 300 300 299 298 298 298 296 297 296 295 296 296 297 297 297 297 298 298 297
325 323 325 327 324 324 324 325 324 322 321 320 319 318 317 320 318 317 315 314 313 314 313 311 310 307 306 306 305 304 303 301 301 301 301 301 300 299 298 298 298 297 297 297 295 295 294 295 295 296 296 297 297 297
327 324 327 322 322 323 324 322 323 320 319 318 318 318 320 320 316 314 313 313 314 314 311 310 308 307 307 305 303 302 301 301 300 300 300 300 299 298 297 297 297 297 297 297 297 297 296 295 297 297 296 296 296 296
323 324 322 323 323 321 322 321 319 319 320 320 319 319 320 320 318 316 315 314 313 312 311 309 308 307 305 303 302 301 301 300 300 299 298 298 298 298 297 297 297 297 297 296 297 297 296 296 296 296 297 296 296 296
324 324 324 323 321 320 321 322 320 319 319 319 319 318 321 320 321 318 313 311 310 309 307 307 305 304 302 301 300 300 299 300 299 299 297 297 296 296 295 296 297 297 297 296 297 297 296 296 296 296 296 296 296 296
323 321 321 321 321 322 320 320 320 320 321 321 322 321 319 319 319 315 310 308 307 306 305 304 303 302 301 300 300 300 299 297 295 295 295 295 294 293 294 295 295 295 296 296 296 296 296 296 296 296 296 296 296 295

GFSWCAN_925_thetae_033.txt.gz
Theta_e
302 302 303 304 303 303 302 302 303 306 305 306 306 307 307 307 307 307 308 308 306 305 305 306 306 309 309 309 311 311 310 311 312 313 314 315 317 315 315 316 314 317 319 319 321 327 333 321 322 332 330 323 324 325
302 303 304 303 302 302 302 303 306 306 305 306 307 307 307 307 307 308 309 309 309 306 307 306 306 306 307 307 309 310 310 310 310 311 312 311 311 314 313 320 314 319 317 320 320 325 319 320 320 320 320 322 320 321
303 304 303 302 302 302 303 306 306 306 306 306 307 307 308 308 308 309 309 309 307 306 306 306 309 309 310 309 309 310 309 309 309 309 309 310 313 311 313 315 313 312 313 314 317 317 316 317 319 318 319 318 317 317
304 303 302 302 302 303 306 307 307 307 307 307 307 307 308 308 309 309 309 309 306 305 307 309 309 309 310 309 309 309 309 308 308 308 308 311 312 311 312 311 312 311 311 313 313 317 317 316 318 318 317 318 319 318
303 302 302 302 304 306 306 306 307 308 307 307 307 308 308 308 308 310 311 309 307 308 310 309 307 309 308 309 309 309 309 310 309 309 309 309 308 309 309 310 312 311 311 312 313 311 315 314 315 315 317 318 319 320
302 302 303 305 307 307 309 310 309 308 307 308 308 308 309 310 311 312 312 308 307 307 308 310 307 309 308 308 308 309 309 309 309 309 310 309 309 310 311 311 310 309 308 308 309 309 310 311 311 314 317 317 318 319
302 303 307 308 308 310 311 311 310 308 308 308 309 310 311 311 310 311 312 310 307 305 307 308 312 310 308 309 309 308 307 306 306 305 304 305 306 308 308 310 309 308 308 307 307 307 309 309 311 314 316 316 318 319
304 308 309 309 309 311 312 311 310 308 308 309 309 310 310 311 311 312 307 306 306 306 306 313 314 313 308 311 311 307 307 305 304 304 304 305 305 304 307 307 309 312 313 315 313 309 308 308 309 311 313 315 318 318
307 309 310 309 311 312 312 311 312 311 309 309 310 311 313 313 314 312 306 305 306 308 311 312 316 319 309 311 310 307 306 310 305 307 305 303 304 308 308 309 310 311 314 313 311 312 310 309 309 311 314 315 316 316
309 310 310 309 311 313 313 312 312 312 310 309 311 315 319 315 310 308 308 309 309 309 309 314 313 317 312 312 313 312 309 313 314 313 303 306 305 311 311 310 310 310 312 313 315 310 309 310 310 312 314 316 317 317
310 311 310 309 311 313 313 312 313 313 312 312 319 322 314 310 313 314 323 322 322 323 317 316 314 322 313 316 316 314 316 314 316 316 316 312 310 313 311 312 310 309 309 310 312 313 313 315 316 316 316 317 318 318
311 311 311 309 310 313 314 312 314 315 319 313 314 318 315 317 321 322 324 322 323 325 323 322 322 319 317 313 315 316 320 317 319 314 312 312 313 313 312 312 311 310 308 308 309 310 310 310 313 317 316 317 315 312
311 312 312 309 311 314 314 313 313 315 314 317 321 322 321 322 320 322 314 320 324 322 321 321 325 325 322 318 321 323 319 317 316 316 313 313 313 313 311 311 312 311 309 308 307 307 308 308 308 310 311 311 310 309
312 313 312 311 315 315 314 313 314 314 316 324 324 316 321 323 321 319 318 318 318 318 319 324 327 324 324 323 320 321 317 315 315 313 315 314 313 312 311 309 309 310 312 310 309 307 306 306 307 307 306 308 308 308
312 314 316 318 316 314 314 316 315 315 320 323 321 317 321 317 316 316 316 317 317 317 319 322 322 320 320 319 318 316 315 316 317 316 314 313 313 311 311 310 309 308 308 312 309 308 307 306 306 306 306 305 305 305
312 317 319 318 313 314 315 317 318 319 320 322 319 319 317 316 316 316 316 316 316 317 319 320 319 319 316 317 316 315 314 314 315 315 314 313 313 312 311 309 309 309 308 307 311 310 308 307 306 306 305 304 304 304
313 321 318 313 312 315 318 320 322 320 321 322 321 319 318 317 317 316 316 316 317 317 317 319 316 316 318 315 314 315 316 316 314 314 313 313 313 312 311 309 309 309 308 307 308 309 308 308 307 306 306 306 306 304
316 318 313 313 314 318 324 321 321 321 320 320 322 322 320 318 318 317 317 317 317 317 316 315 315 313 313 312 314 314 313 311 309 310 313 314 313 312 307 309 307 307 308 306 307 306 306 306 307 308 305 304 302 303
313 313 314 314 315 317 325 321 323 325 322 322 322 321 321 320 320 319 318 318 319 317 318 317 315 314 314 314 313 311 311 309 308 309 314 311 309 308 308 305 304 305 308 305 306 307 305 304 303 303 302 301 300 300
315 318 319 317 317 325 327 325 322 327 322 324 323 324 322 322 320 319 318 317 317 316 316 314 314 314 313 313 313 311 310 309 308 309 309 307 304 304 309 305 304 304 304 305 303 304 303 303 303 302 301 300 300 299
320 323 318 319 327 323 326 324 324 324 324 324 324 324 323 323 319 319 318 319 317 316 315 315 313 314 314 312 310 309 310 308 308 308 308 306 305 304 306 304 303 303 303 303 304 302 301 301 300 301 302 300 299 300
323 320 321 326 325 324 325 322 323 326 326 324 324 324 324 324 322 321 319 319 318 318 317 315 315 314 316 314 311 309 308 307 307 307 304 305 305 304 304 304 303 303 303 302 303 301 301 300 300 301 300 300 299 299
322 322 326 327 324 318 319 322 326 325 324 324 325 322 322 323 322 322 321 319 319 318 315 315 313 311 312 311 312 310 308 307 307 305 305 304 303 302 302 302 303 302 302 302 302 301 300 300 300 300 299 299 299 300
324 325 328 327 323 320 324 327 327 325 324 324 324 322 322 324 323 322 321 317 317 316 317 317 313 314 314 314 313 309 306 304 303 303 302 302 301 301 302 303 302 301 300 300 300 301 301 300 300 299 298 298 300 300
320 320 321 312 323 325 322 324 322 320 321 321 322 324 325 324 318 321 321 318 318 317 317 314 313 313 312 312 309 306 303 302 302 303 301 300 300 300 300 302 300 299 299 299 300 300 300 300 300 299 298 298 299 300
314 323 320 323 323 323 321 324 326 322 322 321 321 323 325 320 319 322 321 319 319 318 316 315 314 312 311 310 308 305 304 302 302 302 301 300 300 299 299 300 299 298 297 298 299 299 299 299 299 299 299 299 298 298
316 324 327 326 324 324 324 323 322 324 325 323 322 322 323 322 321 315 317 317 317 315 314 312 310 310 310 308 306 304 302 302 302 301 301 300 299 299 299 299 298 297 297 297 297 297 298 298 298 298 298 298 298 297
327 326 326 327 326 325 325 325 323 325 325 323 322 320 320 322 320 317 319 315 314 314 312 311 310 309 309 306 306 305 303 302 301 301 301 301 300 299 298 298 298 297 296 296 296 296 295 297 296 297 297 298 298 297
326 329 323 324 324 325 326 325 325 325 324 323 322 320 322 319 317 319 314 314 315 313 312 312 310 309 308 307 306 304 303 302 301 302 301 301 300 299 298 298 297 298 298 297 296 295 295 296 296 296 297 297 298 298
325 324 325 326 327 327 325 323 324 323 322 321 321 321 319 319 317 314 315 315 314 313 312 311 309 308 306 303 303 302 301 301 300 300 300 300 299 298 298 297 297 297 297 297 297 297 296 296 297 297 297 296 296 296
326 327 327 326 326 325 322 322 322 322 320 319 321 321 322 320 318 317 314 312 311 311 310 307 305 304 303 302 301 300 301 300 299 298 298 298 297 297 297 297 297 297 297 297 297 297 297 297 297 297 297 297 296 296
324 324 326 326 322 321 324 322 321 321 321 322 320 322 321 322 320 317 310 309 308 307 305 304 303 302 301 301 301 300 299 298 297 296 296 295 295 294 295 296 296 297 297 297 297 297 297 297 297 297 296 296 296 296
326 325 325 323 324 325 323 321 321 321 323 324 323 322 320 320 316 313 310 308 306 305 304 303 302 302 301 301 299 298 296 295 295 295 294 294 293 294 294 294 294 295 296 296 296 296 296 296 296 296 296 296 296 295

GFSWCAN_925_thetae_036.txt.gz
Theta_e
303 303 304 304 303 302 302 303 305 305 305 306 306 306 307 307 307 307 308 308 306 305 305 306 307 308 308 308 310 309 310 306 307 311 312 312 315 314 316 316 317 320 321 320 324 328 332 321 321 321 319 319 318 322
303 304 304 303 302 302 303 306 306 306 306 306 306 307 307 308 308 308 308 309 308 306 307 306 307 307 307 307 308 308 307 305 309 307 309 310 312 313 312 318 314 317 316 319 319 323 318 321 320 317 317 317 320 318
304 304 302 302 302 303 306 306 306 306 306 306 306 307 308 308 309 309 309 309 307 306 306 306 309 309 309 309 309 310 308 307 304 303 306 309 312 310 313 313 311 312 311 315 314 316 313 319 317 315 314 316 319 318
303 302 302 302 304 307 307 307 307 307 306 306 307 308 308 308 308 309 309 309 307 305 308 308 308 308 309 309 309 309 308 307 305 303 303 306 307 306 309 309 309 309 309 310 311 310 312 315 313 312 312 314 317 318
302 302 303 306 308 307 308 308 308 307 307 307 308 308 308 308 308 310 310 309 307 307 309 308 306 308 308 308 308 308 307 306 306 306 309 309 307 307 304 305 308 309 310 311 310 308 307 308 310 310 311 312 317 317
303 304 307 309 308 309 310 310 308 308 308 308 309 309 310 310 311 310 310 308 307 307 306 309 306 307 308 308 307 306 307 305 309 308 308 307 307 306 307 306 306 308 308 308 310 309 308 307 308 308 309 312 316 316
304 306 309 309 309 310 311 311 309 307 309 309 310 311 310 310 309 310 309 310 307 305 304 308 310 307 308 308 305 304 305 305 305 304 305 305 305 306 308 310 308 309 310 312 312 311 311 310 309 309 310 313 314 315
305 309 310 309 309 311 312 312 311 311 309 310 310 310 311 311 311 311 306 306 305 305 304 310 312 310 308 309 309 305 305 304 304 305 304 305 305 303 307 308 309 309 310 312 313 312 311 310 310 309 308 310 314 317
306 310 310 309 309 311 313 312 312 312 310 310 310 311 312 312 312 311 307 306 306 307 310 311 313 317 307 307 305 306 304 310 305 307 305 303 304 309 311 309 309 309 309 311 312 312 309 311 311 309 308 309 311 313
310 311 311 310 309 311 313 313 313 314 312 310 310 313 315 314 311 308 308 308 308 307 305 311 313 314 310 311 313 311 309 312 312 311 304 306 306 310 311 311 310 308 308 308 310 311 312 311 309 308 309 310 311 314
311 311 311 311 309 311 313 313 313 314 313 312 314 315 312 310 311 312 315 314 312 313 308 309 311 314 310 315 315 312 313 312 313 308 308 309 310 311 310 311 310 308 307 307 307 308 309 311 316 311 313 315 313 313
312 311 312 311 309 311 314 313 313 313 317 315 313 313 312 311 315 318 314 314 317 318 316 319 317 313 312 308 313 313 316 312 312 308 310 312 311 310 309 309 311 310 308 307 306 307 307 307 309 311 310 310 309 309
312 312 313 311 313 316 314 314 313 313 314 314 318 318 314 313 312 317 313 311 316 314 317 317 319 316 313 310 313 317 317 312 309 309 311 311 309 307 307 308 308 311 309 308 306 306 305 305 305 305 306 307 307 307
312 312 314 315 318 314 313 314 314 314 315 318 321 310 315 315 314 313 312 311 311 311 312 315 319 318 317 316 313 316 312 310 312 312 314 311 306 306 305 305 305 308 309 308 307 306 305 305 304 304 304 305 305 305
312 312 316 318 317 313 313 315 315 315 318 321 314 313 313 311 310 310 310 310 310 310 311 314 313 312 312 313 311 310 312 309 308 310 309 308 306 305 305 304 304 305 309 308 307 306 305 305 304 303 303 302 302 303
312 314 320 319 315 312 314 316 316 317 321 319 315 314 311 310 310 310 310 310 309 310 310 310 313 312 314 312 313 313 311 310 314 311 308 308 308 306 305 302 302 305 305 309 308 307 306 305 305 304 304 303 302 301
312 320 320 316 313 314 318 320 322 322 317 319 318 312 310 311 311 311 310 309 309 310 311 310 311 314 310 311 312 310 309 308 307 307 306 306 307 306 304 302 303 303 305 305 309 308 308 307 307 306 305 305 304 303
313 312 313 314 313 317 321 323 322 318 320 316 316 315 312 310 311 311 310 310 309 310 309 311 308 310 310 311 310 307 305 303 301 302 307 306 307 308 305 302 301 304 304 304 305 306 307 307 305 304 303 300 300 301
312 313 315 316 316 317 322 322 321 324 321 317 315 314 313 312 311 311 309 310 312 309 309 308 310 310 309 308 307 305 304 303 302 302 305 306 302 302 306 303 302 304 302 303 304 303 301 301 302 300 299 299 299 300
314 317 321 319 317 321 326 321 322 322 320 316 315 317 318 314 311 311 310 309 308 308 309 309 309 308 307 306 305 304 303 302 303 303 302 302 303 303 305 302 301 302 302 302 301 300 300 300 301 300 299 299 299 299
320 323 320 318 324 320 323 319 317 318 316 318 317 318 318 317 314 313 312 310 309 309 310 308 307 308 308 308 308 307 305 304 303 302 302 302 303 301 302 302 301 301 300 300 299 299 299 298 300 300 299 299 299 298
322 321 320 323 324 326 320 321 316 316 320 319 319 319 318 317 317 316 312 312 311 309 310 308 307 308 308 308 307 308 307 307 306 305 303 302 298 298 299 301 301 300 300 300 299 299 299 299 299 299 299 299 298 298
323 322 324 326 325 313 314 319 322 322 323 319 319 320 319 317 318 314 316 314 312 311 309 309 309 310 308 309 310 309 308 306 301 300 300 300 300 301 300 300 300 299 299 300 300 300 299 299 299 299 300 299 299 299
323 324 326 325 318 314 320 323 324 323 318 320 321 322 320 321 319 318 320 315 312 312 311 311 310 307 308 308 305 305 302 302 301 300 300 299 298 299 299 298 298 298 298 299 300 300 299 298 298 298 299 300 300 299
317 317 316 311 317 323 324 323 318 318 320 320 321 319 322 318 316 316 313 317 316 314 313 311 308 307 306 303 302 302 302 302 300 297 300 299 298 299 298 298 298 297 297 298 298 299 299 298 297 297 298 299 298 298
314 320 317 322 322 323 323 323 323 323 321 322 320 319 318 318 318 316 313 314 314 313 311 309 308 306 306 307 301 301 302 301 301 299 299 299 299 298 296 294 294 297 297 297 297 298 298 299 299 298 298 298 298 297
316 320 320 319 322 321 322 321 322 322 325 324 321 324 322 323 320 315 311 313 313 313 313 311 310 308 307 306 303 303 302 302 301 301 300 299 299 299 298 296 296 296 296 296 296 296 297 297 298 298 297 297 297 297
326 325 325 323 323 324 324 325 324 323 322 324 322 320 323 321 319 313 313 315 315 313 310 310 310 309 308 307 307 305 302 302 301 300 300 299 298 298 297 297 296 297 296 295 295 296 296 296 297 297 297 297 297 297
325 325 321 322 322 325 324 326 324 321 322 320 318 319 320 316 316 315 316 315 314 313 311 311 311 308 302 301 301 301 301 300 299 299 299 296 297 297 297 297 297 297 297 296 296 297 296 296 296 296 297 297 297 297
324 321 323 325 325 325 322 322 321 318 315 316 316 316 316 315 315 315 315 315 313 310 306 303 302 301 300 300 299 299 298 298 299 298 295 295 296 297 297 297 297 297 297 297 297 297 297 297 297 296 296 296 296 296
323 323 325 325 324 322 320 319 317 317 317 318 318 319 318 316 316 313 309 306 305 303 302 301 301 300 300 299 299 298 297 296 297 296 296 296 296 295 296 297 297 297 297 297 297 297 297 297 297 297 296 296 296 295
323 324 325 324 322 319 319 319 318 318 319 319 319 321 320 318 316 312 308 306 304 303 301 301 300 299 299 298 298 297 296 295 295 294 293 293 294 294 295 296 296 297 297 296 296 296 296 296 296 296 296 296 295 295
323 322 323 323 320 321 320 320 320 320 320 320 320 319 319 317 314 310 306 304 304 303 302 301 300 300 299 298 297 296 295 295 295 295 294 293 292 293 293 294 295 296 296 296 296 295 295 296 296 296 296 295 294 294

GFSWCAN_925_thetae_039.txt.gz
Theta_e
304 304 304 303 302 302 303 306 305 306 305 306 306 307 307 308 308 307 308 308 306 305 305 306 307 309 308 308 309 307 304 307 306 310 310 311 313 313 315 313 316 317 319 323 326 329 331 319 320 321 317 318 318 320
304 304 303 302 302 303 306 306 307 306 306 306 306 307 308 308 308 308 308 309 308 306 307 307 307 307 307 308 309 308 309 307 306 308 309 309 313 313 312 314 312 317 313 318 319 321 318 320 320 314 313 313 314 319
304 303 302 302 304 306 307 307 307 306 306 306 307 308 308 308 308 308 309 309 307 306 304 305 309 308 309 308 308 309 307 305 305 303 306 308 311 308 312 312 312 312 311 313 313 312 312 317 315 312 312 312 312 315
303 302 303 305 307 307 309 307 307 306 306 307 308 308 308 308 308 309 309 308 306 304 308 306 307 307 308 308 308 308 308 307 303 302 304 306 310 307 310 308 311 310 310 311 311 310 312 313 311 310 311 311 312 311
303 303 305 308 308 309 310 309 307 306 307 308 308 308 308 308 309 310 309 308 307 305 307 305 306 307 307 306 306 307 306 306 306 306 307 309 309 308 306 306 311 309 310 311 312 309 310 310 310 310 311 312 311 311
303 305 308 309 308 309 311 311 308 307 307 308 310 311 310 310 311 310 311 308 307 307 302 307 304 305 307 307 306 304 305 304 306 307 307 306 305 307 309 311 309 309 310 311 311 310 310 310 309 310 310 310 312 312
303 305 309 310 309 309 312 312 310 309 309 310 310 310 310 310 311 310 307 308 307 305 304 308 309 306 307 307 303 303 303 301 304 305 304 304 305 305 307 310 310 310 309 310 311 313 314 312 312 310 310 310 310 312
304 308 310 310 309 309 312 312 312 310 309 310 310 311 311 310 308 309 307 306 305 305 305 314 314 310 307 304 305 301 303 302 304 304 305 305 306 303 308 311 310 309 309 309 310 310 311 311 309 309 310 309 310 315
306 310 311 311 309 309 312 312 313 312 309 309 310 310 311 311 310 310 306 306 306 306 304 310 316 316 306 305 303 303 302 309 304 307 306 306 306 310 310 310 310 308 308 308 308 308 309 311 311 311 311 310 309 309
306 311 311 311 310 309 311 313 312 314 312 309 309 313 313 313 310 307 307 308 308 307 302 309 309 315 309 311 313 312 309 310 311 309 306 306 307 308 307 309 310 309 308 307 308 308 308 311 315 308 309 307 307 308
306 311 311 312 311 309 312 314 313 312 312 312 312 312 311 308 310 312 314 312 311 311 306 306 309 313 309 316 315 310 312 311 309 309 310 310 303 305 306 306 309 309 308 307 307 306 306 306 309 311 311 310 311 311
307 312 311 312 310 313 315 313 313 312 315 314 313 312 310 311 313 315 310 311 314 316 312 314 315 312 311 310 311 313 315 311 311 306 304 308 305 304 305 305 306 308 308 305 305 305 305 305 305 306 306 306 306 306
310 312 312 313 315 316 312 312 313 313 313 313 315 315 312 311 309 315 308 309 311 310 311 315 319 314 312 309 314 315 314 311 306 308 309 308 310 305 303 303 304 308 307 306 305 304 304 304 303 303 304 304 303 303
311 312 312 313 316 316 312 312 314 314 314 316 320 309 312 311 311 310 310 309 308 308 309 308 316 318 314 315 311 314 311 308 310 309 310 307 306 304 303 302 302 304 306 306 305 305 304 303 302 302 302 301 301 301
311 312 312 317 318 315 312 313 314 315 317 318 313 310 311 309 308 308 307 307 307 306 307 311 309 307 309 311 308 307 310 308 309 306 311 307 306 304 303 302 300 301 306 305 305 305 305 305 303 302 301 300 300 300
311 312 318 320 316 312 313 315 315 316 318 319 314 312 309 310 308 308 308 307 305 306 306 306 310 311 311 309 311 311 307 304 307 307 306 307 305 304 303 302 299 300 303 306 306 305 305 305 304 304 303 301 301 301
310 317 314 312 313 313 317 318 320 320 317 317 317 310 308 308 308 308 307 307 305 306 308 306 309 312 307 309 311 308 306 305 306 305 303 303 304 304 303 301 300 300 302 303 307 306 306 307 306 305 304 304 304 302
309 311 312 314 315 316 319 321 320 317 319 315 317 313 309 307 308 309 307 306 306 307 306 309 305 308 308 310 308 305 304 304 301 299 300 303 304 304 304 301 299 302 302 303 303 303 304 305 304 303 301 299 300 302
310 312 315 318 318 316 319 322 319 321 322 313 312 311 310 309 308 307 307 306 307 305 305 306 309 309 308 305 305 304 303 300 300 301 301 301 301 299 300 302 300 301 302 300 299 299 300 303 302 299 298 299 299 299
314 318 321 321 318 318 324 322 319 318 320 314 312 314 314 312 311 309 308 306 305 305 307 308 308 307 306 304 302 302 301 300 301 300 299 299 301 300 301 300 299 301 300 299 299 298 299 299 299 298 298 298 298 297
320 323 321 318 320 317 319 318 314 315 314 315 313 315 316 312 313 313 312 307 306 307 307 305 306 306 304 305 305 304 302 301 301 300 300 300 301 298 299 300 299 298 299 298 296 297 298 297 298 298 298 297 297 297
320 321 320 321 321 322 319 318 313 312 316 316 317 315 317 317 317 316 312 312 310 310 308 307 305 306 306 305 305 306 305 303 301 300 299 299 295 295 296 298 298 296 298 298 298 297 297 297 298 299 298 298 298 298
322 322 322 324 325 311 314 316 318 319 321 318 316 318 317 317 317 315 316 314 313 310 307 306 307 308 307 307 307 306 305 301 298 298 297 297 297 297 297 297 298 298 297 298 298 298 297 299 299 299 299 298 298 298
323 322 323 323 317 315 316 319 319 319 317 316 319 320 319 318 314 314 317 315 313 311 309 309 308 306 304 306 305 304 301 300 299 298 299 298 296 296 296 296 297 298 298 299 299 298 297 298 299 299 299 298 298 298
314 315 312 309 315 320 323 322 318 317 319 318 320 318 318 315 316 315 313 312 313 311 311 309 306 303 301 299 300 300 301 300 298 295 297 300 298 297 296 296 296 297 298 298 298 298 297 297 299 299 298 298 298 297
315 320 315 320 320 320 321 320 321 321 320 321 320 319 318 318 320 316 312 310 311 312 310 307 305 304 303 301 299 298 300 300 299 297 297 297 298 297 294 293 293 296 297 297 298 298 298 298 297 297 297 297 296 297
316 320 315 313 318 319 320 319 318 319 323 323 319 321 320 320 320 316 310 310 310 313 312 311 308 306 305 305 303 302 301 300 300 299 299 298 298 297 297 296 295 295 295 296 297 298 298 298 297 296 296 297 297 297
322 321 322 320 320 319 321 321 322 320 320 319 317 319 322 321 318 311 309 313 315 314 311 308 307 306 305 304 303 302 301 300 298 298 298 297 297 298 298 297 296 296 295 295 296 296 297 297 297 297 296 296 296 297
322 320 319 319 319 321 322 321 323 319 317 316 316 316 319 316 313 313 314 314 313 311 310 303 299 300 300 300 299 299 298 298 298 297 296 295 294 295 295 297 297 296 295 296 296 296 296 296 297 297 297 296 296 295
320 317 319 320 322 323 321 318 319 315 313 314 314 314 315 313 314 313 310 311 303 300 300 300 300 300 298 296 295 296 297 298 298 297 293 293 295 297 297 297 297 297 297 297 297 297 297 296 296 296 296 296 296 295
319 318 321 321 322 319 316 315 316 315 316 316 315 315 315 314 314 306 305 302 301 301 300 299 299 299 298 296 295 294 293 294 295 295 294 294 295 296 296 296 297 297 297 297 296 296 297 297 296 296 296 295 295 295
320 321 322 323 320 315 315 316 315 315 316 316 317 317 316 315 313 307 303 301 301 300 299 299 298 297 298 297 296 295 294 294 294 293 294 294 295 296 296 296 296 297 297 296 296 296 296 296 296 296 295 295 294 294
321 319 319 319 318 319 317 318 318 317 316 317 317 318 316 314 312 306 303 302 302 300 300 299 298 298 297 296 295 295 295 294 293 292 292 292 293 295 295 296 296 296 295 295 295 295 295 295 295 295 294 294 294 294

GFSWCAN_925_thetae_042.txt.gz
Theta_e
305 304 303 302 302 304 306 307 306 306 306 306 306 307 308 308 308 308 308 308 307 306 306 306 307 309 309 308 307 308 305 307 308 310 311 310 312 312 314 312 314 316 317 322 322 331 334 320 317 320 316 314 314 316
305 303 302 303 305 306 307 307 307 306 306 306 307 308 308 308 308 308 308 309 308 306 307 306 307 308 307 308 310 307 307 309 308 309 309 309 312 311 312 315 312 315 313 314 316 320 313 317 314 312 312 313 314 313
304 303 303 305 308 307 307 307 307 306 307 307 307 308 308 308 308 308 309 308 307 305 302 302 306 307 308 308 308 309 306 307 308 304 307 309 311 309 313 313 313 311 310 313 314 312 313 315 313 311 311 313 313 312
303 303 304 307 309 308 308 308 307 307 307 308 308 308 308 308 308 309 309 307 306 303 304 305 307 306 306 306 307 308 307 307 304 302 304 309 311 307 311 310 312 311 310 310 312 311 312 314 311 311 311 312 313 313
303 303 304 307 309 308 309 310 307 307 307 309 309 309 309 308 308 309 309 308 307 305 306 304 304 306 307 305 305 305 305 304 303 307 305 308 307 307 307 308 310 311 311 312 314 311 311 311 311 311 312 311 312 313
303 304 306 309 310 309 310 311 311 308 309 309 311 311 310 310 310 310 311 308 307 307 302 306 302 305 307 307 305 303 304 303 305 304 305 305 304 307 310 311 310 310 310 310 311 311 312 312 312 312 312 312 312 312
303 305 308 310 310 309 310 312 312 309 310 310 310 310 310 310 310 309 307 307 307 305 305 312 308 304 307 305 302 301 302 300 303 305 305 304 305 305 307 310 310 309 309 309 308 309 310 311 311 310 310 311 311 310
304 305 308 311 310 309 309 312 312 310 309 310 310 310 311 310 308 309 307 306 305 304 303 314 316 311 306 305 304 299 301 300 303 304 306 306 307 304 308 310 309 308 308 308 308 307 308 309 310 310 308 309 310 311
304 305 309 311 311 310 308 312 312 313 310 309 309 309 310 311 310 310 307 306 306 305 302 308 312 319 305 306 302 302 301 307 303 308 306 305 307 308 308 309 310 309 308 308 308 307 308 310 310 309 309 310 310 309
304 305 310 311 311 310 309 312 313 312 312 309 309 311 311 311 308 308 307 308 308 307 300 308 308 313 309 312 313 310 309 309 310 308 306 303 304 305 306 306 309 309 307 306 308 307 307 308 308 309 308 310 309 309
305 307 310 311 310 309 311 314 312 312 311 311 311 311 310 308 310 311 314 312 311 310 306 306 309 312 308 316 315 311 311 310 308 308 309 304 303 303 303 304 305 308 306 304 304 305 305 305 306 306 306 306 306 306
305 307 311 311 311 315 313 311 312 312 313 312 312 311 310 310 312 312 308 308 311 314 310 312 312 311 309 310 313 312 313 305 308 305 302 308 308 304 303 304 304 306 306 304 304 303 303 304 303 303 303 303 302 302
306 309 311 311 311 316 314 312 312 312 312 312 313 314 309 309 307 312 306 307 309 308 309 312 317 312 312 310 313 314 310 310 304 307 307 307 307 305 303 302 303 305 305 304 303 302 302 302 302 302 302 301 301 301
306 308 310 311 314 317 314 312 312 313 312 314 318 311 310 310 310 309 308 308 307 306 307 306 313 313 310 312 308 312 308 306 308 299 302 305 305 304 303 302 300 302 305 304 304 304 303 302 301 300 300 300 300 301
307 309 311 314 317 315 312 313 313 313 314 316 312 309 310 308 306 307 305 305 305 304 305 309 307 306 307 309 305 305 308 306 308 303 304 305 304 303 303 302 300 299 303 303 304 303 304 304 303 301 300 300 300 300
307 310 318 317 312 312 313 315 313 314 316 317 315 312 308 310 308 306 307 306 303 304 304 304 309 309 310 308 309 310 307 303 305 305 304 303 304 304 303 301 299 298 300 303 304 304 304 304 303 303 303 303 300 299
307 315 311 310 312 315 315 316 317 317 317 315 314 310 309 308 309 306 305 306 303 305 307 305 308 311 306 308 310 306 306 305 303 303 300 301 303 302 302 302 299 300 300 302 305 305 305 305 305 304 302 301 302 302
307 308 308 312 315 315 318 318 318 318 318 315 315 314 307 306 307 307 306 304 305 305 305 308 304 308 308 309 307 304 304 302 299 298 298 300 301 299 299 300 300 300 301 302 303 303 304 303 303 302 297 297 299 302
309 312 314 316 319 315 317 320 318 318 318 312 310 308 308 308 306 307 307 305 305 304 305 306 308 308 308 305 306 304 302 300 300 299 299 300 300 299 298 301 299 300 300 299 298 298 297 299 298 297 298 298 297 297
314 319 321 321 319 317 321 320 317 316 318 313 310 311 311 312 309 310 310 308 305 306 308 308 307 307 307 305 302 302 301 298 299 299 299 299 300 298 297 299 297 299 298 297 297 298 297 297 297 297 297 297 297 297
321 321 319 317 318 316 316 317 314 312 313 313 311 312 314 312 314 312 311 307 308 311 310 307 308 306 305 305 303 302 300 300 299 299 300 300 299 296 296 298 297 297 297 296 295 296 296 296 297 297 296 297 297 298
320 321 320 320 320 320 318 318 314 310 313 314 316 313 314 316 314 313 310 312 310 310 307 308 306 308 309 305 304 304 304 303 299 298 298 297 295 295 295 296 296 296 297 296 296 296 296 297 297 297 298 297 298 298
321 321 321 322 323 312 314 314 315 317 319 317 314 317 316 315 314 312 316 313 312 309 307 306 307 307 305 306 306 305 304 299 296 296 296 296 295 295 296 296 296 297 298 298 297 297 297 298 297 297 297 297 298 298
321 321 321 321 316 315 314 317 317 317 316 315 317 318 318 317 314 314 314 311 311 308 309 309 306 303 304 305 304 304 303 299 297 296 297 296 294 294 295 295 296 297 297 297 296 297 298 298 298 298 297 297 297 297
313 314 309 305 313 318 320 320 318 317 318 317 318 317 317 314 316 315 313 309 309 310 308 307 305 302 302 301 299 301 300 298 296 296 297 296 295 294 294 295 296 297 297 298 296 295 296 297 298 297 297 297 296 296
312 318 314 318 319 318 319 319 319 319 318 320 319 316 314 316 318 316 311 309 309 309 309 308 306 304 302 300 298 298 299 300 299 297 297 298 297 294 294 295 293 295 295 297 297 297 297 298 298 298 297 296 296 297
316 320 314 311 314 317 318 317 316 319 321 322 317 318 319 320 319 314 309 307 308 311 311 309 307 304 303 303 302 302 304 302 298 299 298 297 297 298 299 297 294 295 295 296 296 297 297 297 297 297 296 297 296 296
319 319 321 318 319 317 320 319 319 319 319 318 317 319 321 320 317 310 308 311 312 311 308 305 303 303 300 299 299 299 298 298 297 298 298 296 296 297 297 295 294 294 295 295 296 296 297 297 296 296 296 296 296 295
320 319 319 320 318 318 320 320 320 317 316 315 316 317 316 314 312 311 312 312 310 309 299 298 297 298 298 298 298 297 296 296 297 296 297 295 295 294 296 296 297 295 296 296 296 296 296 297 297 297 296 296 296 296
318 315 320 319 320 321 319 317 318 314 312 312 312 313 313 311 312 308 308 307 305 304 300 299 298 298 296 296 294 295 295 296 297 295 294 294 296 296 296 297 297 297 296 296 296 296 295 296 295 295 295 295 295 295
315 317 319 319 320 317 315 314 313 314 313 314 313 313 313 312 307 303 301 301 301 300 299 297 296 296 296 295 294 293 292 293 294 294 294 295 295 296 296 297 297 297 296 296 296 296 296 296 296 295 295 295 294 294
318 320 321 321 319 314 313 314 313 315 314 315 315 314 314 313 311 304 301 300 299 298 298 298 297 296 296 295 294 294 293 293 293 294 295 296 296 296 296 296 296 296 296 296 296 296 296 296 295 294 294 294 294 294
320 318 318 316 317 316 315 316 316 316 315 316 316 315 314 313 312 302 301 301 300 299 298 298 297 296 295 295 295 294 292 292 292 292 293 294 295 295 296 296 296 295 295 295 295 295 295 295 295 294 293 293 293 293

GFSWCAN_925_thetae_045.txt.gz
Theta_e
304 303 302 303 306 307 306 307 306 306 306 306 307 308 308 308 308 308 308 308 307 307 309 307 307 309 308 309 308 308 309 308 309 311 313 312 313 313 314 312 313 312 314 313 313 315 317 315 320 325 319 316 317 318
304 303 303 304 307 308 307 307 307 306 306 307 307 308 308 308 308 308 308 308 307 307 309 307 307 307 308 308 309 308 309 308 309 309 310 310 312 312 314 316 311 316 311 314 313 315 309 313 315 315 315 315 315 315
303 303 303 304 308 308 308 308 307 306 307 307 308 308 308 308 308 308 308 307 307 308 309 308 309 307 308 307 308 310 309 308 310 306 308 309 311 310 313 314 312 311 310 311 312 312 313 314 314 314 313 313 314 315
303 303 304 307 310 308 308 310 308 307 307 308 308 308 308 308 308 309 308 307 306 306 312 311 306 308 306 306 307 308 308 308 308 305 308 310 311 307 311 309 311 310 310 310 313 312 312 313 313 314 314 313 313 313
303 303 305 309 310 309 309 311 310 308 309 309 310 309 309 309 309 309 308 308 307 308 314 313 307 306 306 306 305 305 307 308 308 308 308 309 307 307 309 310 310 310 311 311 313 311 312 313 314 314 313 313 312 313
303 304 304 308 311 309 308 312 312 310 310 310 310 310 309 309 310 310 312 309 308 306 310 315 307 307 308 307 306 305 305 307 307 308 307 307 305 307 311 312 310 310 309 309 310 309 311 311 311 311 312 312 311 312
303 304 305 310 311 310 308 311 312 311 310 310 310 310 310 310 310 311 311 307 307 306 309 317 317 309 307 307 307 308 305 306 307 308 309 308 308 306 308 310 310 310 309 309 308 308 310 312 313 312 311 311 311 311
304 303 305 310 311 310 309 309 312 312 310 310 310 310 310 309 309 309 308 307 305 305 307 318 320 315 308 310 311 305 310 309 308 309 309 308 309 309 311 310 310 309 308 308 308 307 308 309 312 311 311 311 311 311
304 303 306 310 311 311 309 309 313 312 312 309 309 309 309 309 311 310 307 306 306 307 314 313 318 323 308 309 307 310 309 311 307 312 311 309 308 311 310 310 310 309 308 307 306 306 307 307 308 308 308 310 312 312
304 305 306 310 311 309 308 311 313 312 312 309 308 311 317 311 308 308 307 309 309 308 308 311 311 319 314 313 312 311 310 310 311 311 309 306 314 308 308 308 310 309 307 306 306 306 306 306 306 306 306 306 306 308
304 305 306 310 311 311 314 312 311 311 310 310 313 316 311 308 309 312 315 314 314 316 311 311 311 317 313 318 316 313 312 312 310 310 312 310 314 311 308 308 309 308 306 306 305 305 305 305 305 305 304 304 303 304
305 305 306 308 310 311 316 313 312 311 312 312 312 311 310 312 315 316 314 313 315 318 315 318 318 314 315 313 316 314 314 312 313 309 311 317 314 311 309 308 308 308 306 305 304 304 303 303 303 303 303 303 303 302
305 306 307 308 310 311 315 313 312 311 312 312 313 317 315 314 315 315 316 319 315 314 314 315 316 318 314 313 315 315 315 315 309 311 314 314 312 312 310 308 307 309 307 306 305 304 304 303 302 302 302 302 303 302
306 307 308 310 312 315 316 312 312 311 311 318 322 319 315 316 315 316 316 315 314 312 313 311 317 319 316 317 314 316 312 311 311 313 316 313 312 311 310 308 306 305 309 307 307 306 306 305 304 303 302 302 301 302
306 307 313 314 317 314 311 313 313 312 314 319 318 319 316 315 312 313 311 311 312 309 311 314 313 312 313 313 311 311 311 312 313 313 312 312 313 312 310 309 306 304 307 309 307 307 306 306 306 306 305 304 302 302
307 309 317 313 310 310 314 314 311 313 316 319 320 319 315 314 317 314 313 314 310 310 309 310 314 314 314 312 312 313 313 313 313 313 311 310 311 312 311 309 307 304 304 307 308 307 307 307 307 307 307 305 304 302
307 310 312 309 308 313 314 314 314 319 320 320 320 316 316 315 316 316 313 314 308 311 313 311 313 313 311 311 313 312 313 313 310 309 308 308 311 311 309 308 307 305 305 306 307 307 307 308 307 306 303 302 302 304
306 307 306 309 311 314 314 315 320 322 323 322 320 320 314 314 315 314 312 311 311 312 311 312 310 312 312 312 312 311 310 309 307 307 306 307 307 306 303 304 305 304 306 305 305 303 303 305 304 301 301 300 301 302
307 312 314 314 317 314 318 320 320 324 322 321 318 315 315 315 313 312 314 310 308 309 311 311 312 312 312 312 311 311 309 308 307 307 306 305 304 304 302 304 304 304 305 303 302 301 301 302 300 300 300 300 300 300
314 319 321 319 319 316 323 325 318 321 323 321 316 318 317 320 317 315 314 311 309 311 313 314 312 314 313 312 312 310 309 307 307 306 306 306 304 301 301 302 302 303 302 300 300 299 301 300 300 300 299 299 300 300
318 320 319 316 316 315 321 322 323 320 319 320 317 319 321 319 319 319 318 314 313 313 314 313 314 312 310 311 309 307 306 305 307 306 306 304 302 300 301 301 300 300 301 300 301 300 300 300 299 299 300 300 300 300
318 319 318 318 320 322 324 322 321 318 319 320 321 319 321 323 321 320 316 317 316 314 311 312 312 313 313 312 309 306 307 306 305 302 299 299 302 302 301 300 301 301 301 300 301 300 300 298 299 299 299 300 300 299
319 321 320 322 326 318 320 316 320 321 325 323 320 322 322 323 320 317 320 318 317 314 311 310 310 309 310 308 308 308 307 305 303 301 300 299 299 298 299 299 299 301 301 300 299 299 299 298 297 299 299 300 300 300
318 320 324 326 323 323 320 321 321 323 320 321 321 321 322 322 319 317 318 318 316 314 313 313 310 311 310 310 311 310 307 302 300 299 299 299 299 297 297 297 297 297 298 299 299 299 300 299 298 299 299 298 298 298
314 316 314 309 316 321 322 324 322 322 323 322 321 322 323 320 321 319 318 317 316 316 317 314 312 311 311 310 308 305 300 300 302 304 300 298 297 297 298 299 297 296 296 299 298 298 299 299 299 298 298 298 298 298
310 319 318 320 322 323 322 324 323 323 323 324 323 322 321 321 320 320 318 317 316 317 317 315 313 311 310 307 307 304 302 300 302 304 299 298 298 299 300 300 298 297 296 297 298 299 299 299 299 299 298 298 297 298
315 323 321 316 318 321 324 323 321 323 324 324 322 321 323 323 321 320 317 314 315 314 312 309 308 308 307 305 304 304 301 300 300 300 297 298 299 299 298 297 297 296 296 297 298 299 298 299 298 298 298 298 298 298
322 323 325 323 322 322 325 324 324 324 323 323 321 321 320 322 320 317 315 313 312 308 301 300 300 299 299 298 298 298 297 297 296 296 296 296 296 296 296 295 295 295 296 295 296 297 298 298 298 298 297 297 297 297
323 325 324 326 323 323 325 325 325 324 322 322 321 321 321 319 316 314 313 311 308 302 301 300 298 298 298 297 296 296 297 298 299 300 300 300 299 297 298 298 297 296 297 297 296 297 297 297 297 297 297 297 297 297
322 322 325 324 323 325 325 324 324 320 318 317 318 319 318 316 310 305 308 305 307 303 301 300 299 300 299 298 297 296 295 295 296 298 299 299 298 297 298 298 298 297 297 297 297 296 296 296 296 296 296 296 296 296
320 321 324 324 325 323 321 319 317 317 318 319 317 319 317 313 305 301 301 301 300 299 299 299 298 298 298 297 297 297 295 294 294 295 295 295 296 297 297 298 298 297 297 297 297 297 297 297 297 296 296 296 296 296
322 324 325 326 325 320 318 320 320 320 320 320 319 318 317 317 314 307 299 299 300 300 298 299 298 296 295 294 294 293 293 294 294 295 296 296 297 297 297 297 297 297 297 297 297 296 297 297 296 296 296 296 295 295
325 323 323 322 322 322 319 320 320 320 319 320 320 319 318 317 317 306 300 299 300 300 299 298 296 295 295 294 293 292 292 292 292 293 295 295 295 296 296 296 296 296 296 296 296 296 296 296 296 295 295 295 295 294

GFSWCAN_925_thetae_048.txt.gz
Theta_e
305 304 304 303 304 307 308 307 307 306 307 307 308 308 308 308 308 310 311 308 309 311 311 310 310 311 310 311 311 310 312 311 310 313 315 315 315 314 313 313 313 313 314 314 313 314 314 311 310 318 325 319 318 319
304 304 304 305 307 308 308 308 307 307 307 308 308 308 308 308 308 309 311 307 308 308 313 311 310 310 310 310 311 311 311 311 310 310 311 311 314 314 314 317 309 314 312 315 313 315 312 307 308 316 316 318 317 318
304 304 305 306 309 309 308 309 307 307 307 308 308 309 308 308 308 309 311 309 309 312 314 313 312 310 310 309 310 313 312 312 311 308 310 309 312 310 315 315 312 309 306 310 310 311 307 311 312 315 316 315 315 316
304 304 305 305 309 309 308 310 308 308 309 309 308 309 308 308 308 309 312 311 310 311 316 314 310 311 309 309 309 309 310 310 310 308 310 312 312 309 313 311 310 308 309 310 309 307 309 312 311 315 314 314 314 315
304 304 304 305 309 309 308 311 310 309 310 310 310 309 309 309 309 311 312 311 310 312 317 315 311 310 310 311 310 309 309 312 312 312 311 310 308 308 310 311 311 310 310 311 312 309 309 309 312 313 314 313 313 314
304 304 304 306 310 310 309 310 311 310 310 310 310 310 310 309 310 313 314 312 311 310 315 318 312 313 311 312 312 311 309 311 311 311 311 310 308 309 313 314 312 310 309 308 309 309 311 313 311 311 313 314 313 314
304 304 304 306 309 310 310 308 312 312 310 310 310 310 310 310 312 314 316 311 309 309 315 321 321 314 310 310 312 313 312 311 311 311 311 311 310 311 312 314 312 311 308 308 307 308 309 309 310 309 312 312 312 312
304 304 305 307 310 310 310 308 310 312 312 309 310 310 310 310 310 313 312 308 308 311 312 320 322 321 313 316 315 310 315 314 311 312 311 310 310 311 313 310 311 310 308 307 307 307 308 307 307 308 308 310 312 314
304 305 305 306 309 310 308 308 311 313 312 311 309 309 310 311 314 313 309 306 308 310 318 317 323 324 314 316 313 314 314 317 312 314 313 313 312 313 312 310 311 310 308 307 307 306 307 307 306 306 306 306 307 308
304 305 305 305 307 311 311 313 312 312 312 310 310 314 320 314 310 309 309 313 313 313 313 317 316 322 318 317 317 315 313 313 315 314 312 313 313 310 309 309 311 310 308 307 306 307 306 306 306 306 306 306 306 306
304 305 306 306 307 309 311 314 311 311 311 313 317 320 314 310 311 314 319 320 320 322 320 318 317 321 318 320 317 314 314 314 314 314 315 315 315 313 310 308 310 310 308 307 306 306 305 305 305 305 305 305 304 305
305 305 306 306 307 308 310 314 312 311 316 316 316 314 314 315 320 321 319 317 319 318 317 318 319 318 318 316 318 316 316 315 316 312 314 316 315 312 310 308 308 310 309 308 306 306 305 305 304 304 304 304 304 304
305 306 306 307 308 309 312 314 312 312 312 314 317 322 321 320 323 318 325 320 317 315 315 316 318 319 317 316 317 317 318 316 313 314 315 316 313 311 310 309 307 308 310 309 308 306 306 306 305 305 305 304 304 303
306 306 307 312 313 314 314 311 311 312 313 322 324 324 320 319 319 319 319 318 316 316 316 315 319 321 319 320 318 318 316 314 314 317 315 312 313 311 310 309 308 307 308 309 309 308 307 306 306 306 305 304 304 304
306 307 309 315 316 311 310 312 313 312 318 323 323 324 320 319 319 319 318 317 316 316 316 317 317 318 317 316 314 313 314 314 315 316 313 312 313 312 310 309 308 307 307 308 308 308 307 307 306 305 305 304 304 303
307 307 315 314 310 308 313 313 311 316 320 323 323 323 320 320 320 319 319 319 317 315 315 314 315 315 315 314 314 314 313 315 314 314 312 310 312 311 311 310 309 306 306 307 307 306 306 306 304 305 303 303 304 304
307 312 309 307 307 309 313 317 318 321 324 324 322 321 322 322 321 321 320 319 316 316 317 317 317 315 314 314 315 312 315 314 312 311 309 311 310 310 309 308 308 306 306 306 306 305 305 305 304 303 303 303 303 304
309 310 308 308 310 313 316 316 323 325 325 322 323 321 322 322 321 320 320 318 317 316 316 315 315 315 313 314 314 314 314 311 309 309 309 310 310 310 308 308 308 307 306 305 305 304 304 304 303 302 302 302 302 302
307 309 314 314 314 316 321 323 323 325 323 321 322 322 322 322 321 321 320 317 314 313 315 315 315 314 315 315 315 314 313 310 309 309 309 309 309 308 307 307 307 307 306 306 305 303 303 303 302 302 302 301 302 302
314 318 320 318 318 320 324 326 324 326 324 324 322 323 323 324 322 320 319 319 317 315 317 317 315 316 317 316 315 315 312 310 309 309 307 307 305 304 305 305 305 306 306 305 303 301 303 302 302 301 301 301 302 302
318 320 319 316 318 319 324 323 324 323 323 323 323 324 325 324 323 322 320 318 317 317 318 317 316 316 314 313 314 314 312 309 310 310 308 306 303 303 303 303 303 304 304 304 304 302 301 302 301 301 301 301 301 301
319 318 321 319 324 326 328 327 327 325 324 324 325 324 325 325 324 322 320 318 319 318 316 315 315 314 313 314 313 313 311 310 310 306 302 302 304 303 303 303 304 304 303 303 303 302 302 301 301 301 301 301 301 300
319 321 323 324 328 325 324 321 324 324 326 326 324 324 325 325 324 321 320 319 319 316 315 314 315 315 315 313 313 312 311 311 309 306 303 303 302 301 302 302 302 302 302 302 301 301 301 300 300 301 301 301 300 300
317 323 326 328 329 327 325 325 325 326 326 325 324 324 324 325 322 320 319 319 318 316 316 315 314 313 311 312 311 311 311 309 306 303 303 304 302 301 301 300 300 299 299 300 301 301 301 301 300 301 300 300 300 300
320 321 321 316 323 325 324 325 326 326 326 326 325 324 326 324 324 321 319 318 316 316 316 315 315 313 312 312 310 309 308 307 305 306 305 303 302 301 301 300 301 299 299 300 300 300 301 301 301 301 300 300 299 299
316 320 323 320 323 326 325 325 326 326 326 326 325 325 324 324 323 321 319 317 316 318 318 316 315 313 312 309 308 306 306 305 304 306 303 301 301 301 302 301 300 299 299 299 300 300 300 300 300 300 300 298 297 299
318 323 324 322 323 324 327 328 327 326 327 326 325 325 324 322 321 321 318 317 317 317 315 312 310 308 306 304 303 302 302 303 303 302 301 302 301 300 300 299 299 298 298 298 299 300 300 300 300 299 299 298 298 298
322 324 324 325 324 324 327 328 328 327 326 325 325 324 320 320 321 319 317 315 314 309 307 304 303 303 302 301 301 301 301 300 300 300 300 300 299 298 298 298 297 296 297 297 298 298 299 299 299 298 298 299 298 298
323 325 324 326 326 326 328 328 327 326 325 325 324 323 323 320 317 315 314 312 308 306 305 304 303 302 301 300 300 300 300 300 301 302 302 302 300 299 298 299 298 298 298 297 297 298 298 298 298 298 298 298 298 298
321 323 326 325 326 326 327 327 327 327 324 323 322 321 320 316 312 311 311 310 308 306 305 303 303 303 302 301 300 299 298 298 298 300 301 301 299 298 298 298 298 298 298 298 297 297 297 297 297 297 297 297 297 297
323 324 324 324 325 326 326 325 323 323 323 323 321 322 320 312 307 304 306 307 305 304 304 303 302 302 301 300 299 299 297 297 297 297 298 298 298 298 298 299 298 298 298 298 297 297 297 298 297 297 297 297 297 297
325 325 326 328 328 327 324 325 325 325 324 324 324 321 317 315 313 306 303 304 304 304 302 303 302 300 299 297 296 295 296 297 297 298 298 298 298 298 298 298 298 298 298 298 297 298 297 297 297 297 297 296 296 296
328 327 327 327 327 327 324 324 323 324 322 322 322 322 321 320 319 309 303 303 305 304 303 301 300 299 297 296 295 295 294 294 295 295 295 295 296 296 297 297 297 297 297 297 297 297 297 297 297 296 296 296 296 295

GFSWCAN_925_thetae_051.txt.gz
Theta_e
306 305 304 304 306 309 308 308 307 307 308 308 308 308 308 308 308 312 313 312 313 317 315 313 312 313 313 313 315 314 315 314 312 315 316 317 317 317 314 314 317 316 317 318 316 317 318 314 313 314 315 313 310 321
306 304 304 305 306 309 308 309 307 307 308 308 308 308 308 308 308 310 313 311 311 311 316 314 313 312 312 312 314 313 315 313 311 312 312 311 314 314 314 317 312 317 316 317 317 316 315 313 311 311 308 311 312 322
306 304 304 304 305 309 308 310 308 308 308 309 308 309 308 308 308 310 313 312 311 316 317 316 314 313 312 312 312 315 314 313 313 311 311 310 313 311 316 314 313 311 309 310 310 312 312 311 308 309 310 312 316 317
305 304 304 304 305 310 309 310 309 309 309 309 309 309 309 309 309 310 313 314 314 316 318 317 313 314 312 312 312 311 312 312 312 313 313 312 313 309 312 312 310 309 308 310 310 308 306 309 310 309 312 314 316 316
305 304 304 304 306 310 310 309 311 309 310 310 310 309 309 309 309 311 314 315 315 316 320 319 315 315 313 313 314 313 312 312 315 316 315 314 310 309 309 310 310 309 309 309 311 306 309 308 308 311 314 314 315 318
304 304 304 304 307 310 310 309 311 311 310 310 310 310 310 310 310 313 317 316 315 315 318 322 318 317 315 315 314 314 312 313 313 312 312 312 311 312 314 314 312 310 308 309 307 307 306 307 306 309 314 314 314 314
304 304 304 305 307 310 310 309 309 312 311 310 310 310 310 310 312 315 318 314 312 314 317 320 324 320 317 316 316 314 314 315 313 313 312 311 311 313 313 315 312 309 309 309 308 308 306 306 307 308 308 310 312 313
304 304 304 305 306 310 309 309 308 312 312 310 310 310 310 310 311 315 314 311 311 314 317 322 322 323 318 320 319 314 317 316 315 314 313 312 312 311 314 311 311 309 308 308 307 308 307 306 306 306 307 307 308 309
304 304 304 305 306 308 310 310 311 313 312 311 309 309 312 313 316 316 312 310 311 314 320 321 326 323 319 319 318 317 316 320 315 317 314 313 314 316 313 310 312 309 309 309 307 307 307 307 307 307 306 306 306 308
304 304 305 305 306 308 310 313 311 311 311 310 311 317 322 317 314 311 312 314 314 316 318 323 321 324 320 321 319 318 317 317 319 317 315 317 314 313 311 310 312 311 308 308 308 308 307 307 307 307 306 306 306 307
304 304 305 305 306 307 307 311 313 311 310 316 321 323 317 312 315 316 323 323 322 322 322 322 320 322 319 323 320 318 317 317 318 319 316 319 318 315 311 310 310 310 309 308 308 308 307 307 306 307 307 306 305 305
304 305 305 306 307 308 308 309 313 312 319 318 317 317 318 318 323 324 320 319 321 321 318 318 318 320 321 320 320 318 318 318 320 314 316 318 318 313 312 310 310 309 309 309 308 307 307 307 306 306 306 306 305 304
304 305 306 307 310 311 309 312 314 312 313 318 320 324 325 323 326 321 326 324 320 318 317 317 317 322 320 319 319 320 320 320 315 315 320 317 316 313 312 310 310 309 309 310 309 308 307 307 306 306 306 305 305 305
305 305 306 309 313 313 313 312 310 311 314 324 325 328 323 323 322 320 320 319 319 317 317 318 319 324 323 322 321 321 318 314 316 320 316 317 317 313 312 311 310 309 309 310 310 309 308 308 306 306 305 305 304 305
305 306 307 313 316 310 308 310 311 312 321 325 323 327 322 321 321 321 321 321 322 321 320 319 318 320 322 320 318 314 317 317 316 318 316 315 315 313 312 311 310 309 309 309 308 308 308 306 306 305 305 305 305 304
306 307 314 315 313 307 309 313 312 319 322 324 324 323 322 322 322 322 323 321 321 320 319 319 320 319 317 315 316 313 315 316 317 316 313 315 314 313 311 311 309 309 308 308 308 307 307 307 305 305 305 305 305 305
307 316 313 309 308 310 314 318 321 323 324 324 324 322 322 324 322 323 322 323 321 321 320 320 320 317 316 316 315 314 315 316 314 312 312 314 312 311 310 309 308 308 308 307 307 307 306 306 305 305 305 304 304 305
312 313 311 309 310 315 318 318 324 324 325 325 324 323 323 322 323 323 324 321 320 319 319 320 318 319 318 318 317 316 316 315 313 312 312 312 311 310 309 308 307 308 308 308 306 306 306 306 305 304 304 304 304 304
307 308 309 311 312 319 322 325 323 325 324 323 323 322 323 327 327 324 321 320 318 318 319 319 318 318 317 316 317 316 316 313 311 311 311 311 309 309 308 307 307 307 307 308 307 305 305 304 304 304 303 303 304 303
313 317 320 319 316 322 322 324 325 326 326 326 324 324 324 326 325 323 322 320 319 318 320 320 319 318 317 318 317 315 314 314 311 312 312 309 308 306 307 306 306 307 307 307 306 302 305 305 304 303 302 303 303 303
317 320 319 317 318 321 324 324 325 325 324 324 324 325 325 324 323 322 320 319 321 317 318 318 317 317 315 315 313 312 312 313 312 312 313 309 306 306 306 305 305 305 305 306 306 305 302 304 304 303 302 302 302 303
322 319 323 321 325 326 326 324 326 326 326 325 325 325 325 324 324 322 321 319 318 317 316 316 316 315 314 314 312 313 313 312 312 311 306 305 307 307 306 305 305 305 305 305 305 304 304 303 303 303 303 303 302 300
320 321 325 325 327 328 326 324 326 326 326 326 325 324 324 324 323 322 321 319 318 316 315 316 316 316 316 314 313 312 312 311 311 309 307 306 305 305 304 304 303 303 304 303 303 303 304 301 301 302 303 302 302 302
319 324 325 326 328 328 326 327 326 326 327 326 324 324 325 324 323 321 320 319 317 316 316 316 315 316 314 313 311 311 310 308 308 307 306 306 305 303 303 303 302 302 302 302 302 302 303 303 301 302 302 302 302 301
322 321 323 320 325 327 326 325 326 326 327 326 325 324 324 324 324 321 320 318 317 316 316 314 313 313 313 312 309 309 308 306 307 308 307 305 304 303 303 302 302 301 301 302 302 302 302 302 302 302 302 301 301 301
321 322 323 321 322 325 325 324 325 326 326 326 325 326 325 324 323 323 320 319 319 318 316 314 313 312 309 307 306 306 304 305 306 306 304 303 303 303 304 304 302 300 300 300 302 302 302 301 301 301 301 299 299 301
321 322 324 323 325 325 325 326 326 326 326 326 325 326 324 323 323 322 320 318 317 314 312 309 307 306 306 304 303 303 303 303 304 304 303 302 301 301 302 301 300 300 299 300 301 301 301 301 301 301 300 300 300 300
321 322 324 325 324 324 326 327 326 327 326 325 325 326 324 323 323 320 318 316 313 310 307 306 305 304 303 303 303 303 303 302 302 302 302 301 300 299 299 299 298 297 298 299 300 301 301 301 300 300 300 300 300 299
322 322 323 326 326 326 326 327 326 328 326 325 326 326 325 322 319 317 315 313 310 309 308 307 305 305 303 302 302 302 302 302 304 305 304 302 301 300 300 300 300 300 299 298 298 298 299 299 299 299 299 299 299 299
321 322 325 325 325 325 325 327 327 328 328 326 326 324 322 319 315 314 313 312 311 310 308 306 305 304 304 303 302 300 299 300 301 303 304 302 301 300 299 299 299 299 299 298 298 298 298 298 298 299 299 299 299 298
323 323 324 324 324 325 328 328 327 327 326 326 325 325 323 316 311 310 311 312 310 308 307 306 305 304 302 302 301 301 301 299 299 300 300 300 300 300 300 299 299 299 299 299 299 299 299 299 299 299 299 299 298 298
325 326 326 327 327 331 328 327 327 327 327 326 326 324 320 316 316 311 309 309 309 309 305 305 304 302 300 299 298 299 300 300 300 300 300 300 300 300 300 300 299 299 299 299 299 299 299 299 299 298 298 298 297 297
325 325 326 326 326 329 328 327 326 327 325 325 324 322 323 323 321 313 308 308 309 308 307 304 302 301 299 299 298 297 298 297 296 297 297 298 298 298 299 299 299 299 299 299 299 298 298 298 298 298 297 297 297 297

GFSWCAN_925_thetae_054.txt.gz
Theta_e
312 306 305 304 305 306 309 308 309 308 308 308 308 308 308 308 310 313 315 314 316 320 316 315 315 316 315 315 317 315 316 315 314 315 315 315 315 315 315 314 317 316 322 320 321 320 319 316 316 317 316 316 315 314
311 306 304 304 305 305 309 308 310 308 308 308 309 309 308 308 309 311 316 315 314 315 318 316 316 313 314 314 315 315 316 315 314 314 314 313 315 314 315 317 312 318 314 314 315 318 314 313 314 313 313 313 313 313
311 306 304 304 304 305 309 308 310 309 309 309 309 309 309 308 308 310 316 316 315 318 319 318 317 315 314 313 313 315 314 314 314 313 313 312 314 313 315 314 313 310 308 311 311 312 311 311 309 308 309 310 309 310
311 306 304 304 304 306 309 309 309 310 310 309 309 309 309 309 309 309 315 316 317 317 320 321 316 316 314 314 313 313 313 313 315 315 315 313 313 311 312 312 310 310 310 309 310 309 307 309 308 308 309 310 310 311
308 305 304 304 305 308 309 310 308 311 310 311 310 309 309 309 309 311 314 315 316 317 322 320 317 316 316 315 315 315 314 315 318 319 318 317 313 312 311 311 309 309 310 309 310 307 305 306 307 305 307 312 313 315
306 304 304 304 305 307 309 310 309 310 311 311 311 310 310 310 310 315 318 317 316 316 318 321 319 319 317 317 317 316 316 315 315 315 315 314 313 313 316 316 312 311 310 307 308 308 307 305 305 305 308 311 313 314
306 304 304 305 305 306 309 309 309 309 312 311 311 311 310 310 311 316 320 317 314 314 318 320 323 322 319 319 318 318 316 316 316 315 315 314 314 312 314 317 313 310 310 309 308 306 306 305 305 305 304 305 308 309
305 304 304 305 306 306 308 308 308 309 312 311 310 310 310 310 311 315 316 314 313 315 318 322 321 324 321 323 323 318 317 318 317 316 315 313 313 314 316 312 312 310 309 308 308 308 307 307 306 305 304 304 305 307
305 304 304 305 306 306 306 309 312 312 312 311 310 310 312 313 318 319 315 313 313 315 322 322 325 322 321 320 320 318 317 320 319 317 317 315 318 313 315 313 312 310 309 309 308 308 307 307 307 306 305 304 304 305
305 304 304 305 306 306 306 307 312 311 312 311 311 316 322 320 317 315 314 316 316 317 318 323 323 325 321 322 321 320 318 318 322 318 317 321 314 316 313 311 312 310 309 308 309 308 307 308 307 307 306 305 305 305
304 304 304 305 306 306 307 307 310 311 311 315 322 324 320 316 317 320 324 326 326 325 323 323 325 326 320 323 323 319 320 319 319 320 322 322 319 318 313 311 311 311 310 309 308 308 308 308 308 307 306 306 305 304
304 304 305 306 306 307 308 308 310 311 320 318 316 316 320 321 324 326 327 322 321 324 321 321 321 320 322 322 323 321 320 321 321 318 320 319 319 315 313 311 313 311 310 310 309 308 308 308 307 307 306 306 305 305
304 304 305 306 307 311 310 308 312 314 312 318 321 324 325 325 324 325 326 324 327 324 322 321 322 327 324 321 321 321 321 320 319 319 325 318 319 315 314 312 311 310 310 311 311 309 309 308 308 307 306 306 306 305
304 305 306 306 310 314 311 310 309 310 313 325 327 326 325 325 326 326 325 327 323 323 324 322 321 323 325 320 320 320 320 320 319 319 319 320 318 315 315 313 312 312 313 311 311 310 309 307 307 307 307 306 306 306
305 305 307 308 312 313 309 307 310 312 320 325 325 325 324 323 323 323 324 325 324 323 322 322 320 323 320 319 317 317 316 317 318 320 319 319 317 315 314 312 312 311 310 311 310 308 308 307 307 306 307 307 306 306
306 308 314 312 315 313 308 311 311 319 323 323 323 324 325 327 325 325 323 324 322 322 322 321 321 321 319 318 318 317 316 316 318 319 316 316 315 313 314 311 310 310 309 309 309 309 307 307 307 306 305 306 307 307
307 313 316 312 310 311 313 317 322 324 324 324 325 325 326 326 325 325 324 323 320 320 321 319 321 321 318 318 317 316 316 318 315 314 314 316 314 314 312 310 309 308 309 309 308 307 308 307 307 306 306 306 307 307
313 314 312 310 309 317 318 317 324 324 325 325 326 327 325 325 326 326 323 322 321 319 320 319 320 319 318 318 318 318 317 315 315 315 314 315 313 311 310 310 309 308 308 310 308 308 308 306 306 305 305 305 305 307
307 307 306 307 309 316 324 324 322 324 325 326 326 326 325 328 325 325 323 322 321 320 321 320 319 319 318 317 318 317 317 315 314 316 314 313 313 311 309 309 308 308 309 309 308 308 306 306 306 305 304 304 305 304
307 313 317 318 313 321 324 323 325 325 327 328 327 326 325 329 327 324 323 321 321 320 321 319 319 319 319 318 316 315 316 314 314 315 313 313 311 309 308 308 308 307 307 308 308 305 306 306 305 304 303 304 305 303
317 321 320 317 316 320 324 324 327 327 326 324 325 325 327 328 324 322 322 320 318 318 318 318 317 316 316 316 313 312 313 313 312 312 313 313 309 308 307 306 307 307 307 308 308 307 305 306 305 304 303 303 303 304
324 322 322 320 324 324 325 322 325 329 326 327 326 327 326 327 324 322 322 321 319 318 318 316 316 315 318 317 315 314 314 313 312 312 309 308 309 308 306 306 306 306 306 305 305 305 306 304 302 304 304 304 303 302
320 320 324 324 325 326 325 324 327 326 329 326 328 326 328 324 324 324 323 321 319 317 317 316 315 316 316 315 314 314 313 313 312 311 309 308 307 306 305 304 304 304 305 305 304 305 304 304 301 304 304 303 303 303
320 321 326 325 327 327 327 326 326 326 326 328 328 325 325 325 324 324 323 320 317 317 319 317 316 316 316 316 315 313 311 308 309 309 309 308 307 305 304 304 303 303 302 304 304 304 303 303 302 304 303 303 303 303
321 321 323 318 326 330 326 328 327 330 328 328 328 326 325 324 325 324 323 320 319 319 316 314 313 313 313 311 308 308 306 306 308 308 307 306 305 305 304 303 303 302 302 303 303 304 302 301 303 303 302 302 302 302
320 322 322 322 322 324 325 326 326 328 328 327 325 329 326 326 325 324 323 321 321 317 314 312 311 309 309 307 307 306 305 306 307 306 305 303 303 304 304 304 302 301 301 303 303 301 302 302 302 302 302 302 301 302
320 320 324 322 324 326 325 325 327 328 329 327 329 328 327 326 326 324 320 319 321 313 310 307 307 307 306 305 305 305 304 304 304 303 302 302 301 301 302 302 301 300 301 302 302 301 301 302 302 302 302 301 301 301
321 322 324 325 324 324 324 326 328 329 327 325 326 329 329 327 325 322 318 316 313 311 308 307 306 305 304 304 305 304 304 304 304 304 303 301 301 300 300 298 298 298 299 300 302 302 302 302 302 301 301 300 300 301
321 322 323 324 326 325 325 327 328 324 323 322 327 329 327 324 320 317 315 314 312 311 310 308 307 306 305 304 303 302 303 304 306 306 304 303 302 301 300 301 301 300 299 299 298 297 298 299 300 300 300 300 300 299
320 320 323 324 324 325 326 327 327 324 320 327 326 324 322 318 316 315 315 314 313 312 310 307 306 306 305 305 304 302 301 302 303 305 304 303 302 301 300 301 301 300 300 299 299 299 299 299 300 300 300 300 300 300
321 323 323 324 325 327 327 323 322 327 327 327 326 325 323 318 313 314 315 315 313 311 309 307 306 304 304 303 303 303 302 301 302 302 302 302 301 301 301 300 301 300 300 300 301 300 300 300 300 300 300 300 299 299
323 323 324 325 327 329 326 323 324 328 329 329 328 324 321 319 317 315 313 312 311 311 308 307 306 303 302 301 301 302 301 301 302 301 302 302 301 301 301 301 301 300 300 300 300 300 300 300 300 299 299 298 298 298
325 325 326 326 329 327 327 326 329 330 328 327 326 324 323 323 322 315 312 311 311 310 308 305 304 302 301 301 301 301 301 298 298 298 298 299 299 299 301 301 301 300 300 300 300 299 300 299 299 299 299 299 299 299

GFSWCAN_925_thetae_057.txt.gz
Theta_e
320 314 307 305 304 305 306 309 310 309 309 309 309 309 309 308 310 314 317 315 316 319 317 316 315 316 316 315 318 315 317 315 313 313 312 312 312 312 312 311 312 313 315 318 317 320 317 311 312 316 313 310 310 311
319 313 307 305 304 304 306 309 309 310 310 309 309 309 309 309 309 313 317 316 315 316 318 317 317 315 314 314 315 314 316 315 313 314 312 312 312 312 313 313 312 312 313 312 311 313 310 310 309 308 308 308 308 308
318 313 307 304 304 304 305 309 309 311 311 310 309 309 309 309 309 309 312 316 317 318 319 319 318 317 314 314 313 315 315 314 314 313 312 312 311 312 313 314 313 311 309 310 308 310 309 308 307 307 306 307 306 306
317 312 306 304 304 305 306 310 309 310 311 311 310 309 309 309 309 309 312 315 317 317 321 321 317 316 315 314 313 313 314 314 314 312 314 312 311 311 312 312 311 310 309 310 309 309 308 308 306 305 305 304 306 308
316 310 305 304 304 305 306 309 310 309 311 311 311 310 309 309 310 310 312 315 316 317 320 319 318 317 317 316 315 314 314 315 316 316 316 316 312 311 310 311 310 308 310 310 309 308 308 307 306 305 304 305 306 307
315 308 305 304 305 305 306 308 310 309 310 311 311 311 310 310 310 312 318 318 316 317 318 321 319 319 318 316 316 317 316 316 315 316 317 315 314 313 315 315 312 309 310 309 309 307 308 307 306 305 305 304 304 306
313 306 304 304 305 305 306 308 308 308 309 312 311 311 311 310 310 315 318 316 315 315 318 322 322 320 318 317 318 318 317 317 317 317 317 316 314 313 315 313 313 310 310 310 309 308 308 307 307 305 305 303 303 304
310 306 304 304 305 305 306 307 311 311 310 312 311 310 310 310 310 311 315 316 315 316 317 322 322 325 320 324 324 319 318 317 318 317 316 315 315 314 315 313 312 311 309 309 308 308 307 308 307 306 305 304 304 305
307 305 304 304 305 305 306 306 307 312 311 311 311 310 310 311 315 317 316 315 314 315 320 324 326 325 322 323 322 319 318 320 319 320 318 317 315 308 310 313 313 311 309 309 309 308 308 308 307 307 305 304 303 303
306 305 304 304 305 305 306 306 307 310 312 311 311 314 320 320 317 317 313 315 314 315 317 322 322 325 323 322 323 322 320 320 323 320 318 317 311 312 315 314 313 311 310 309 309 309 308 308 308 307 306 305 303 303
305 305 304 304 305 306 306 306 307 311 311 313 320 324 320 318 317 320 324 323 323 324 322 322 322 324 321 323 324 321 321 320 322 320 320 316 315 317 315 314 313 312 311 309 308 308 308 308 308 307 307 306 305 304
305 304 304 305 305 306 311 311 308 311 317 318 314 315 317 321 324 326 328 325 326 326 322 323 324 323 323 322 319 316 321 320 321 319 319 317 317 316 315 314 311 312 312 311 310 309 309 309 308 307 307 306 305 305
305 304 304 305 305 309 311 309 308 313 315 314 319 323 326 327 326 327 325 323 325 327 325 324 323 327 325 321 317 320 320 319 317 316 315 317 318 316 314 314 312 311 311 311 311 310 309 309 307 307 307 307 306 305
305 305 305 305 306 308 309 308 308 309 310 322 328 318 328 329 327 327 327 327 325 324 324 324 325 326 322 321 320 318 318 319 320 320 318 318 316 316 314 314 313 312 311 312 311 310 310 307 308 307 307 306 306 306
304 305 306 307 308 310 312 311 309 309 317 326 327 321 326 326 328 326 326 327 325 324 324 324 323 322 320 319 317 317 317 318 319 320 318 317 316 315 315 312 312 310 311 311 310 309 309 309 308 308 307 307 306 306
305 307 315 313 313 312 310 310 310 315 322 325 325 325 325 326 326 324 324 325 323 324 326 324 322 321 319 318 317 317 317 318 318 318 317 316 315 314 314 314 312 312 309 309 310 309 309 307 307 308 307 307 307 307
306 310 315 311 310 312 313 315 319 322 325 324 326 325 326 327 325 326 324 322 323 322 323 321 322 321 319 319 318 316 318 318 316 317 316 315 316 314 313 313 312 310 312 309 307 310 308 307 305 305 307 307 308 307
311 314 311 310 307 312 317 315 323 325 326 326 327 328 327 327 328 328 325 325 325 324 323 321 321 321 320 319 319 318 318 316 316 317 312 314 315 313 312 313 311 310 310 311 311 309 307 307 309 305 308 307 306 306
305 306 305 305 304 311 324 324 321 323 324 326 327 327 328 327 325 326 325 326 323 323 323 323 320 321 321 319 318 318 319 317 317 317 314 313 314 312 310 308 308 310 312 309 308 307 306 308 305 305 305 306 306 306
307 312 311 312 310 316 324 325 325 330 327 329 329 329 330 331 330 326 326 324 325 324 322 320 320 321 320 319 318 316 317 317 315 315 314 312 309 309 310 308 309 308 309 309 307 306 306 305 305 304 305 304 305 305
315 319 319 318 313 317 322 326 330 330 329 331 326 326 326 329 328 326 324 325 321 321 321 320 319 320 319 318 316 316 317 315 315 314 314 312 310 308 307 307 307 305 305 305 306 305 305 305 304 304 304 305 304 304
321 321 322 318 322 325 326 324 324 330 328 328 329 326 328 327 328 325 325 325 323 322 321 320 320 320 320 319 317 316 315 314 313 312 309 309 309 308 307 306 307 306 305 305 305 303 302 302 303 303 304 303 303 304
319 320 322 324 327 323 323 325 328 326 329 330 330 330 331 327 328 326 326 323 324 323 322 321 320 317 317 314 316 314 313 314 313 311 309 308 307 305 304 303 303 305 305 304 305 305 305 302 303 304 304 304 304 303
318 320 325 324 326 323 326 328 327 327 328 328 330 330 329 330 326 327 325 323 322 320 320 322 321 321 319 319 318 315 310 310 309 308 307 307 306 305 304 302 303 303 305 304 303 304 304 304 303 303 303 303 303 303
321 319 321 313 325 327 328 328 330 329 329 329 328 328 326 325 328 328 325 323 322 320 318 316 315 312 310 309 308 307 308 308 307 306 306 305 304 304 304 302 303 303 302 304 304 301 301 303 303 303 302 303 302 303
317 321 318 320 322 321 324 326 330 331 329 327 328 327 326 326 328 327 326 323 323 319 314 312 311 310 308 307 307 308 307 305 304 304 303 303 304 304 303 302 303 303 302 302 303 303 303 302 302 302 302 302 301 302
318 321 323 325 324 323 327 327 328 329 329 328 327 325 326 321 322 326 321 321 322 311 308 307 307 306 307 306 305 305 304 303 303 302 301 301 301 301 300 300 300 302 302 302 301 302 302 302 302 302 301 301 301 301
319 321 323 325 326 325 325 326 330 328 325 324 325 328 328 325 324 323 320 318 312 308 307 306 305 305 305 305 305 305 304 304 304 302 301 301 300 299 299 299 299 300 302 301 302 302 302 301 301 301 301 301 301 301
319 320 322 324 325 326 328 329 326 326 324 324 326 329 328 326 320 318 316 314 312 309 308 308 307 305 304 303 303 302 303 306 306 306 304 302 301 301 301 301 300 300 298 297 297 297 298 300 300 301 300 300 300 299
318 318 320 322 325 327 329 327 327 324 324 323 321 322 321 319 316 315 315 315 315 312 308 307 306 306 306 305 303 302 302 304 303 304 304 302 301 301 301 301 300 300 299 299 299 299 300 301 301 300 300 299 300 299
319 320 322 324 327 327 326 325 325 325 326 325 322 324 323 318 317 316 316 316 313 311 308 307 305 304 304 304 304 303 302 303 302 302 302 302 301 301 301 301 301 300 300 301 301 301 301 301 300 300 300 299 298 298
322 324 324 330 329 329 325 325 326 329 327 325 325 321 320 321 317 317 314 313 312 311 308 306 305 303 302 303 302 302 302 301 301 302 303 302 301 301 301 301 301 300 301 300 301 300 300 300 299 299 298 299 299 299
327 328 329 330 329 328 325 325 324 327 326 328 327 324 323 322 320 316 314 313 312 309 306 304 303 302 302 302 301 301 300 299 299 299 300 300 300 300 300 301 301 301 300 300 300 300 300 299 299 299 299 299 299 299

GFSWCAN_925_thetae_060.txt.gz
Theta_e
323 320 313 307 305 304 305 308 309 311 310 310 309 309 309 309 312 315 317 315 314 311 312 314 313 313 313 309 311 310 309 308 307 306 309 309 310 310 309 309 310 311 309 312 310 315 316 309 310 311 309 307 307 306
323 319 313 307 304 304 305 308 309 310 311 310 310 310 309 309 309 311 316 316 316 313 312 316 317 317 313 312 309 309 308 309 307 308 308 304 309 310 309 310 311 309 307 307 311 308 307 306 307 305 306 306 305 305
322 318 313 306 304 304 306 308 310 309 311 310 310 310 310 309 309 309 311 314 315 311 312 314 315 317 314 313 313 311 308 308 308 306 305 307 308 306 309 310 310 310 306 308 308 306 306 307 307 306 305 305 303 303
322 317 312 306 304 305 306 307 309 309 309 310 311 311 310 309 309 309 310 311 314 313 315 314 317 315 315 314 313 313 311 312 309 306 306 308 309 304 302 306 309 306 308 308 308 307 307 307 306 307 306 305 304 304
321 317 310 305 304 305 306 307 308 309 308 310 310 311 311 310 310 311 312 315 315 316 315 313 315 316 316 314 313 313 313 310 309 312 310 311 308 306 306 308 309 307 307 309 306 305 306 306 305 307 306 305 305 304
321 316 308 305 304 305 306 307 308 308 308 310 311 311 311 311 311 313 312 317 315 316 316 315 314 315 317 315 313 312 311 309 309 310 310 314 309 307 308 311 306 304 305 305 306 305 305 307 306 307 305 305 304 304
320 315 306 305 304 305 306 306 309 310 308 308 310 311 311 311 311 312 314 315 315 315 316 318 315 316 317 317 315 312 315 312 310 310 311 310 310 308 306 305 307 306 306 306 306 306 307 306 306 306 306 305 303 303
319 311 305 305 305 305 306 306 306 308 312 310 311 311 310 310 310 311 314 314 315 314 315 318 318 318 316 317 318 315 316 313 312 313 310 310 308 306 305 307 308 308 307 306 306 306 306 305 306 306 306 305 304 303
316 307 305 304 304 305 305 306 306 306 309 311 311 310 310 311 312 315 315 315 314 315 316 319 319 321 319 321 319 319 317 318 316 317 313 312 306 305 306 307 308 308 307 306 305 305 305 306 307 306 306 305 304 304
310 305 305 304 304 305 305 306 306 306 309 310 312 313 313 317 317 315 312 310 310 310 311 313 315 318 316 318 317 320 318 320 319 318 314 310 308 306 306 308 309 307 306 306 308 306 305 305 305 305 305 305 304 304
307 305 305 305 305 305 306 309 310 308 310 312 314 316 318 316 316 314 317 318 318 319 314 314 315 317 315 315 315 316 317 315 317 317 318 313 310 312 312 312 309 307 307 306 306 306 305 305 305 305 305 305 305 304
306 305 305 305 305 305 310 310 310 308 314 315 313 314 315 315 318 322 323 321 322 321 320 319 318 317 316 317 315 312 318 318 315 314 312 312 310 314 311 311 310 308 309 309 309 308 308 307 308 306 306 305 305 305
304 304 304 304 305 306 310 311 308 310 314 312 314 318 320 320 320 326 323 321 320 320 321 320 321 317 315 311 311 314 318 316 310 313 311 309 313 315 311 309 309 308 310 309 309 308 309 309 308 307 306 306 306 305
304 305 305 305 306 306 308 308 308 308 309 315 323 315 323 324 326 326 326 324 322 321 319 318 318 317 315 315 314 317 314 316 317 313 314 313 311 311 310 309 309 308 308 310 310 310 309 309 308 307 306 306 306 305
304 305 305 308 310 309 309 312 311 309 313 320 322 318 322 323 324 324 321 322 321 319 318 318 317 314 314 315 313 312 315 315 312 311 311 310 309 310 309 307 307 308 307 307 308 308 307 307 306 307 306 307 306 306
305 308 314 312 311 310 311 312 310 311 318 320 321 322 319 324 322 323 321 320 317 317 316 316 316 316 316 314 315 315 314 311 312 310 310 309 310 310 307 307 307 308 307 307 307 308 308 307 306 306 307 306 306 305
306 308 312 310 309 306 311 315 315 316 322 324 322 319 321 324 324 323 318 318 317 315 316 315 318 319 314 316 316 313 313 311 311 310 310 309 309 312 311 308 308 308 307 307 306 306 305 305 305 303 305 306 306 304
311 314 312 309 306 309 315 313 318 325 326 323 322 321 324 322 320 319 320 318 317 316 315 318 315 318 317 317 313 312 311 310 309 309 307 307 309 309 311 310 309 308 308 307 307 307 306 305 305 303 306 306 305 304
305 306 305 304 304 306 317 320 317 321 320 319 319 322 325 324 322 320 319 319 317 316 314 316 317 316 315 312 312 311 311 310 310 309 306 309 309 307 307 308 308 307 307 306 306 305 305 304 304 305 305 305 305 304
306 308 316 313 307 308 317 320 322 323 326 324 323 323 323 321 323 323 319 318 317 317 316 316 314 313 313 311 310 309 310 308 307 308 307 305 307 307 307 306 305 304 306 306 305 305 305 304 304 304 305 305 304 305
309 317 317 316 310 312 316 319 324 325 324 325 322 322 324 322 323 321 319 316 320 315 316 312 313 313 314 314 315 314 311 310 308 307 307 305 307 305 306 306 305 304 304 304 303 303 303 303 303 303 303 304 304 305
310 319 319 316 317 321 317 320 318 320 322 322 321 322 323 322 323 321 319 319 317 316 315 313 313 313 314 314 313 314 314 312 308 308 305 304 301 303 303 304 304 303 304 302 302 302 303 303 304 303 303 304 304 304
316 319 320 322 322 317 316 323 325 323 324 324 323 327 327 327 325 321 322 319 317 315 315 315 314 316 313 315 315 313 312 311 307 306 305 304 303 302 301 304 304 304 304 304 304 304 303 303 304 304 303 303 303 303
317 318 321 325 322 317 322 324 324 324 325 327 327 328 327 326 324 325 322 319 316 317 314 314 317 313 311 309 305 306 307 306 305 305 305 304 302 303 303 304 304 303 303 302 303 303 303 303 302 303 303 303 303 303
317 315 316 311 318 325 327 326 325 326 327 327 329 327 323 322 326 326 323 319 317 316 311 307 306 305 304 303 305 306 305 305 304 302 303 303 302 301 301 301 301 303 303 302 301 302 302 301 302 302 302 302 302 302
312 317 317 323 320 320 321 327 329 328 327 327 328 325 323 322 325 324 322 318 318 310 307 304 303 302 302 305 302 302 303 302 303 302 303 303 302 302 300 300 300 302 302 302 302 302 302 302 302 301 301 301 301 302
313 320 319 318 317 319 322 324 326 328 328 328 327 326 325 321 319 319 317 318 313 307 306 306 305 304 303 304 303 303 302 302 301 301 302 301 300 300 301 301 301 302 302 302 302 302 302 302 301 301 301 301 301 300
318 318 322 320 320 321 324 325 329 327 326 324 324 327 328 326 325 320 318 316 308 306 305 305 306 305 305 304 304 303 303 301 301 300 299 299 299 298 299 301 302 301 301 300 301 301 301 301 301 300 300 300 300 300
318 317 318 319 320 321 327 328 327 325 322 324 326 325 322 324 319 315 315 314 313 306 305 305 304 304 304 304 304 304 304 302 300 298 297 296 297 299 299 299 298 297 298 298 298 300 300 300 300 300 300 299 298 298
315 314 316 317 321 328 326 325 325 321 322 321 321 320 318 316 315 315 314 313 314 314 309 306 304 304 302 301 301 303 303 303 303 301 297 297 300 301 300 300 298 297 299 300 300 300 300 300 300 299 299 299 299 298
315 314 315 319 328 326 325 323 322 323 324 322 321 322 322 316 316 315 315 315 315 308 304 303 303 304 303 301 301 301 301 302 302 301 301 301 301 301 300 300 300 299 300 300 300 301 300 300 300 299 298 298 298 298
317 319 322 329 329 325 323 323 326 325 324 325 324 321 318 317 317 312 314 314 310 305 303 302 302 301 302 302 302 302 302 302 301 301 301 301 301 301 301 300 300 300 301 301 301 300 300 299 298 298 298 299 299 299
326 327 328 328 327 327 323 323 325 324 325 325 323 318 318 318 317 313 313 312 311 306 303 302 302 302 302 301 301 300 301 301 301 301 301 301 301 301 301 300 300 300 300 300 300 299 299 299 299 299 299 299 299 299

GFSWCAN_925_thetae_063.txt.gz
Theta_e
323 323 321 312 306 304 304 308 309 309 311 311 311 309 309 309 313 316 315 315 314 309 310 312 311 312 311 307 309 308 308 306 304 304 300 308 308 309 306 308 309 308 306 299 308 310 309 307 308 308 306 305 306 305
322 322 319 313 306 304 305 307 309 309 311 311 312 310 309 309 309 310 316 315 315 311 310 315 316 316 314 311 307 305 305 306 304 304 304 305 308 309 307 299 310 310 303 302 304 304 305 305 305 306 306 305 304 304
322 322 319 313 306 304 305 306 308 309 309 311 312 311 310 309 309 311 310 313 314 308 310 312 314 317 317 313 313 310 306 306 305 302 302 302 300 304 308 309 310 309 304 302 304 304 305 305 305 305 306 306 305 304
323 322 318 313 305 304 305 306 308 309 308 310 311 311 311 310 310 311 312 312 313 310 312 311 315 314 314 313 313 313 310 308 306 303 304 303 302 302 300 302 301 303 307 308 307 304 304 305 305 305 305 306 305 304
322 322 318 311 304 304 305 306 308 308 308 309 311 311 311 311 311 312 314 314 314 314 312 311 313 316 315 313 312 311 311 307 306 308 310 308 307 304 302 306 309 306 305 306 304 303 303 303 304 305 306 307 305 305
320 321 318 309 304 304 305 306 309 309 308 308 311 311 311 311 311 314 312 316 315 315 313 314 311 312 315 315 311 311 311 310 311 310 309 311 310 308 309 308 304 303 302 301 304 302 302 303 304 305 306 306 306 304
318 318 317 307 304 304 305 306 307 309 311 310 311 311 310 311 310 312 313 315 314 315 315 313 312 312 317 313 311 310 312 313 312 311 310 313 310 309 310 303 306 304 304 303 303 304 306 305 305 304 305 305 306 304
317 317 314 305 304 304 305 305 306 307 306 311 310 311 310 310 310 311 314 313 314 313 314 315 314 314 315 313 317 313 314 315 315 315 312 312 309 309 311 306 305 306 305 305 305 304 305 305 304 304 305 305 305 303
316 317 308 305 304 304 305 305 306 306 306 310 311 310 310 310 310 314 315 315 313 314 312 312 313 316 313 316 314 314 317 319 316 316 316 313 310 311 309 306 307 307 307 306 305 304 304 304 304 303 304 304 305 303
315 312 305 304 304 304 305 305 306 307 306 310 313 312 313 315 315 314 313 309 309 308 308 312 310 315 312 313 314 317 316 318 319 316 314 311 309 307 305 303 306 306 305 304 305 306 304 304 303 303 304 303 304 303
313 306 305 304 304 305 305 309 310 309 309 313 313 313 316 314 315 312 315 317 316 317 310 312 312 315 312 315 316 315 316 316 313 311 314 310 310 313 312 310 307 306 305 304 305 305 303 303 304 304 304 304 304 304
307 305 304 304 304 305 306 309 309 308 313 315 313 312 313 312 315 320 322 319 320 320 317 316 315 312 314 314 317 313 317 316 316 309 311 304 306 308 310 311 309 307 307 308 307 307 307 306 306 306 305 304 304 305
306 305 304 304 304 305 306 308 308 310 312 311 312 315 316 316 321 325 322 318 321 317 318 317 318 314 312 309 312 313 318 314 308 310 306 304 306 310 309 309 309 309 307 308 308 308 308 308 308 308 306 306 305 305
304 304 304 304 305 305 305 307 309 308 309 312 319 317 321 321 322 323 322 320 318 317 316 316 316 315 311 313 312 316 312 313 315 313 306 308 308 308 308 309 309 309 307 308 308 309 308 308 308 308 306 306 305 305
304 304 305 308 309 309 307 309 311 309 312 317 318 317 322 319 320 321 319 319 318 316 315 315 317 312 312 314 311 311 314 315 309 308 308 308 307 306 307 307 306 306 306 305 307 307 307 307 306 305 305 306 305 305
304 307 312 309 308 308 310 312 310 310 314 315 317 320 317 321 321 321 318 317 315 314 313 312 314 315 315 312 314 314 313 310 310 308 307 306 307 306 307 308 307 308 306 306 306 306 306 306 305 304 305 305 306 305
306 309 311 310 308 305 310 313 312 313 317 322 322 316 317 321 322 320 317 316 313 312 314 312 317 318 311 314 314 310 311 309 307 308 307 306 306 306 310 311 310 309 307 306 305 305 304 305 305 302 302 305 305 304
311 314 311 310 305 305 313 312 315 321 324 321 321 318 321 321 322 320 318 316 317 314 313 317 314 317 316 315 312 310 308 307 308 306 306 304 306 306 308 307 307 307 307 306 306 306 305 303 302 302 304 305 304 303
305 306 305 304 304 304 311 317 313 318 318 317 316 317 320 322 319 318 318 316 315 313 315 315 316 315 313 310 311 310 308 311 308 306 304 306 307 306 306 306 306 306 306 305 305 304 304 303 303 304 305 304 303 303
305 305 306 309 311 305 311 315 318 317 322 321 320 321 320 317 316 319 318 317 314 315 317 316 315 313 311 309 308 310 308 305 305 306 304 303 305 305 304 303 304 304 305 305 305 304 303 303 303 303 304 303 303 304
306 316 314 312 307 310 313 315 318 321 320 321 319 319 320 319 320 320 318 313 318 318 319 314 314 311 311 311 311 310 307 306 304 304 305 302 303 305 306 304 303 303 302 302 302 301 302 302 303 304 303 304 303 304
306 316 317 314 314 315 312 315 313 313 318 317 318 318 321 322 322 322 319 320 317 316 315 315 312 312 312 311 310 312 310 306 304 303 303 303 303 300 301 302 303 302 302 302 302 302 302 303 303 302 303 303 304 304
309 317 318 318 318 315 316 319 323 320 322 321 321 324 326 322 323 321 322 320 318 315 313 312 312 313 312 311 310 310 309 305 302 303 302 301 301 301 303 304 304 303 302 303 303 302 302 302 303 303 302 302 303 302
311 316 319 322 319 317 319 321 320 321 323 323 324 327 325 323 319 323 324 318 315 312 309 313 311 307 305 305 302 303 305 305 304 302 302 302 300 300 302 303 303 302 302 302 302 302 302 303 303 303 303 301 301 300
314 313 314 309 315 323 325 324 324 324 324 323 326 325 322 318 323 325 323 318 315 309 307 306 303 304 304 301 302 303 303 305 303 300 301 301 301 301 301 301 302 302 301 301 301 301 301 301 302 302 302 302 301 300
310 314 315 321 319 319 318 323 328 325 323 325 327 322 320 319 323 322 320 316 313 309 304 303 304 301 301 303 300 300 303 304 303 301 301 301 301 300 299 298 298 301 302 302 301 301 301 301 301 301 301 301 300 300
311 317 315 313 314 316 318 320 323 324 327 328 326 323 323 321 320 316 317 314 309 306 305 305 305 304 302 302 302 302 303 302 301 303 302 301 301 301 301 301 301 301 301 301 301 301 301 301 301 300 300 300 300 299
316 315 319 317 317 317 322 323 326 327 326 323 322 326 327 325 325 319 318 314 307 305 305 305 305 305 304 303 302 301 300 301 301 300 298 298 299 299 301 302 301 300 301 301 301 301 301 300 300 300 300 300 300 300
315 314 314 316 315 316 323 325 324 321 320 321 325 323 321 320 317 313 314 314 306 304 303 303 303 304 303 302 302 301 301 300 298 295 296 294 296 299 301 300 299 299 299 300 300 300 300 300 299 299 298 298 298 297
311 311 312 314 316 323 323 320 322 320 321 319 319 318 315 313 314 315 314 312 304 303 304 304 304 303 302 302 301 301 300 300 299 298 295 294 297 299 298 298 297 298 299 299 299 300 300 299 299 298 298 298 298 297
309 310 312 314 324 321 321 319 320 320 320 319 318 319 317 313 314 314 314 313 312 313 310 303 301 301 300 300 301 300 300 300 300 300 300 300 300 300 300 299 298 298 299 300 300 300 300 299 299 298 298 298 298 298
311 312 314 324 324 321 320 321 322 321 320 322 319 317 315 314 315 311 314 313 306 303 305 304 303 302 300 301 302 302 302 303 302 301 300 301 300 300 300 300 300 299 299 299 300 300 299 299 298 298 298 298 298 298
321 323 324 324 324 323 319 321 322 320 320 321 320 317 316 316 316 311 308 311 310 304 303 303 303 302 302 301 301 302 301 301 301 301 301 301 301 300 300 300 300 300 300 300 300 299 298 298 298 298 298 298 298 298

GFSWCAN_925_thetae_066.txt.gz
Theta_e
322 321 322 320 312 306 305 306 308 309 310 311 312 310 309 310 310 315 315 315 314 308 308 311 309 309 308 306 309 307 306 304 302 301 300 307 307 308 305 302 306 302 299 298 309 310 306 307 306 307 305 304 305 304
321 321 321 319 313 306 304 305 307 309 308 310 311 311 310 309 309 311 314 314 314 311 309 313 314 314 312 310 305 303 305 304 303 302 301 303 308 308 304 299 306 306 301 300 301 302 302 305 304 304 304 305 305 305
319 322 322 320 314 306 304 305 306 308 309 310 311 311 311 309 310 311 311 312 313 308 309 311 312 315 316 315 312 308 304 303 303 300 300 300 299 304 304 302 305 307 302 300 302 303 303 303 303 304 304 304 304 304
318 321 322 319 314 306 304 305 307 308 309 309 310 311 311 311 311 311 312 312 314 308 311 310 313 313 314 315 311 311 307 306 303 301 302 301 302 300 301 301 300 302 305 308 307 303 303 303 303 304 304 304 305 306
316 320 321 319 314 305 304 305 307 308 308 308 310 311 311 311 311 311 314 313 314 312 312 310 312 314 314 314 311 310 309 307 309 309 307 306 302 302 300 303 301 303 304 305 304 302 302 302 304 304 304 305 305 306
316 317 319 318 312 304 304 306 306 309 310 308 309 311 310 311 311 313 311 314 314 314 310 312 309 311 314 312 309 309 309 309 310 311 312 309 306 306 307 309 304 302 301 301 303 301 301 303 303 304 305 305 306 306
316 317 317 318 310 304 304 305 306 306 307 310 310 310 310 310 311 311 311 314 313 314 314 311 310 309 314 309 307 308 311 312 312 312 312 313 310 307 310 306 306 304 303 302 301 303 305 304 305 304 304 305 305 305
315 316 317 316 307 304 304 305 305 305 305 306 311 310 310 310 310 312 313 312 313 313 313 313 312 312 314 311 312 311 314 314 314 315 313 312 310 310 312 310 306 306 303 303 303 302 304 304 304 303 304 304 304 304
315 316 314 313 304 304 304 305 305 305 305 306 310 310 310 310 311 313 314 314 313 314 312 310 312 315 310 312 311 312 315 319 314 316 316 313 311 312 311 309 307 305 306 306 304 303 303 304 304 303 303 303 303 304
315 313 313 305 304 304 304 305 305 308 308 309 312 312 313 315 314 313 312 311 309 306 309 315 307 313 311 311 314 317 315 315 319 315 308 307 307 310 309 307 304 305 306 304 306 305 303 303 303 303 302 303 303 303
313 313 306 304 304 304 305 305 309 308 308 311 311 312 314 313 313 312 316 315 316 315 309 311 308 313 310 315 317 312 312 312 316 309 314 310 309 311 311 309 306 305 305 305 304 304 304 304 303 303 303 304 304 304
311 306 304 304 304 304 305 307 308 307 310 313 312 312 313 311 314 319 321 320 320 319 314 315 314 312 311 310 314 311 317 315 315 308 312 306 305 305 308 309 309 307 307 306 305 305 305 304 305 304 304 305 305 304
306 304 304 304 304 304 305 306 308 310 311 310 311 313 312 314 319 323 319 319 321 318 317 317 317 312 312 308 313 314 318 316 307 311 308 303 305 305 306 307 308 308 307 307 307 307 307 306 307 306 306 307 306 304
304 304 304 304 304 304 305 305 307 308 308 308 317 320 323 319 320 319 320 319 317 315 315 314 315 315 310 314 310 315 311 311 316 313 305 306 307 306 306 307 308 308 307 307 307 308 308 307 308 308 307 305 305 304
304 304 305 309 309 309 308 306 307 309 310 313 315 315 319 319 316 318 319 319 316 314 313 314 314 312 314 315 310 310 314 315 310 308 306 306 306 305 306 306 304 306 307 306 306 306 307 308 307 306 305 305 305 305
304 305 311 308 306 306 309 310 310 309 311 312 314 318 315 318 318 320 319 318 313 313 311 311 314 315 315 312 314 314 313 311 309 306 306 305 306 305 305 305 307 308 307 307 306 305 305 305 305 305 304 304 305 305
304 310 309 309 307 305 309 311 310 311 313 318 318 314 314 315 318 317 319 320 312 314 314 312 316 316 311 314 314 309 310 309 307 307 306 304 305 305 305 306 307 305 305 305 304 304 303 303 303 301 302 304 305 304
310 313 310 310 307 304 311 311 313 318 320 317 317 314 314 315 318 318 317 315 316 312 311 316 313 317 316 316 314 310 308 306 306 306 305 303 304 304 306 305 306 306 306 306 306 305 305 304 304 302 302 304 304 304
304 306 307 305 304 304 307 315 311 315 316 316 315 314 316 318 317 316 315 314 313 312 313 314 317 316 315 312 310 308 309 308 308 305 303 303 303 304 305 304 303 303 303 304 303 304 303 303 302 301 301 304 303 303
305 305 305 305 305 304 307 310 315 314 317 318 314 317 318 317 314 316 316 314 312 314 317 319 318 316 312 311 306 307 307 305 304 305 303 301 303 304 303 303 303 302 302 302 302 302 302 303 303 302 303 303 302 303
305 311 314 310 308 307 311 313 316 317 318 319 317 316 317 316 318 320 319 313 318 319 319 317 315 312 309 309 308 308 305 304 304 303 303 302 302 304 303 303 302 301 300 299 300 300 303 303 302 304 303 302 301 303
305 310 315 312 311 310 309 311 311 309 313 315 316 315 318 319 319 319 317 319 320 317 316 315 313 311 309 309 308 308 306 304 303 303 303 302 300 300 301 301 301 300 301 301 301 300 302 303 302 303 303 302 302 303
306 311 316 314 318 315 315 316 319 319 320 319 318 322 322 319 318 317 322 320 319 313 313 310 311 312 309 308 308 304 303 303 301 301 300 300 299 300 301 301 301 301 299 301 301 301 301 302 302 302 301 301 302 299
305 313 318 321 319 316 317 319 319 322 321 321 322 326 323 320 316 318 320 316 314 309 311 311 309 305 303 303 301 302 303 303 300 299 299 300 299 300 301 300 301 301 300 300 301 301 302 302 302 302 301 299 298 298
313 312 313 309 313 321 324 324 323 323 325 323 325 324 319 316 321 324 322 316 311 311 312 305 304 303 302 300 299 301 303 302 300 299 300 301 301 300 300 301 301 301 301 301 300 300 300 301 301 302 302 301 299 298
309 311 314 319 318 318 317 321 325 323 321 324 325 319 316 317 322 322 320 315 312 309 305 304 302 301 300 301 299 300 302 303 302 300 300 300 299 299 298 298 298 301 301 301 300 300 300 300 300 300 300 299 299 299
309 313 312 310 313 314 315 315 321 322 325 326 322 321 324 323 322 317 316 314 310 308 306 306 305 303 302 302 302 303 303 302 302 302 301 301 300 300 301 300 300 301 301 301 301 301 300 300 300 300 299 299 298 297
314 314 318 315 315 315 319 320 323 324 323 321 321 326 326 325 324 316 316 313 310 306 305 305 305 305 305 304 303 302 301 301 301 299 299 299 299 299 301 300 300 301 301 301 300 300 300 300 300 299 299 299 299 297
311 312 312 314 313 313 315 318 322 319 318 318 324 325 323 318 316 312 315 313 306 304 303 303 303 303 303 301 301 301 300 301 298 296 296 295 296 300 300 299 299 300 300 300 300 300 299 299 298 298 298 297 297 297
308 308 311 311 312 314 318 318 319 318 317 318 318 316 313 311 312 313 313 307 303 303 304 303 303 303 300 299 299 298 299 299 299 299 296 296 297 298 299 298 297 297 298 299 300 299 299 299 298 297 298 298 297 297
307 308 310 309 316 319 319 317 318 318 318 317 316 317 315 312 313 313 312 309 305 304 302 301 301 302 301 300 299 298 298 299 298 299 300 300 300 299 299 298 298 299 299 300 300 300 299 299 298 297 297 298 297 297
310 311 312 319 322 319 318 321 322 319 319 320 317 315 314 314 314 310 313 312 309 307 306 304 301 301 302 303 303 302 303 302 300 299 300 300 300 300 300 299 299 298 298 298 299 299 299 298 297 298 298 298 298 298
312 317 320 321 320 321 318 321 320 318 318 319 318 317 316 316 317 310 308 309 310 309 308 307 305 303 302 302 302 302 302 302 302 300 300 300 300 300 300 300 300 300 300 299 300 300 298 298 297 298 298 298 298 298

GFSWCAN_925_thetae_069.txt.gz
Theta_e
318 320 321 321 320 313 306 305 306 308 308 310 311 311 310 309 309 313 314 314 314 316 314 312 312 313 311 312 316 312 313 310 309 313 312 311 313 311 310 309 312 313 317 318 315 316 317 311 309 313 311 308 308 307
316 317 321 321 321 315 307 304 305 307 308 309 310 311 311 309 309 311 313 312 313 315 315 311 312 312 313 313 313 310 312 311 310 311 309 309 312 310 311 316 309 314 312 316 314 315 310 310 309 308 307 308 307 306
315 316 318 321 321 317 308 304 305 307 307 308 310 311 311 310 311 312 312 313 313 315 315 315 316 314 315 313 312 314 310 310 310 307 309 310 313 311 314 313 312 311 307 313 310 311 309 309 308 308 308 307 306 306
314 315 317 319 321 317 308 304 306 308 308 308 309 310 311 311 311 311 313 313 313 312 317 314 312 314 313 313 311 311 310 307 307 308 311 312 314 308 313 311 312 311 310 312 311 311 308 308 309 309 308 307 307 307
314 315 316 318 319 317 307 304 306 308 308 307 308 310 310 311 311 311 313 313 314 315 319 319 314 313 313 312 311 310 310 309 312 314 314 315 309 309 308 309 313 310 312 314 318 312 311 310 309 308 309 308 309 309
315 315 316 317 318 317 305 304 306 306 308 310 309 309 310 310 311 313 317 314 314 314 317 318 313 314 314 310 311 311 310 311 312 315 315 311 308 313 313 313 313 310 310 311 311 309 309 309 309 308 309 309 308 309
315 315 316 316 317 316 304 304 305 306 306 306 308 310 310 310 310 313 317 314 313 313 317 317 316 314 314 310 311 312 312 314 316 315 316 317 314 311 312 315 313 311 310 309 308 308 309 308 310 309 308 309 308 308
314 314 315 316 315 312 304 304 305 305 305 305 307 310 310 310 310 312 313 312 313 314 315 317 318 318 315 319 320 315 316 316 315 317 315 314 311 309 310 311 313 312 310 309 308 308 310 309 309 309 308 308 310 309
313 314 315 315 314 305 304 304 305 305 304 306 309 310 311 311 314 313 314 313 312 314 318 317 319 322 315 318 318 319 318 321 317 319 317 313 313 312 312 314 314 312 310 311 309 308 308 309 310 310 310 310 309 309
313 314 314 314 308 303 304 304 305 306 308 308 311 312 318 315 313 313 313 314 315 314 315 316 314 320 317 318 320 320 319 320 321 317 312 314 314 314 313 311 312 312 309 309 310 310 310 310 311 311 310 309 309 309
312 312 313 306 303 303 304 305 306 307 307 310 314 318 314 313 313 315 319 318 317 317 315 315 315 320 315 322 322 318 319 319 320 317 315 313 313 316 314 314 313 313 308 310 311 311 311 311 311 309 309 308 308 308
313 310 305 304 304 304 304 305 307 307 309 312 313 312 313 315 317 320 323 321 320 323 319 320 318 316 318 316 320 317 320 317 317 314 315 312 317 313 312 314 314 313 311 311 310 311 310 309 309 309 310 309 308 309
305 304 304 304 304 304 304 304 307 311 311 310 311 315 317 318 320 323 325 323 324 323 322 320 323 319 316 315 317 318 319 318 314 316 313 314 316 313 313 312 313 312 312 311 312 311 311 310 310 309 309 310 309 308
304 304 304 304 304 304 304 304 305 308 308 311 319 316 322 322 322 324 325 326 322 322 322 321 321 322 316 318 317 319 317 316 316 316 316 316 316 314 313 312 313 313 312 312 312 311 311 311 310 310 310 310 309 308
303 304 304 308 308 308 308 305 305 309 310 314 318 317 323 323 323 323 322 322 322 320 320 320 319 319 318 317 315 315 317 317 318 318 316 317 314 313 314 313 312 311 312 312 310 310 310 310 310 310 310 308 307 308
304 306 309 306 306 307 308 306 308 309 311 313 315 320 322 323 325 324 324 325 319 319 318 318 320 319 319 316 316 318 317 317 315 316 316 314 314 313 313 312 312 311 311 310 309 308 308 307 306 307 307 307 307 307
305 310 308 307 305 305 309 310 309 312 314 317 319 318 316 319 320 321 323 325 319 321 324 320 321 320 315 316 317 314 318 317 316 316 314 312 312 312 311 311 310 309 308 308 308 308 307 307 306 306 306 306 307 307
310 311 308 308 306 304 309 309 313 316 319 318 319 316 320 322 324 324 324 320 320 321 318 319 316 319 315 314 317 317 316 313 313 314 313 312 311 310 309 309 307 306 306 306 306 306 304 302 301 303 302 304 306 306
304 305 307 308 305 304 306 314 312 316 318 320 321 321 323 324 323 322 322 319 319 317 317 318 319 318 314 315 315 316 315 315 316 313 311 308 308 309 308 307 306 305 305 306 306 306 306 305 304 301 302 305 306 305
305 305 305 305 304 306 308 311 314 318 323 322 319 322 324 326 321 321 322 322 320 319 320 321 319 316 316 316 315 315 314 313 313 313 311 309 307 308 307 306 304 304 304 305 304 304 305 305 305 303 303 304 305 305
305 309 311 307 305 306 311 316 319 321 324 325 324 324 327 323 323 323 324 316 319 321 321 319 319 317 316 313 311 312 311 311 312 311 310 308 307 306 306 304 303 304 304 304 305 304 304 305 304 303 303 303 303 305
305 306 312 310 312 310 311 312 315 315 315 320 321 323 325 326 325 324 321 323 323 319 319 319 319 317 314 315 312 310 308 307 307 305 304 303 304 305 304 304 303 304 304 304 304 304 301 302 303 303 303 302 303 302
305 307 313 314 318 317 318 316 322 323 324 324 324 327 327 326 324 321 326 324 321 314 315 313 313 313 312 310 306 305 306 307 306 304 303 302 303 304 303 303 303 303 304 303 303 302 300 302 302 303 303 303 301 300
305 314 319 321 320 318 320 324 323 325 325 326 327 328 326 324 322 323 324 320 315 313 314 311 309 311 311 310 309 306 305 304 303 302 302 303 304 303 302 303 302 302 302 302 303 303 303 303 303 303 302 301 301 301
315 315 314 311 317 321 327 327 326 326 326 326 327 328 326 322 324 325 324 315 315 316 312 309 310 311 310 308 307 305 303 303 304 304 302 302 302 302 302 302 302 301 302 302 302 303 303 303 304 303 303 302 301 301
310 313 317 322 322 322 320 323 324 326 326 326 327 323 322 323 323 324 322 317 315 312 308 311 310 309 307 306 306 305 305 303 303 302 301 301 301 301 302 302 303 302 301 302 302 302 302 302 303 302 301 300 299 300
311 315 315 315 318 318 320 320 321 325 327 328 327 325 325 324 323 322 319 316 313 310 308 309 308 307 306 304 303 303 303 302 303 302 301 300 300 301 302 302 302 302 301 301 301 302 302 301 301 301 301 300 299 300
318 317 319 318 319 320 322 321 323 326 327 325 324 326 325 326 325 321 317 312 308 306 307 306 305 305 305 304 303 302 301 300 299 299 299 299 299 300 300 299 301 300 301 301 301 301 301 301 300 300 300 299 298 298
315 316 317 318 317 316 317 319 323 325 324 325 326 325 325 323 320 318 316 309 305 305 306 305 304 303 302 302 301 301 300 300 300 301 301 301 301 301 299 298 299 300 300 300 299 300 300 299 299 299 298 298 298 298
313 313 315 315 315 315 318 321 325 323 322 323 322 320 318 316 315 312 309 305 305 306 306 306 304 304 304 303 302 300 300 300 300 301 302 301 300 300 300 299 298 298 300 300 300 299 299 299 298 298 299 299 298 298
312 312 313 313 314 321 323 322 321 321 322 323 321 322 320 317 314 313 311 307 306 305 305 305 303 304 304 303 302 302 301 300 299 299 300 300 300 299 299 298 298 299 300 300 300 300 300 300 299 299 299 299 299 299
315 314 315 317 324 324 323 325 325 326 325 324 323 321 319 318 319 316 313 311 307 306 304 305 304 304 303 303 303 302 302 302 300 299 299 300 300 300 299 299 298 298 299 298 300 300 300 299 299 299 299 299 299 299
317 315 315 321 325 326 325 325 325 323 323 324 324 321 321 321 322 317 311 311 311 310 308 306 304 304 303 303 302 302 302 302 301 300 300 300 300 300 300 299 299 299 300 300 300 300 300 299 299 299 299 299 300 300

GFSWCAN_925_thetae_072.txt.gz
Theta_e
319 317 317 319 320 320 315 307 304 305 307 308 310 311 311 309 309 313 317 315 319 318 318 316 316 317 316 317 316 317 316 314 313 316 317 320 320 318 317 317 316 318 322 323 321 322 325 315 314 318 317 313 312 312
317 316 316 317 320 320 318 308 304 305 307 307 309 311 311 310 311 312 317 314 315 319 320 316 316 316 316 317 316 316 315 314 313 314 315 316 319 316 318 321 314 320 318 322 320 321 316 315 314 313 312 313 311 311
315 315 315 316 318 320 319 309 304 306 307 308 308 310 311 311 312 313 316 316 318 319 319 318 319 316 316 316 316 318 315 315 315 314 313 314 318 316 321 320 317 315 314 318 317 314 314 315 312 312 311 311 310 309
314 314 314 316 317 319 318 309 304 306 308 308 308 310 311 311 312 312 317 315 317 318 319 319 317 318 316 316 317 316 316 314 315 315 317 317 319 314 318 318 318 316 315 316 317 315 313 313 313 312 311 311 310 309
313 314 314 316 317 318 318 308 304 306 308 308 307 309 311 311 311 313 315 316 317 320 320 319 317 316 317 317 317 316 314 314 314 316 316 318 316 315 315 315 319 315 316 320 322 316 316 313 313 312 312 311 310 310
314 314 314 315 316 317 318 307 304 306 306 308 310 310 310 310 311 315 321 317 316 317 321 320 317 319 317 316 317 317 316 316 317 316 318 315 314 314 319 319 317 316 315 316 316 314 313 312 312 311 312 311 310 310
313 314 315 315 316 316 317 306 305 305 306 306 306 308 310 310 312 316 321 317 315 316 320 319 320 319 318 316 317 317 315 316 317 318 318 319 316 314 314 318 317 317 316 315 314 313 313 312 312 311 311 310 309 309
314 314 314 315 315 315 314 304 305 305 305 305 306 310 310 310 311 315 315 312 314 318 318 321 320 321 319 322 323 318 320 318 318 319 318 319 313 312 314 316 317 315 314 314 314 312 312 312 311 312 311 311 312 312
313 314 313 314 314 314 307 304 304 305 305 307 308 311 312 313 319 318 315 314 314 318 322 322 326 325 320 323 322 321 320 323 320 321 320 318 317 316 318 318 316 315 315 315 315 313 312 312 312 312 312 312 312 311
311 313 313 313 313 307 303 304 304 305 308 309 311 317 323 319 314 314 316 319 319 319 319 323 321 326 322 323 323 323 322 321 322 321 315 318 319 318 318 318 316 314 315 313 314 315 313 312 312 312 313 312 311 310
311 312 312 312 306 303 304 304 305 306 307 311 318 321 317 314 317 318 322 322 321 323 322 321 321 324 320 325 324 322 321 321 321 319 318 317 317 317 317 317 316 315 314 313 312 313 312 312 312 313 313 311 311 310
312 311 306 303 303 304 304 305 308 309 312 315 316 315 316 318 320 322 323 323 322 328 325 324 324 320 322 321 323 321 322 320 319 318 318 319 318 316 316 317 317 315 315 315 313 314 313 313 312 312 312 312 312 310
306 304 304 303 303 304 304 304 308 312 311 312 315 318 320 321 323 325 328 329 329 327 326 325 326 323 319 321 322 322 321 319 316 319 320 318 317 316 317 316 316 315 315 315 315 314 313 313 313 313 312 312 312 311
304 304 304 304 304 304 304 304 305 308 310 315 318 321 323 324 325 327 328 328 326 326 326 327 326 326 322 323 322 322 320 318 317 316 322 317 316 316 316 316 316 315 315 315 315 314 313 313 313 312 312 312 311 311
303 304 305 307 307 308 308 305 304 308 313 315 317 320 320 322 326 326 327 327 326 325 326 325 325 325 324 323 320 318 318 319 319 319 315 317 317 316 316 315 315 314 314 314 312 312 312 312 312 312 312 312 311 311
306 307 308 306 306 307 307 305 306 311 314 315 316 318 319 323 321 325 327 328 326 326 324 326 326 325 324 321 317 317 318 318 315 315 318 317 317 316 316 315 314 312 311 311 310 309 310 310 310 310 309 309 311 310
306 311 307 306 307 306 308 311 312 315 316 317 317 316 316 315 317 318 322 325 325 325 327 324 324 323 319 319 317 316 318 317 316 317 317 318 317 316 314 312 311 309 309 309 308 308 308 307 306 307 309 308 308 309
310 310 307 308 308 307 310 310 315 318 319 319 318 316 318 320 322 323 325 327 326 327 325 324 320 319 320 316 317 316 317 316 318 317 315 316 315 313 311 310 309 308 308 308 307 307 307 307 306 304 302 306 308 306
304 305 306 307 308 306 310 314 315 319 319 318 319 320 321 323 325 326 326 325 324 322 319 320 320 317 314 314 316 317 316 316 316 315 315 313 312 311 310 308 306 306 306 307 307 306 306 306 306 301 302 304 306 304
305 305 306 305 304 309 313 313 317 320 323 322 322 324 325 328 328 326 326 326 326 323 320 321 320 317 316 316 318 317 316 315 314 315 314 312 310 309 308 306 305 305 305 305 305 304 304 306 305 304 304 305 305 306
307 309 309 308 308 309 314 317 319 321 322 324 324 328 326 327 329 325 326 321 323 325 321 320 320 320 319 319 317 315 315 314 314 312 311 310 307 306 306 305 304 304 304 305 305 304 304 305 305 304 305 306 306 305
309 306 312 311 314 313 315 316 318 318 319 319 320 323 324 328 329 327 324 327 326 321 321 321 324 324 321 319 315 314 313 312 309 306 304 304 306 306 305 304 304 304 305 305 304 302 303 302 305 306 304 303 303 303
306 307 312 315 319 319 319 320 323 323 325 326 327 329 330 330 327 325 328 326 323 317 318 317 317 318 318 315 313 312 311 309 307 305 304 305 304 304 303 304 304 305 305 305 303 303 305 304 305 305 304 303 302 302
306 314 319 320 320 321 322 325 326 327 327 329 329 327 330 328 325 325 326 321 319 318 315 313 314 318 315 313 312 310 308 305 304 304 305 304 304 303 303 304 304 303 303 305 304 305 305 305 304 303 303 302 302 301
316 317 317 313 319 323 325 326 326 326 326 326 326 328 329 326 326 326 325 316 318 320 318 315 317 318 315 312 308 307 306 305 304 305 304 303 302 303 304 303 303 303 303 303 303 303 304 304 303 303 302 302 301 301
312 317 320 322 322 323 321 322 324 325 324 324 327 328 326 327 325 326 324 318 318 317 314 316 316 313 310 307 307 306 305 304 303 303 302 302 302 303 304 304 303 303 302 302 302 302 302 302 301 301 301 300 299 301
313 316 317 318 319 320 321 322 321 322 324 325 328 327 325 322 325 324 322 317 315 313 314 313 310 308 307 306 305 304 304 304 304 303 302 301 302 303 304 304 303 303 302 302 302 302 302 301 301 301 301 301 300 299
318 317 318 318 319 319 320 320 320 320 323 328 327 327 325 323 326 323 320 315 311 310 309 308 307 306 306 305 305 304 303 302 302 302 302 301 302 302 303 302 302 302 302 302 301 301 301 301 301 301 300 300 300 299
317 317 317 317 317 316 316 317 317 324 328 329 327 327 326 325 323 321 316 310 308 307 307 307 306 306 305 305 305 305 304 303 303 304 303 303 303 302 302 302 301 302 301 301 300 300 300 300 300 300 300 300 300 300
316 315 316 315 315 314 315 317 323 327 326 326 326 324 323 322 320 319 315 309 308 308 308 307 306 306 306 306 305 305 304 304 304 304 304 303 302 301 301 301 301 301 302 302 301 300 299 300 299 300 300 300 301 301
314 314 315 315 315 316 319 321 325 325 326 326 325 326 324 322 319 318 317 312 309 309 309 309 308 307 307 307 306 306 305 304 303 303 303 302 301 301 301 301 301 301 302 302 302 302 302 301 301 301 301 301 301 301
315 315 315 316 318 325 325 327 327 327 327 326 327 325 323 322 322 320 317 316 312 310 309 309 310 309 308 308 307 306 304 305 304 303 302 302 302 301 301 301 301 301 301 301 302 301 301 301 301 301 301 301 302 302
319 317 315 315 317 325 327 328 328 328 326 326 326 324 323 323 324 322 316 316 315 313 311 308 308 309 309 308 308 307 305 305 304 303 302 302 302 301 301 301 301 301 301 302 302 302 301 301 301 301 301 301 302 302

GFSWCAN_925_thetae_075.txt.gz
Theta_e
319 319 318 317 317 318 319 316 307 305 307 307 309 312 312 310 310 315 320 319 322 321 320 317 318 319 318 319 320 319 317 317 316 318 320 325 325 323 321 323 322 322 325 326 324 325 331 319 317 319 322 319 317 316
318 317 316 315 316 317 318 318 308 304 307 307 308 311 312 311 312 314 321 319 319 322 323 318 317 318 319 319 319 317 319 316 318 318 317 320 322 320 321 325 317 323 320 328 323 326 322 319 318 319 318 318 315 315
317 316 315 314 315 317 317 318 309 304 307 308 308 310 312 312 313 314 319 319 320 322 322 319 319 317 317 317 318 321 318 318 316 318 317 318 321 319 323 322 320 317 317 321 319 318 318 317 316 315 313 314 314 312
313 314 314 314 315 316 317 317 309 305 307 308 308 310 311 312 312 314 320 319 320 320 321 323 319 319 318 318 318 319 319 317 318 318 319 319 321 319 320 320 321 319 318 318 319 317 316 316 316 315 314 313 313 312
310 313 313 314 315 316 317 317 307 305 307 309 308 308 310 311 312 314 319 319 320 323 324 322 319 319 318 318 318 319 318 319 319 319 319 320 319 320 320 320 322 320 320 324 324 319 319 317 316 315 315 313 313 312
311 314 314 314 315 315 316 316 305 305 306 307 308 310 310 311 311 318 323 319 320 320 324 323 321 319 319 319 319 319 319 319 318 320 320 322 319 319 321 324 321 319 319 319 319 318 317 316 315 315 315 314 313 313
313 313 314 314 315 315 315 314 305 305 306 306 306 306 310 310 313 319 323 320 317 319 324 322 322 321 320 319 320 321 319 319 320 319 320 320 320 318 317 321 318 317 318 319 318 317 316 315 314 313 313 313 312 312
315 314 314 314 314 314 314 314 305 305 305 306 306 309 311 311 312 316 316 314 316 321 320 324 324 324 320 322 323 321 320 320 320 322 321 322 319 318 320 319 318 317 318 317 318 316 316 315 313 314 313 313 314 313
313 313 314 313 314 313 313 306 304 305 305 307 308 312 313 315 320 321 317 316 317 321 326 324 327 330 323 323 324 323 321 325 322 324 323 321 322 323 320 319 318 319 319 318 316 316 316 314 315 314 314 314 314 313
311 311 311 312 312 312 306 304 304 305 307 309 311 318 323 321 317 316 319 320 319 322 323 327 325 327 324 325 326 327 325 324 326 324 321 322 324 321 319 318 319 319 317 316 316 317 316 315 314 314 314 314 313 313
311 312 312 312 309 305 305 305 305 306 307 313 317 321 321 317 319 320 323 323 323 327 325 325 325 327 324 327 328 325 325 323 325 324 321 322 321 319 318 318 318 318 317 315 316 315 315 314 314 313 313 312 312 312
312 311 308 306 304 304 304 305 308 310 315 317 319 319 319 320 320 324 325 325 325 329 327 326 326 325 325 324 326 324 324 323 321 319 320 323 320 319 317 317 316 317 316 316 315 315 315 314 313 313 313 312 312 312
304 304 303 303 304 304 304 305 310 312 315 316 317 319 320 322 327 325 329 329 330 328 328 328 329 326 325 325 326 325 323 321 318 320 324 321 320 318 317 316 316 315 316 316 316 316 315 315 314 314 314 313 312 312
304 304 304 304 304 304 304 304 305 310 313 318 319 326 323 325 326 327 328 330 328 326 328 330 331 328 326 326 325 324 322 320 319 320 322 318 320 318 317 317 316 316 315 315 315 314 315 315 314 314 314 314 314 313
305 305 306 308 307 307 308 306 304 310 316 319 317 321 320 320 323 327 328 327 327 326 329 329 329 328 328 326 323 322 319 318 318 320 318 322 319 318 317 316 316 315 315 314 312 312 312 311 311 312 312 313 313 313
308 309 309 306 307 307 307 306 307 313 316 318 318 319 318 319 319 322 326 326 325 326 328 329 328 328 327 324 321 319 319 319 317 317 319 320 320 318 317 316 314 313 312 311 310 309 309 309 310 309 310 310 311 312
308 312 307 308 309 307 309 314 315 317 318 318 319 318 317 317 317 316 318 321 326 327 330 328 327 327 323 322 319 318 319 317 319 318 320 320 318 317 314 312 311 310 309 309 309 309 309 308 308 308 308 308 309 310
312 310 307 308 310 311 314 312 316 319 319 319 318 317 318 318 320 322 324 329 329 328 329 328 322 319 316 315 315 317 318 317 319 318 319 318 316 314 311 311 309 308 308 308 308 308 308 308 308 308 307 305 306 307
305 305 306 307 309 308 313 316 316 320 320 318 318 319 319 320 323 324 326 327 328 326 325 324 317 317 316 317 318 318 319 317 317 317 317 315 314 312 310 308 307 307 307 307 307 306 306 308 307 306 304 304 304 307
305 306 306 306 305 311 316 317 318 321 322 322 321 321 322 323 324 325 327 328 328 327 325 321 321 320 319 318 317 318 318 315 314 316 316 313 311 310 308 307 306 306 306 306 306 306 305 307 307 304 302 304 304 305
309 311 310 310 309 312 316 319 320 320 320 321 323 324 325 329 328 329 330 329 328 328 326 323 321 320 318 320 319 317 317 315 314 313 312 311 309 308 307 307 306 305 305 306 307 306 305 306 306 304 303 304 305 306
312 308 314 315 318 318 319 319 320 320 321 321 322 324 327 330 331 331 329 329 328 325 323 322 324 324 324 322 319 317 317 314 311 307 305 305 309 308 306 305 306 306 305 306 305 306 306 306 306 305 303 302 302 302
310 309 313 316 320 323 322 320 322 322 324 326 327 329 332 332 330 327 330 328 325 322 322 322 321 320 321 318 317 316 313 310 308 307 306 307 306 306 306 305 305 306 305 305 306 306 306 306 305 305 304 304 303 303
310 314 318 320 321 323 321 325 325 325 326 328 329 328 329 332 329 328 328 321 323 321 319 318 318 319 318 317 316 313 310 307 307 307 307 306 306 305 305 305 304 304 305 305 306 307 307 305 304 304 304 303 303 303
317 316 318 318 321 322 323 324 326 326 328 328 329 329 331 329 329 328 326 321 320 319 320 318 317 318 317 315 311 309 307 307 307 307 306 305 305 305 306 305 304 304 304 304 305 305 305 304 304 303 302 301 302 302
319 319 321 320 321 322 322 323 325 327 324 325 329 330 330 326 326 327 326 323 321 321 319 319 319 318 313 310 310 308 307 306 306 306 305 305 305 306 306 306 305 304 304 304 303 303 303 303 303 303 303 302 301 302
316 317 319 318 320 321 321 322 322 323 324 326 328 328 326 326 326 325 322 320 320 318 317 315 313 311 310 309 307 306 306 306 306 305 304 304 305 305 306 306 305 304 304 304 303 303 303 303 302 302 302 302 302 301
319 318 318 318 319 319 319 321 323 322 322 325 326 328 327 327 327 324 321 318 316 314 312 311 309 308 308 307 307 306 305 305 304 304 303 303 304 305 305 304 303 302 303 302 302 303 303 303 302 302 302 302 302 302
319 319 317 318 318 318 318 319 320 320 327 326 328 328 327 326 325 322 318 314 311 310 309 309 308 307 307 307 307 306 305 305 305 306 306 306 305 304 304 303 302 303 303 301 299 300 300 301 302 302 302 302 302 302
320 318 318 317 317 318 318 317 318 323 326 325 327 326 325 325 322 319 315 312 311 310 309 308 308 308 308 307 307 307 306 305 306 306 307 306 306 304 303 303 303 304 304 304 303 301 300 300 301 301 302 303 303 303
317 316 317 317 317 317 317 319 321 323 325 326 327 327 325 324 322 320 316 313 312 312 311 310 310 309 309 309 308 308 307 306 306 305 305 305 304 303 303 303 303 303 304 304 304 304 304 303 303 303 303 303 303 303
318 318 317 318 319 321 324 325 327 329 328 328 328 326 325 324 324 322 320 317 314 313 313 312 312 311 310 310 309 309 307 307 306 305 304 304 304 304 303 303 304 304 304 304 304 304 304 303 303 303 303 303 303 303
320 318 317 317 318 320 325 327 328 329 329 329 328 325 325 324 324 323 321 320 318 316 315 313 311 312 312 311 311 310 308 307 306 305 304 303 303 303 303 303 303 303 303 304 304 304 304 303 304 303 303 303 304 303

GFSWCAN_925_thetae_078.txt.gz
Theta_e
318 318 318 317 317 316 317 319 319 309 305 307 308 310 312 312 312 312 322 321 324 327 322 318 319 320 319 320 322 321 319 319 318 319 322 330 325 325 323 324 326 323 327 328 322 326 331 320 319 320 324 321 319 319
316 317 317 316 315 315 316 318 319 311 305 308 308 309 312 313 313 314 322 322 321 322 324 320 318 318 319 321 321 318 320 320 320 320 320 323 324 321 323 326 319 325 323 332 325 330 325 320 321 322 321 320 318 318
313 317 317 315 314 314 316 318 318 311 305 308 308 309 311 312 313 314 320 320 320 322 323 320 318 318 318 318 319 322 322 320 319 318 320 319 323 320 323 323 321 320 318 322 323 322 322 322 319 319 318 319 317 316
309 309 313 314 314 314 316 318 317 309 305 308 308 308 311 312 312 313 320 321 320 323 323 324 321 319 318 318 318 320 320 319 319 318 319 321 322 321 322 321 326 322 320 319 320 319 318 317 318 316 314 314 315 313
311 310 311 313 313 314 316 317 317 307 306 309 309 308 309 311 311 312 318 321 321 324 329 325 321 320 319 318 319 319 320 320 320 320 320 321 321 321 321 321 325 320 321 326 327 320 321 320 318 317 316 314 314 314
314 313 313 313 314 314 316 316 316 305 306 307 308 309 310 311 311 316 324 320 320 321 324 324 324 322 319 320 320 320 321 320 320 320 321 322 320 321 322 324 321 320 319 321 322 322 321 319 320 317 317 316 314 314
315 314 313 313 314 314 315 315 315 305 306 306 306 306 308 310 312 320 323 321 318 320 325 326 323 323 321 320 321 321 321 320 321 321 322 321 324 319 322 324 319 318 318 318 320 319 321 320 318 316 316 315 314 313
315 314 314 313 314 314 314 314 314 306 306 306 306 308 311 312 312 316 317 316 317 321 324 326 327 326 322 322 322 321 321 322 321 322 324 325 322 320 324 320 319 318 318 318 319 318 318 319 317 315 314 315 315 314
312 311 311 312 313 313 313 313 307 305 305 306 308 312 313 315 322 322 318 316 318 322 329 326 328 328 324 324 324 325 323 327 323 325 327 324 325 322 321 320 320 318 318 319 319 318 317 317 316 315 315 314 315 315
311 311 311 312 312 312 312 307 305 305 307 309 310 317 325 322 319 317 321 322 321 323 323 328 325 331 325 325 329 327 326 327 328 326 323 325 327 322 321 320 320 318 318 318 318 318 318 318 317 316 315 316 315 314
312 312 312 312 311 308 305 307 306 306 308 313 318 322 322 318 320 321 323 324 324 327 325 325 326 327 326 328 330 327 327 327 329 327 324 326 325 320 319 320 318 318 317 317 318 317 317 316 316 315 313 315 314 314
311 310 308 306 306 307 307 305 306 308 317 316 319 320 320 321 321 325 325 325 327 329 328 326 327 325 328 325 329 326 326 325 326 321 322 324 321 320 319 317 317 318 316 316 316 317 316 315 315 316 315 315 314 314
304 304 304 304 304 304 304 308 310 313 315 319 318 320 321 322 326 326 327 329 330 328 328 328 329 331 331 329 329 327 325 325 321 322 329 322 320 321 319 317 316 315 315 317 316 316 316 316 314 315 315 315 315 313
304 304 304 304 304 304 304 304 307 311 313 321 321 319 322 324 325 326 329 330 328 328 328 330 331 332 330 327 329 325 325 323 322 323 323 321 325 321 320 317 316 315 316 316 317 315 314 313 314 315 315 314 314 313
306 307 307 310 306 307 307 307 304 310 317 320 319 320 321 320 321 324 327 327 327 328 330 333 332 330 329 329 326 323 322 322 321 320 320 325 321 321 320 317 316 315 314 315 312 312 312 311 311 311 310 310 311 312
307 308 310 307 309 307 308 307 308 313 317 318 319 320 319 319 320 320 328 326 326 329 329 331 330 331 329 326 322 319 320 321 318 320 323 321 321 319 317 315 314 312 311 311 310 310 310 310 309 309 309 308 308 309
308 313 309 307 310 309 309 312 316 318 318 319 319 318 318 318 319 319 318 319 321 328 331 329 330 329 321 319 320 319 320 320 319 321 322 322 320 317 315 312 311 310 309 309 309 308 309 309 309 309 309 308 308 308
313 311 308 308 309 313 315 313 317 319 320 320 319 318 318 318 319 320 321 324 327 331 330 329 326 326 321 319 320 320 320 319 320 320 322 319 317 314 312 311 309 309 308 309 308 308 308 309 310 309 307 307 306 306
307 306 306 306 308 310 315 317 316 319 320 321 320 319 319 319 320 320 322 330 328 327 327 326 324 323 321 319 321 319 320 319 320 320 319 316 314 312 310 310 309 308 308 308 308 307 307 309 308 306 305 306 306 306
306 306 306 307 305 312 316 317 318 320 321 320 321 321 321 323 324 326 329 326 328 331 329 327 326 323 322 320 319 319 319 317 315 317 318 316 313 312 310 308 307 308 307 308 308 306 306 308 307 305 304 303 304 307
309 312 311 312 309 312 318 319 321 320 320 321 321 322 324 329 325 324 327 331 332 330 328 326 323 321 319 319 320 319 316 318 316 314 312 313 310 309 309 308 307 307 306 307 307 307 307 306 306 305 304 304 304 305
313 311 313 315 317 318 319 318 319 320 322 322 322 322 325 330 330 331 331 332 330 328 327 326 328 326 325 323 320 318 318 314 312 307 306 306 310 309 307 307 307 307 306 306 306 307 308 307 307 305 304 303 302 303
311 312 313 316 319 321 321 319 322 322 323 325 329 329 330 329 326 328 332 329 327 325 327 326 324 323 323 320 319 318 315 312 310 308 308 308 307 307 307 306 307 306 307 307 306 306 307 306 306 306 305 305 305 304
312 315 317 318 320 322 320 323 324 324 326 328 329 328 331 330 332 331 329 325 325 324 324 323 321 321 320 319 317 315 312 310 309 308 308 308 307 307 307 306 306 306 306 307 307 306 306 306 305 305 305 304 304 304
316 314 317 317 322 323 322 323 325 327 327 327 328 330 331 332 331 329 328 325 324 323 321 321 320 320 318 317 314 311 309 309 309 309 308 307 307 307 307 306 305 306 306 306 306 306 305 305 304 304 302 302 302 303
319 318 318 320 320 321 322 323 326 326 326 327 328 331 329 326 326 328 327 323 323 322 321 321 319 319 318 314 312 310 309 308 308 308 307 307 307 308 307 307 307 305 305 305 305 304 304 304 304 304 304 303 301 302
319 318 320 319 320 321 323 322 322 324 324 326 329 330 329 328 328 326 322 322 322 320 319 318 318 319 313 311 310 308 308 308 308 307 306 306 307 307 307 308 307 305 305 305 305 304 304 304 303 303 303 303 302 303
320 319 319 320 319 319 319 320 321 322 323 325 327 329 327 327 327 324 322 320 319 319 317 315 312 311 310 309 308 308 308 307 306 305 305 306 306 307 306 306 305 304 304 303 304 305 304 304 304 303 303 303 303 303
320 321 320 320 320 320 320 320 321 322 327 326 327 329 328 327 323 322 319 317 315 314 313 311 310 309 309 308 308 307 306 306 307 307 307 307 307 306 306 304 302 304 304 302 300 301 301 301 302 303 303 304 303 304
320 320 320 319 319 319 319 319 319 321 325 325 328 328 327 326 322 319 316 314 313 312 311 310 309 309 309 309 308 308 307 307 307 308 308 308 307 306 306 305 305 305 305 304 303 302 301 302 302 303 304 304 304 304
320 320 320 320 319 319 318 318 318 322 325 327 328 328 326 325 322 319 316 314 313 312 312 311 310 309 309 309 309 309 308 307 307 307 307 306 306 305 305 305 305 305 305 306 306 306 305 304 305 305 305 305 304 304
320 320 319 318 318 319 320 322 324 331 327 332 329 328 325 326 325 323 319 316 315 315 314 313 312 312 311 311 310 310 309 309 307 307 306 305 305 305 305 305 305 305 306 306 306 306 305 305 305 305 305 305 305 305
320 319 319 318 319 319 321 324 328 331 331 330 329 328 326 326 327 324 322 320 318 317 316 315 314 313 313 312 312 311 309 309 308 307 305 305 305 305 305 305 305 305 305 305 305 306 305 305 305 305 305 305 305 305

GFSWCAN_925_thetae_081.txt.gz
Theta_e
313 317 318 318 318 316 316 316 319 320 312 305 308 308 311 312 313 313 319 322 322 327 326 320 319 321 320 323 324 320 320 321 318 320 328 331 329 328 325 323 323 325 326 326 323 325 326 321 320 325 324 319 318 318
310 311 314 316 316 315 315 316 318 320 313 305 308 308 310 312 313 314 322 322 320 323 325 322 319 318 319 320 322 319 320 322 320 322 323 326 328 322 324 326 320 321 324 324 325 326 323 321 323 322 319 318 319 316
312 310 310 311 313 314 314 316 318 320 313 306 308 308 311 312 312 313 315 322 322 324 323 321 318 317 318 318 319 323 323 320 322 319 321 322 324 322 324 325 323 321 318 322 321 324 323 321 320 319 319 318 317 315
315 313 310 310 312 314 314 315 317 318 310 306 308 308 310 311 312 312 315 321 322 325 327 323 320 319 318 317 318 320 320 319 320 319 317 321 323 321 323 322 324 322 322 320 320 319 319 319 319 317 315 316 316 314
316 315 312 310 313 313 314 315 317 318 307 307 309 309 309 310 311 311 312 320 322 324 328 327 322 319 319 318 319 320 320 321 322 322 321 321 321 321 321 321 322 320 323 323 323 323 323 321 319 316 315 314 315 313
315 314 314 313 313 314 314 316 317 318 305 307 307 307 308 310 311 313 324 321 320 321 324 329 323 321 319 318 319 320 321 322 321 322 321 321 320 320 321 325 321 320 321 319 321 320 321 320 319 320 316 314 315 314
314 314 314 313 313 314 314 316 316 314 305 307 306 306 307 309 311 318 323 320 317 317 325 329 326 323 320 320 321 321 321 322 321 322 322 321 322 319 322 323 320 318 318 320 318 319 320 319 320 317 318 315 314 314
312 313 313 314 313 314 314 315 316 313 306 306 306 306 310 312 312 314 318 317 317 320 325 328 329 326 321 323 324 323 323 322 323 322 323 325 322 322 323 321 319 319 319 318 319 318 318 318 317 317 317 317 314 314
312 312 311 313 314 314 314 314 314 309 306 305 308 309 313 313 320 323 319 318 316 322 329 329 331 331 323 324 325 324 322 326 326 325 325 325 325 320 320 321 321 320 319 318 318 317 318 318 317 317 316 316 315 313
311 311 311 311 313 313 313 312 305 305 307 309 309 316 323 322 319 317 320 324 324 324 324 328 329 331 327 326 327 328 326 328 329 327 326 325 324 322 322 321 320 322 317 316 318 318 318 317 317 317 317 315 314 314
312 312 312 311 311 310 308 305 309 309 308 312 318 323 322 319 320 324 323 324 325 326 326 325 324 327 326 328 330 328 329 328 328 328 326 327 324 322 321 322 321 318 318 316 317 317 317 317 317 316 314 314 313 314
307 307 307 307 306 307 309 308 306 307 315 315 314 318 321 323 324 323 326 326 326 328 330 328 328 328 331 328 327 327 327 327 328 324 324 322 322 321 322 319 317 317 317 316 317 318 317 316 315 315 314 313 313 314
304 304 304 304 304 304 304 306 309 310 313 318 319 321 322 323 320 324 326 326 329 329 330 329 333 332 329 326 327 326 327 327 323 323 323 321 321 317 317 316 318 316 316 317 316 315 315 316 315 314 315 315 314 315
305 305 304 304 304 304 304 304 306 310 312 321 322 313 323 323 324 325 326 330 328 327 325 329 328 330 329 328 328 325 323 322 322 323 325 323 320 317 315 317 320 317 317 316 315 315 314 314 313 313 313 312 312 313
306 307 308 308 307 307 307 307 305 307 315 322 321 317 322 321 321 323 325 327 324 327 324 326 324 328 328 327 322 321 321 322 321 324 324 322 320 320 320 318 314 315 314 313 313 313 312 311 311 311 310 309 309 309
307 308 310 308 309 308 308 307 306 309 317 319 320 321 321 321 321 322 324 329 325 327 326 326 329 329 329 325 320 320 320 320 321 324 323 321 321 319 318 315 314 313 311 311 310 309 309 310 310 310 309 310 309 309
307 313 312 307 310 309 309 312 314 316 318 319 320 319 319 319 320 320 322 322 328 329 333 331 328 329 322 322 321 320 320 322 321 323 321 320 319 318 315 314 311 311 311 309 309 309 308 309 310 309 309 307 307 307
313 312 309 308 310 312 314 312 317 320 320 320 320 320 320 320 323 322 322 326 331 332 332 329 329 328 327 323 322 320 320 321 321 321 320 320 318 315 312 312 310 309 308 308 308 308 309 309 308 306 306 306 305 306
309 308 306 306 306 308 315 319 317 318 319 321 322 322 322 322 325 327 328 326 329 330 330 327 328 327 324 321 322 322 322 321 321 321 320 318 316 312 311 311 310 310 311 309 308 309 309 307 306 305 305 305 306 306
307 307 306 306 305 311 316 317 319 321 321 322 321 322 325 325 326 327 326 323 322 325 328 328 328 326 325 322 321 323 321 322 319 320 319 315 313 312 309 308 309 308 308 307 306 307 308 306 304 304 305 305 306 306
309 311 311 311 310 309 315 320 322 322 323 323 322 322 323 329 328 326 327 323 323 324 328 327 327 325 323 322 321 321 322 319 317 315 318 316 314 313 311 309 308 308 308 307 308 307 306 306 304 304 303 304 305 305
313 311 314 314 317 318 318 318 319 321 322 323 323 323 325 331 331 326 328 328 329 329 329 328 327 327 326 324 323 319 316 311 307 306 307 307 311 310 309 308 308 307 307 307 307 308 308 307 306 306 306 305 303 303
311 313 314 316 319 317 318 320 321 322 324 325 329 328 330 330 329 326 330 330 331 330 328 328 325 323 323 321 319 317 315 313 312 309 310 308 308 308 307 308 308 308 307 307 307 307 307 306 306 306 306 304 305 304
312 314 318 319 318 318 319 324 324 324 325 325 329 330 327 331 328 328 330 328 326 327 326 326 322 323 322 321 319 317 312 312 310 309 308 308 308 308 307 306 307 307 307 307 307 307 307 306 306 305 305 304 304 304
315 312 313 310 320 323 322 322 323 326 327 327 329 329 327 331 331 331 329 327 325 325 323 323 321 321 320 320 317 313 310 309 310 310 309 308 307 307 307 306 306 307 306 307 307 306 305 305 305 304 303 302 302 304
316 316 316 319 320 320 321 324 325 326 326 327 328 330 332 328 327 330 328 326 324 322 322 322 322 321 319 316 313 311 309 309 309 309 307 307 308 308 308 307 306 306 305 305 305 305 304 304 304 304 304 303 302 303
317 319 319 320 320 321 323 324 322 324 325 326 332 331 330 330 329 326 325 324 323 321 321 321 318 319 316 312 311 309 309 308 308 308 307 306 307 308 307 308 307 306 305 305 305 304 304 304 304 304 303 303 303 303
318 320 320 321 321 321 321 320 320 322 324 330 330 330 327 328 329 326 324 322 321 320 320 320 319 318 311 310 309 308 308 308 306 306 306 306 307 307 306 305 305 305 304 304 305 304 304 304 304 303 303 303 303 303
318 319 320 322 322 320 322 322 322 322 328 327 331 331 327 326 326 323 321 320 321 320 317 313 311 310 309 309 308 308 307 307 306 308 308 307 307 307 305 303 302 304 303 302 303 302 302 302 302 303 304 304 304 304
318 319 321 322 322 320 320 320 321 323 326 328 328 329 327 326 324 319 317 316 315 315 312 311 310 310 310 309 308 307 307 307 307 307 308 308 307 307 305 304 305 305 303 302 301 301 301 302 302 303 304 305 304 304
320 320 321 321 320 320 319 320 319 322 328 327 325 326 327 324 322 317 316 315 313 312 312 311 310 310 309 309 309 309 308 307 308 308 307 307 307 306 306 306 306 306 306 305 304 303 303 303 304 305 305 305 304 304
319 321 322 322 321 321 321 320 321 332 328 329 324 322 325 325 324 324 319 316 315 314 312 311 311 311 310 310 310 308 309 308 308 307 307 306 306 305 305 305 305 305 306 306 306 306 305 305 306 305 305 305 305 305
322 321 322 321 322 321 321 326 328 331 331 329 327 326 328 327 327 322 320 321 320 318 318 314 314 313 312 312 311 311 309 309 308 307 306 305 306 305 305 305 305 306 306 306 306 306 306 305 305 305 305 305 305 305

GFSWCAN_925_thetae_084.txt.gz
Theta_e
312 310 312 317 316 317 317 316 315 317 320 311 306 308 309 312 313 313 318 323 320 318 319 319 317 318 318 316 316 314 314 316 312 315 320 315 315 317 315 320 320 320 316 313 316 318 320 320 320 320 318 316 317 318
315 313 311 310 311 316 316 315 315 316 319 311 307 308 309 312 312 313 321 321 322 317 318 320 320 318 319 318 314 312 316 315 313 315 317 317 316 317 316 316 316 315 317 317 318 318 317 318 320 317 315 315 316 317
316 315 314 311 309 311 314 314 315 316 318 309 307 308 309 311 312 312 314 321 320 317 318 317 317 317 318 318 318 316 315 314 315 310 312 315 318 314 317 317 318 318 314 314 316 321 319 318 318 316 315 315 313 313
316 316 315 313 310 309 312 314 315 315 318 307 308 308 308 310 311 311 312 316 320 318 322 318 318 317 317 317 319 320 316 315 313 309 309 313 317 313 316 315 316 315 316 314 314 315 316 319 317 314 313 314 313 311
315 315 314 314 311 311 313 314 316 317 317 306 308 309 310 310 310 311 311 315 319 320 322 320 321 318 317 318 318 319 317 314 314 314 313 315 314 315 313 313 315 315 316 316 317 316 314 314 316 314 312 313 312 311
314 313 313 313 313 313 313 314 315 316 315 306 307 307 307 308 310 315 318 319 317 319 318 321 319 317 318 318 318 317 316 314 313 314 314 315 314 313 315 312 315 315 316 314 316 315 316 316 318 318 313 310 311 309
312 312 313 313 313 313 313 314 315 316 309 306 307 307 306 309 310 316 320 320 317 317 319 323 322 317 317 317 316 315 317 315 313 314 315 315 316 313 313 312 315 315 315 316 315 316 316 317 316 317 316 313 313 311
313 311 312 313 313 313 314 314 315 316 306 306 306 306 308 311 313 314 316 318 316 319 319 323 322 319 317 316 317 314 316 314 315 315 316 318 316 314 315 315 315 316 316 316 316 313 313 314 315 315 316 316 312 312
312 311 311 312 313 313 314 315 315 314 307 306 307 308 312 313 316 322 319 318 316 320 322 322 323 326 317 317 317 317 314 318 317 318 318 317 316 315 316 315 316 316 317 316 316 315 314 314 315 315 315 315 312 310
312 312 311 311 312 313 313 313 311 306 307 309 310 316 318 321 320 318 320 318 317 317 316 321 321 326 319 319 320 321 319 321 322 321 318 317 317 315 314 315 315 315 315 314 315 315 316 315 314 314 314 315 314 313
311 311 311 311 311 312 309 305 307 310 309 312 315 318 321 318 318 318 318 320 319 321 318 319 318 321 321 322 324 323 324 322 319 320 321 313 320 320 318 318 316 316 314 312 312 313 314 313 313 313 313 314 314 313
305 305 306 306 306 307 308 308 307 307 314 313 312 314 318 318 319 321 319 322 322 323 322 322 321 318 322 320 323 322 325 325 326 322 323 319 318 316 316 317 318 313 313 313 315 315 315 315 315 314 313 313 314 313
304 304 303 304 304 304 304 305 308 310 311 315 316 318 321 316 316 321 322 322 324 323 324 326 327 323 323 320 319 321 325 326 321 322 320 316 316 314 313 315 314 314 315 314 314 315 315 315 315 314 314 313 313 312
305 306 306 304 304 304 304 304 304 309 310 315 320 313 317 319 320 320 320 322 322 323 323 324 324 325 322 322 320 323 322 320 323 322 319 317 313 312 313 313 315 314 312 312 313 313 313 313 314 315 314 314 314 314
306 307 308 307 309 308 307 307 306 305 313 318 319 313 318 316 316 319 321 321 322 320 320 319 318 323 324 323 321 321 322 322 319 317 316 314 312 315 313 313 309 309 307 307 309 309 309 309 309 309 309 309 309 309
307 308 308 309 308 309 308 307 307 306 313 317 316 318 316 316 316 315 318 322 322 323 321 318 321 326 326 323 321 322 320 317 315 317 315 314 317 314 309 308 307 308 307 307 307 308 309 309 309 308 307 306 306 306
306 312 312 308 309 310 309 312 311 312 315 318 317 313 314 313 314 313 314 319 322 322 324 323 325 324 318 320 321 318 317 314 316 317 316 313 312 309 307 307 308 308 307 307 307 307 308 307 306 305 303 304 304 305
310 312 309 308 310 312 313 312 314 319 320 317 316 314 314 314 315 315 323 323 323 325 323 322 320 322 320 318 317 314 313 314 317 314 315 311 309 309 308 307 308 308 307 307 308 308 307 306 304 303 304 304 305 305
309 309 306 306 306 306 312 316 315 317 316 315 315 315 316 317 322 321 318 318 319 321 321 321 323 323 320 315 315 314 313 315 316 314 312 312 311 310 309 308 308 307 306 308 307 307 306 304 304 304 305 305 304 304
306 306 306 306 305 309 314 316 317 316 319 317 315 316 316 318 321 321 319 317 317 321 322 324 325 320 318 315 313 314 314 315 316 315 312 311 313 310 308 306 306 306 305 307 307 305 303 304 304 303 303 305 304 304
309 310 308 307 309 307 310 315 319 317 318 319 317 318 319 321 321 321 323 318 320 320 323 323 324 322 317 316 317 316 312 315 315 314 314 310 310 310 307 306 306 306 306 305 305 305 303 303 303 304 305 305 304 305
311 311 313 311 314 315 313 315 315 315 317 317 317 317 318 327 324 321 322 323 323 321 320 321 320 318 317 317 314 313 311 308 308 312 313 313 307 304 305 306 306 304 305 306 305 305 306 306 305 305 305 305 304 304
311 312 312 315 318 315 312 318 319 318 321 320 323 325 324 323 324 322 325 325 325 324 321 319 319 319 317 317 314 311 308 308 305 305 306 309 307 305 305 306 306 305 304 305 306 307 307 307 305 306 306 305 304 304
311 312 317 317 316 313 316 320 321 321 323 320 324 327 325 325 323 322 325 326 324 322 320 319 318 317 316 315 315 313 311 308 306 307 307 306 304 305 306 306 306 306 306 306 306 306 306 307 306 305 305 304 304 304
313 311 309 307 314 320 322 321 320 322 325 324 326 327 326 323 326 327 327 325 324 323 319 317 316 316 315 314 312 310 311 308 306 302 307 306 306 305 305 307 307 306 307 306 306 306 306 305 305 305 303 303 303 303
314 313 311 317 318 318 320 324 325 325 324 326 327 326 326 325 326 328 323 321 320 321 321 317 316 315 314 314 308 307 309 309 308 306 307 307 307 306 302 302 303 306 306 307 306 306 305 304 304 304 304 302 302 303
314 318 316 314 316 317 320 322 321 321 323 326 327 326 326 329 329 323 320 318 317 318 319 320 320 316 317 312 312 309 308 309 309 307 306 307 307 307 306 304 304 306 306 305 304 304 304 303 304 303 303 303 303 303
316 317 320 318 318 318 320 319 320 322 322 327 327 328 327 326 326 321 319 321 320 320 320 320 319 318 311 310 309 308 308 308 307 306 307 307 306 307 306 305 305 305 305 305 304 304 304 304 304 303 303 303 303 303
316 317 318 319 320 320 320 320 319 319 320 324 328 327 323 321 321 319 321 320 320 319 318 313 312 309 308 308 308 307 306 306 305 303 303 301 303 304 305 305 305 304 304 304 304 304 304 303 303 304 304 304 304 304
315 314 317 319 321 322 320 317 317 316 320 323 323 321 320 320 322 321 321 320 319 316 309 308 308 307 307 306 306 306 306 306 305 305 303 302 303 305 303 302 303 303 302 301 302 300 301 301 301 302 304 304 304 304
315 316 317 318 319 318 318 315 315 324 324 321 320 321 322 323 321 318 317 317 316 311 308 308 307 307 307 306 305 304 303 306 306 306 306 306 306 304 304 305 304 304 303 302 303 303 302 302 303 304 304 305 304 304
316 317 317 320 320 318 317 318 317 325 325 324 323 322 322 324 324 321 321 318 314 311 310 309 308 307 308 308 307 307 307 307 307 307 307 307 307 306 306 305 305 305 304 303 303 304 303 303 303 303 305 305 304 305
319 319 318 319 319 319 318 319 327 327 326 325 325 325 325 323 325 320 319 319 318 319 319 316 315 312 309 309 309 308 307 307 307 307 306 306 306 306 306 306 305 305 306 306 306 305 305 305 305 305 305 305 305 305

GFSWCAN_925_thetae_087.txt.gz
Theta_e
315 315 314 312 311 314 313 315 315 314 315 319 306 308 308 311 312 314 320 321 319 315 315 319 317 317 316 312 313 312 312 314 310 316 317 311 313 315 312 318 320 317 313 310 313 315 319 318 318 319 315 316 318 321
315 315 315 314 312 310 310 313 314 313 314 318 306 308 308 311 312 314 319 320 321 314 315 319 318 318 319 316 310 309 312 313 310 313 315 313 314 314 312 314 314 316 316 316 316 315 313 315 318 316 313 315 316 314
315 316 315 315 314 311 309 310 314 313 315 317 306 308 308 311 311 312 315 317 319 314 315 317 317 318 317 318 318 316 312 310 311 308 312 313 316 312 317 315 317 315 312 312 316 319 317 318 316 314 314 315 314 314
314 314 315 314 314 312 309 310 313 313 314 315 306 308 308 309 310 310 311 315 320 315 319 318 320 316 316 318 319 319 314 312 309 306 306 311 315 311 313 314 314 314 312 312 312 313 314 317 316 313 314 313 312 312
314 313 313 314 314 313 311 312 312 314 315 313 306 308 309 310 310 311 312 315 318 318 321 318 319 318 315 319 318 317 316 312 311 312 311 314 311 313 310 311 313 312 313 315 315 311 312 311 315 314 313 312 311 310
313 312 312 313 313 313 312 312 313 314 315 310 307 307 307 307 309 316 316 318 316 320 316 321 317 315 315 317 316 314 313 311 310 312 312 312 312 312 313 309 312 311 312 311 314 312 313 315 315 316 313 311 311 309
314 312 311 312 313 312 312 312 313 315 316 306 307 306 306 308 309 316 319 319 316 317 317 322 320 315 315 315 313 312 314 312 312 311 313 313 314 310 310 309 312 312 314 313 314 313 316 317 316 316 316 316 312 311
312 313 313 313 312 312 312 313 313 315 312 306 306 306 307 310 313 314 315 316 316 318 317 321 321 317 316 314 316 311 314 312 312 312 313 316 313 311 313 313 313 313 314 315 314 312 312 312 314 314 314 314 314 311
312 312 312 312 312 313 313 313 315 315 313 306 307 308 310 313 316 321 317 318 317 319 321 320 321 321 315 314 314 314 312 317 313 316 315 315 312 315 316 314 315 314 315 315 314 314 313 314 313 313 314 313 313 311
312 312 312 311 312 312 313 313 314 314 307 308 310 316 318 319 318 317 319 316 315 315 314 319 318 324 315 316 319 320 319 321 320 317 314 315 315 313 313 312 313 313 315 312 313 314 314 314 313 314 313 313 311 312
307 310 311 311 311 311 309 306 307 308 310 313 316 319 318 317 318 316 317 318 317 320 316 317 317 320 317 320 324 322 322 318 322 318 320 313 316 316 315 315 313 312 313 312 311 311 312 312 311 312 312 312 313 314
304 305 306 306 306 307 308 308 307 308 314 312 312 313 316 317 317 320 318 317 319 321 318 320 319 315 320 316 320 318 322 319 324 320 323 320 315 314 313 317 316 313 313 311 312 313 313 313 313 313 313 312 312 313
304 305 304 304 304 304 305 305 306 310 310 313 315 317 319 315 317 319 320 319 321 320 321 322 323 318 318 316 317 320 323 321 319 323 321 316 314 315 312 311 313 313 313 313 314 314 314 314 314 314 314 313 312 313
306 306 306 305 304 304 304 304 304 308 310 314 318 311 316 318 318 317 317 318 318 321 321 320 323 323 318 320 317 322 319 318 324 323 320 314 313 312 310 311 312 311 311 311 311 312 312 312 312 313 314 313 312 313
306 307 307 307 307 307 308 307 306 305 312 316 317 313 317 314 315 317 316 318 319 318 318 317 316 318 320 319 317 319 322 324 322 319 313 312 310 310 312 311 307 307 307 307 308 308 307 307 308 308 306 306 306 306
307 307 307 309 308 309 308 307 306 305 311 314 315 317 313 315 313 312 314 316 317 318 315 315 318 322 323 318 320 320 322 319 314 312 312 310 310 310 309 306 306 306 305 305 306 307 307 307 306 304 304 304 304 304
306 310 311 308 308 309 308 310 308 310 312 316 317 311 312 312 313 312 311 318 317 318 320 319 323 322 315 318 320 318 317 312 309 312 311 310 311 307 304 305 306 306 305 305 306 307 306 305 304 303 302 304 304 304
308 311 310 308 308 311 311 311 313 318 318 317 316 313 311 311 313 313 320 318 319 320 322 323 316 320 319 318 317 314 311 310 311 312 310 309 307 306 305 305 306 305 305 306 306 306 304 303 302 302 303 303 303 302
309 309 307 306 305 306 311 314 312 317 316 314 312 312 313 313 314 316 317 317 316 317 317 318 320 319 318 315 314 311 310 312 313 311 311 308 308 307 305 305 306 305 306 306 305 305 304 303 303 304 305 304 303 302
306 306 306 305 305 307 312 314 316 314 316 315 312 313 313 313 317 317 316 314 314 316 319 321 319 318 317 314 310 311 310 310 313 312 311 307 309 307 306 307 306 305 306 306 305 304 303 303 303 303 303 304 304 304
307 308 309 307 306 305 308 312 317 317 315 316 314 314 316 318 318 317 318 314 316 316 318 319 319 318 314 314 313 312 310 314 314 313 312 308 307 307 305 305 304 305 305 304 302 302 302 301 302 303 303 304 304 303
309 310 311 307 310 313 308 311 312 312 313 314 314 314 316 321 320 318 316 318 318 318 316 316 317 316 314 312 310 313 315 314 314 313 311 307 303 301 303 304 303 302 303 304 303 302 303 304 305 305 305 304 303 303
311 310 311 312 315 314 313 314 317 315 318 318 319 323 322 320 320 317 320 319 319 318 318 317 315 315 313 311 310 310 312 313 307 310 310 309 307 306 305 305 305 304 303 305 304 304 305 305 305 305 305 304 303 303
309 311 315 316 314 313 313 316 317 319 321 318 320 325 323 322 320 319 322 321 320 318 317 315 314 312 310 309 307 308 306 306 306 307 311 307 302 304 305 306 305 305 305 305 305 306 306 306 306 305 304 303 303 303
311 311 310 306 311 319 319 319 318 318 322 322 326 326 325 320 322 326 323 321 320 318 315 314 312 313 311 310 310 310 307 306 303 300 304 307 305 304 304 304 305 305 305 305 305 305 305 305 305 306 304 303 303 303
314 314 309 315 315 316 320 323 323 324 324 325 326 325 323 321 324 326 321 318 318 317 315 316 315 313 312 311 308 304 309 307 306 304 305 305 306 304 303 302 302 304 305 306 306 306 306 305 304 304 302 301 302 302
315 317 313 310 312 314 318 321 321 320 322 325 325 326 325 327 327 322 317 314 316 317 320 318 317 315 313 313 313 309 310 307 307 307 307 306 306 306 306 304 303 306 306 306 306 306 305 304 303 303 302 303 302 302
313 313 316 315 316 315 318 319 319 319 322 322 322 324 327 326 323 318 317 319 320 321 320 320 318 318 318 318 317 315 308 307 306 306 306 306 306 305 305 305 306 306 306 306 306 304 303 303 303 303 302 302 302 302
315 313 314 316 317 317 318 318 317 316 317 321 325 326 324 321 318 317 319 319 320 319 316 316 316 316 315 313 313 309 308 306 304 302 303 301 302 305 306 305 305 305 305 305 304 304 304 304 303 303 302 302 302 303
312 311 314 315 318 319 317 314 315 313 316 318 319 318 317 317 320 318 318 318 317 316 317 317 311 309 305 305 304 305 307 307 306 304 302 302 303 305 305 305 304 304 304 304 303 303 302 303 303 303 303 303 303 304
311 311 313 313 315 314 314 313 312 318 318 318 316 318 319 319 318 319 318 318 317 314 309 305 306 306 305 304 304 303 302 306 306 306 306 306 306 305 305 305 304 304 303 302 302 302 301 301 301 301 302 303 304 304
311 313 314 315 316 314 314 314 314 320 320 320 320 319 321 323 323 319 318 315 309 307 307 306 306 305 307 307 307 307 307 307 306 306 305 305 305 305 305 305 303 303 302 302 302 302 302 303 303 302 303 303 304 304
313 313 314 315 316 316 315 317 322 322 321 322 322 322 322 321 324 319 318 316 316 316 315 316 314 312 309 306 306 306 307 306 306 306 306 306 306 306 305 305 304 305 304 304 302 302 302 302 302 302 303 303 303 303

GFSWCAN_925_thetae_090.txt.gz
Theta_e
311 316 315 314 314 312 311 312 312 314 313 315 317 306 308 310 311 314 319 319 318 313 313 318 315 313 313 310 312 310 311 311 308 316 315 309 312 313 312 316 319 314 311 308 311 315 316 316 317 318 315 315 318 322
311 314 315 314 314 314 312 310 310 312 312 314 316 306 308 310 311 313 318 318 319 313 313 317 318 318 317 314 309 308 311 311 309 313 313 310 312 312 309 310 312 315 314 315 313 313 311 312 317 316 312 315 317 319
312 314 313 313 314 314 313 310 309 311 312 314 314 307 307 309 310 311 314 316 318 314 311 315 316 316 316 317 316 313 310 308 309 307 311 310 314 310 314 313 315 313 310 314 315 316 317 316 315 314 314 315 314 314
313 312 312 312 313 313 313 311 309 311 313 315 312 307 308 309 310 310 311 317 319 314 316 316 320 316 315 318 318 318 312 310 306 304 306 311 313 309 311 312 312 312 311 311 312 311 313 314 315 314 314 313 314 314
313 313 312 313 313 313 312 310 311 312 314 316 309 308 309 308 308 310 311 315 317 317 318 318 316 315 314 318 317 316 314 310 309 311 310 313 309 311 308 310 311 311 312 313 314 311 313 312 313 313 313 313 313 313
312 313 312 311 312 313 312 310 312 312 314 316 307 307 307 307 308 316 313 316 316 319 313 320 315 315 314 315 314 312 311 308 308 311 311 310 309 310 312 308 311 309 308 310 314 310 310 315 314 314 312 311 311 310
312 312 313 312 312 312 312 311 312 313 315 314 306 307 306 307 309 315 316 318 316 317 314 319 320 315 314 313 311 311 312 309 310 310 312 312 312 309 309 308 312 310 310 311 312 313 316 316 316 316 315 315 313 312
311 312 312 312 312 312 312 312 313 314 316 306 306 306 307 308 311 312 314 315 316 317 315 320 320 316 314 313 314 309 312 310 310 311 310 314 311 309 312 311 311 312 312 314 312 312 311 311 313 314 314 313 314 312
312 312 312 311 312 312 312 313 314 315 316 307 306 308 310 313 315 319 316 317 317 316 317 318 319 319 312 312 312 313 311 316 311 314 313 313 311 314 315 314 314 313 313 314 312 312 312 314 313 312 313 313 313 311
309 311 311 311 312 312 313 313 314 315 313 307 309 314 316 318 318 317 318 316 315 314 314 318 316 323 313 314 316 319 318 319 318 315 312 313 312 311 311 311 311 313 312 312 312 313 312 312 312 313 313 312 311 311
305 305 307 310 310 310 309 308 308 308 309 312 314 318 317 317 317 315 318 318 316 319 315 316 317 320 315 319 319 320 322 318 320 316 320 313 316 314 314 313 312 311 311 310 310 310 310 310 311 311 311 312 312 312
304 304 305 306 307 307 307 308 308 310 314 312 313 314 316 316 315 319 318 315 318 320 316 318 317 314 318 313 322 320 322 319 323 316 323 318 315 313 313 313 315 311 312 313 311 311 312 312 312 312 312 312 312 313
305 305 305 304 304 304 309 308 306 310 310 314 316 316 319 315 317 320 318 318 319 318 318 320 322 317 315 313 319 320 323 322 316 322 322 314 312 313 311 311 312 311 312 312 312 313 313 313 314 313 313 313 312 312
307 306 307 306 305 304 305 305 304 306 310 315 316 311 316 317 317 316 315 316 316 319 319 318 319 319 315 319 317 321 318 318 324 325 318 315 312 311 310 310 311 311 311 310 310 311 311 311 308 308 307 307 308 308
308 307 309 307 307 307 308 308 306 305 311 314 316 316 317 314 313 315 314 315 317 316 316 317 317 316 317 319 315 317 322 324 322 321 315 311 309 309 310 308 307 308 307 306 307 307 306 306 306 304 304 304 304 304
308 307 307 308 309 309 308 307 306 305 309 311 313 317 313 314 313 311 312 314 314 314 312 313 317 320 322 316 319 319 319 318 315 312 310 308 308 308 308 305 305 305 305 304 305 306 305 304 304 303 302 303 303 303
307 308 311 308 308 309 308 309 307 308 309 314 314 310 311 312 312 311 308 312 314 316 318 316 321 321 313 317 319 315 317 313 309 309 308 307 308 308 304 304 304 304 304 305 305 305 304 303 303 302 302 303 303 304
307 310 310 308 308 310 311 311 313 316 316 313 314 312 310 310 310 311 312 314 316 317 318 320 314 319 319 318 316 314 311 309 308 309 309 308 306 305 305 304 305 305 304 304 305 304 303 302 301 302 303 303 303 303
308 308 306 306 305 306 310 314 311 315 315 315 312 310 311 311 310 311 314 314 314 313 314 315 318 317 316 312 314 311 309 311 311 309 308 308 306 304 304 305 305 304 303 304 304 303 302 303 304 304 304 303 302 303
308 308 307 306 305 307 311 313 314 313 314 312 309 310 309 310 312 314 313 313 314 315 318 319 318 315 315 315 312 312 309 309 311 311 309 304 305 304 304 304 304 303 304 304 303 302 303 303 303 303 302 302 302 303
307 308 308 306 306 306 308 309 313 314 313 314 312 312 314 315 317 317 315 311 315 315 316 314 315 316 314 313 311 309 310 312 312 311 311 307 305 305 304 304 304 304 304 302 301 301 302 302 302 303 303 303 303 302
308 309 308 306 309 311 307 308 309 310 311 312 313 312 314 318 318 316 312 316 316 315 313 314 315 315 314 312 309 311 312 313 311 309 309 308 302 301 301 303 303 302 303 303 302 301 302 302 302 304 304 304 304 302
310 310 309 310 314 313 313 312 316 314 317 316 315 319 319 318 317 315 319 316 316 314 314 314 315 315 313 311 310 311 312 312 310 308 306 306 306 305 305 304 304 303 302 304 303 302 302 303 304 304 304 303 303 302
310 310 314 315 314 313 312 314 314 317 317 317 317 323 322 320 320 322 323 319 316 315 315 313 311 309 306 306 305 305 309 312 309 309 308 305 303 303 305 305 305 305 304 304 303 303 304 305 305 305 304 303 302 302
310 309 307 305 311 318 319 318 317 318 319 320 323 323 323 322 324 325 323 319 318 317 314 311 311 310 309 306 306 307 307 310 306 304 307 308 305 302 303 304 305 305 304 305 304 304 305 305 305 304 305 304 301 302
309 314 309 313 313 314 318 322 323 322 322 323 326 325 322 322 324 323 320 317 316 316 314 314 312 310 308 308 307 304 305 307 308 305 306 309 308 306 303 302 302 304 304 304 304 304 305 305 305 304 304 302 301 302
314 317 312 307 310 315 317 318 320 322 324 325 325 326 324 326 325 321 316 313 315 316 318 316 313 312 311 310 309 309 307 306 307 307 308 308 308 307 307 305 303 305 305 305 305 305 305 305 305 304 303 302 302 301
311 312 315 313 313 314 317 318 319 319 320 322 323 323 323 324 322 317 316 317 319 319 320 318 317 316 315 315 313 309 308 306 304 305 305 304 304 305 305 305 305 305 305 305 305 305 306 305 305 304 303 302 302 302
312 311 312 314 315 315 315 319 318 316 315 320 323 323 322 319 316 316 317 317 318 319 316 315 315 316 316 316 314 311 309 305 303 303 304 303 302 304 305 305 304 304 305 305 305 305 306 305 303 303 303 303 302 302
311 310 313 314 315 316 315 315 316 315 312 315 317 317 317 315 317 317 315 315 315 315 316 317 317 315 311 309 306 307 307 306 307 305 304 303 304 306 306 306 306 305 304 305 305 305 304 303 303 302 302 302 302 302
309 310 313 312 312 312 312 312 312 314 316 316 314 316 317 317 318 317 316 316 316 315 314 311 308 309 308 305 304 303 301 305 306 306 307 307 306 306 306 306 305 305 304 304 304 304 303 302 302 302 302 302 303 303
310 311 313 314 313 312 312 313 313 317 317 318 318 317 317 319 321 318 316 312 308 307 307 306 305 304 305 305 305 305 306 307 306 306 305 305 306 306 306 305 305 304 304 304 303 303 302 301 300 300 301 301 302 302
311 310 311 312 314 315 315 318 320 320 319 320 322 321 320 319 322 318 317 315 315 315 314 313 312 311 311 310 308 306 307 308 306 307 306 306 305 305 305 305 305 304 303 303 302 302 301 300 301 301 302 302 303 303

GFSWCAN_925_thetae_093.txt.gz
Theta_e
308 309 311 311 312 314 314 312 311 311 312 312 315 311 307 309 311 313 318 318 319 319 320 319 316 317 316 316 320 316 317 317 318 325 325 327 329 325 324 323 325 321 324 324 322 324 325 320 321 323 323 322 323 329
309 310 311 311 312 313 313 313 311 309 311 312 314 311 307 309 310 312 318 317 318 319 319 317 317 317 317 317 317 313 319 319 317 323 322 319 324 321 319 325 318 328 323 331 323 324 320 320 322 320 320 322 323 325
311 311 312 312 312 313 312 312 311 309 310 312 314 310 307 308 309 310 313 316 317 320 317 319 320 315 315 315 315 321 317 315 316 315 320 319 322 319 322 321 321 319 317 326 325 324 323 322 320 318 319 320 321 320
311 311 313 313 312 313 313 312 312 309 311 313 315 309 308 308 309 309 311 317 318 319 321 321 319 317 314 315 316 316 315 311 312 313 318 321 322 316 321 320 322 320 318 322 323 319 320 321 320 320 318 319 320 319
310 311 312 312 312 312 312 312 311 310 311 314 316 307 308 308 307 309 311 315 317 320 320 323 318 315 313 316 316 315 316 318 318 319 319 319 317 319 316 317 322 318 322 324 326 322 324 323 321 319 319 320 320 321
310 311 312 313 312 312 312 312 311 311 312 315 315 307 307 306 308 316 318 315 317 319 319 323 318 317 314 315 316 316 316 317 317 320 320 317 315 319 323 326 322 318 317 319 321 318 320 319 319 318 318 318 317 318
311 311 312 312 313 313 312 311 311 312 313 315 312 306 306 306 308 316 319 316 315 317 319 320 325 318 315 315 315 318 316 316 319 319 320 321 320 318 321 328 321 318 317 317 316 318 320 320 321 319 319 318 315 316
311 311 312 312 312 312 312 311 311 313 314 314 306 306 306 307 310 312 313 314 315 317 320 326 326 320 315 319 321 316 320 318 317 319 318 322 319 319 327 322 319 318 317 318 318 318 319 319 318 319 318 317 318 318
308 311 312 312 312 312 312 312 313 313 314 310 305 307 309 312 317 318 316 316 316 317 320 324 328 326 316 318 319 320 318 325 318 322 322 322 323 324 324 323 321 320 319 319 318 318 316 318 318 317 317 317 317 317
305 306 310 311 311 312 312 312 313 314 315 307 308 313 320 318 317 316 318 320 320 318 319 324 321 328 319 320 322 325 323 325 329 324 320 324 326 321 320 320 319 319 318 317 319 319 318 318 317 317 317 317 316 316
304 305 306 307 309 309 309 308 308 309 308 310 315 321 317 316 317 319 321 321 319 321 320 320 323 325 320 326 327 325 327 324 330 327 327 327 322 323 319 320 319 318 317 317 317 318 317 317 317 317 317 316 316 316
305 305 305 305 306 307 308 307 307 310 313 313 314 314 317 319 319 323 322 319 322 321 320 322 322 322 324 321 329 325 327 324 328 323 327 324 324 320 318 318 319 317 317 316 315 315 316 316 316 317 316 316 316 316
306 305 305 306 305 306 308 305 307 312 312 315 316 319 320 319 321 323 322 322 323 321 322 323 325 325 322 323 325 326 327 328 323 326 327 323 321 318 317 317 318 317 317 316 315 316 316 316 316 316 316 315 315 314
308 308 306 307 306 304 304 305 305 307 311 317 318 320 321 321 321 322 320 322 321 324 325 326 325 327 323 326 325 327 324 324 327 327 326 322 321 319 317 317 317 317 317 317 316 315 314 313 311 309 308 308 308 308
309 308 307 310 308 306 307 308 306 305 310 317 320 319 320 319 318 319 318 320 321 322 324 325 324 324 325 324 320 323 325 326 325 325 323 321 319 318 318 317 317 316 315 313 311 311 311 310 309 307 306 306 305 305
308 309 308 309 308 308 308 308 306 305 310 313 316 321 319 318 319 316 318 320 321 322 320 323 325 327 326 324 325 326 325 325 323 322 322 318 318 317 316 315 314 313 311 310 309 309 308 308 308 306 305 305 305 306
307 308 308 307 308 309 308 308 307 309 310 313 316 316 316 317 317 316 315 316 318 322 327 325 325 325 321 325 325 323 325 323 321 318 318 318 318 317 314 312 311 309 308 309 308 308 307 306 305 305 306 305 305 305
307 310 309 307 308 310 310 310 313 316 315 314 315 314 316 316 317 316 316 320 322 324 323 326 322 326 327 326 326 323 321 319 315 317 318 316 316 314 311 311 309 309 308 308 308 307 306 306 306 306 306 305 305 305
307 307 306 306 306 307 310 314 312 316 318 318 318 317 317 318 316 315 318 321 320 320 321 322 325 326 326 322 323 322 318 317 317 317 317 315 315 311 310 310 309 308 307 308 307 307 306 305 305 305 305 306 306 306
308 308 309 306 305 307 310 313 313 316 318 317 315 315 316 317 317 320 321 321 322 324 326 327 327 325 324 323 320 319 316 315 317 318 317 314 311 309 310 309 308 307 307 307 306 304 305 305 305 305 304 305 305 306
307 307 308 306 306 306 308 311 314 318 319 319 318 318 320 318 323 323 322 319 325 327 328 326 327 325 320 320 317 317 316 316 319 319 318 315 310 309 308 308 307 306 307 307 306 305 305 305 304 304 305 306 305 305
308 308 307 307 308 310 310 310 312 313 315 317 317 318 320 324 326 323 320 324 325 326 324 325 323 324 323 321 318 315 316 316 316 313 312 310 310 309 308 307 307 308 308 307 305 305 305 304 304 304 305 306 305 304
309 310 310 310 314 313 313 312 317 318 320 319 320 322 323 323 323 319 326 325 325 323 322 321 321 321 322 318 315 314 315 316 316 315 313 312 311 310 309 307 308 308 307 306 304 304 304 303 304 305 306 305 305 305
310 311 314 314 314 314 315 317 317 319 320 321 322 324 325 324 322 325 327 327 326 323 322 321 320 318 314 314 317 317 315 316 316 314 313 311 310 308 308 307 307 307 306 305 304 304 304 305 305 306 306 306 305 304
312 311 311 309 314 318 319 319 319 322 323 323 324 325 325 325 326 326 328 326 323 323 323 322 320 320 321 319 316 314 312 315 315 316 311 311 309 307 307 307 306 306 305 305 305 305 306 306 306 306 306 306 304 304
310 312 313 315 316 318 318 321 322 322 322 323 324 324 323 325 326 327 327 325 324 324 322 321 321 319 318 317 316 314 310 311 314 315 311 309 308 308 308 308 307 306 304 305 305 306 306 306 306 306 306 305 302 303
313 317 315 313 314 315 317 318 319 323 322 324 323 325 327 327 328 327 322 320 323 322 320 319 318 319 318 315 312 310 306 308 311 311 312 310 310 309 309 309 308 308 306 305 305 305 306 306 306 306 306 305 304 303
313 315 317 316 317 317 318 319 321 322 322 323 325 327 326 326 326 324 322 319 320 319 320 319 318 317 316 314 312 308 305 304 305 305 305 306 306 307 308 308 307 307 307 306 305 306 306 306 307 306 306 305 304 303
314 315 315 317 317 318 319 320 321 320 320 325 324 326 325 323 320 320 320 317 317 320 320 320 318 316 315 313 311 309 307 306 306 308 309 309 307 305 305 305 305 305 305 305 305 305 306 306 306 306 305 305 304 303
315 314 316 316 317 318 317 318 320 318 317 319 321 323 322 320 319 318 318 317 318 320 321 320 318 317 317 316 314 308 306 307 308 308 309 308 307 307 306 306 305 304 304 305 305 305 305 305 305 303 303 303 304 303
313 314 315 315 315 314 315 315 315 314 317 321 320 322 323 322 320 318 317 316 317 316 315 313 311 312 315 313 312 312 312 307 306 306 306 307 307 306 306 306 306 305 304 304 305 305 305 305 304 304 304 304 304 303
314 315 316 317 317 316 316 316 317 320 322 323 324 323 322 324 325 321 317 314 312 313 308 309 308 307 306 306 306 306 306 307 309 309 306 306 306 306 306 306 305 305 305 304 305 305 305 304 304 304 304 304 304 304
314 314 314 314 315 318 318 322 324 325 325 326 326 324 323 324 324 322 319 315 314 313 311 309 308 309 310 310 309 309 309 308 307 306 305 305 305 305 305 305 305 305 304 304 304 304 304 303 303 303 303 303 303 304

GFSWCAN_925_thetae_096.txt.gz
Theta_e
309 308 308 310 311 311 311 312 313 313 311 313 313 314 310 307 310 312 321 320 323 325 324 321 319 322 321 321 321 322 321 321 321 322 322 327 327 327 326 326 326 324 325 325 324 325 327 323 324 326 328 326 327 332
308 308 310 311 312 311 311 311 312 313 311 311 312 314 311 307 310 311 321 319 319 324 324 321 321 320 321 321 321 321 324 321 321 321 322 324 324 324 325 327 325 330 323 328 323 326 326 326 325 324 324 325 326 329
308 310 311 311 313 313 312 312 312 312 311 310 312 314 310 307 309 310 317 319 321 323 322 321 322 319 319 319 319 322 322 322 322 324 322 322 323 321 321 320 321 325 323 326 324 323 324 325 324 323 323 323 323 325
311 311 310 311 313 312 313 313 313 312 311 310 312 314 308 308 309 309 315 317 322 321 323 322 321 321 318 318 319 320 321 319 321 322 321 321 322 322 322 324 322 321 323 323 324 323 325 325 324 322 322 321 321 323
310 310 310 311 313 312 312 313 312 312 310 311 314 315 307 308 308 309 313 316 319 324 321 323 322 320 317 320 320 319 320 321 321 321 321 321 322 321 322 322 322 323 321 324 322 321 321 321 322 323 322 322 321 322
310 311 311 311 312 312 312 312 312 311 310 312 314 313 307 307 307 316 318 316 318 321 323 321 322 321 319 320 320 321 321 321 321 321 321 321 322 323 323 326 324 322 321 322 323 322 322 323 322 322 322 322 321 321
308 311 311 311 312 312 312 312 311 311 311 313 315 310 306 306 309 317 320 319 317 320 324 322 324 320 319 321 321 322 321 322 322 322 322 323 324 321 324 329 323 321 322 323 322 322 323 322 322 322 321 321 318 320
306 309 311 312 312 312 312 312 311 311 312 314 313 306 306 306 308 312 316 316 316 321 322 326 327 322 319 322 323 322 323 323 323 324 323 324 325 324 329 326 325 323 322 322 322 322 322 322 322 322 320 319 319 318
305 306 310 311 311 312 312 312 312 312 313 313 306 306 310 313 315 317 315 315 317 321 322 324 329 327 320 323 323 323 323 325 324 325 325 325 327 334 327 327 326 324 323 323 322 321 321 322 322 321 319 318 317 317
305 305 306 309 311 311 312 312 312 313 314 310 308 313 316 318 318 317 320 323 323 322 322 325 326 327 322 323 324 325 325 326 329 327 325 328 332 328 327 326 325 324 323 322 323 323 321 321 320 319 318 317 316 317
305 304 305 306 307 309 309 310 309 311 310 310 314 321 320 317 320 322 322 321 320 321 322 320 325 327 322 325 325 326 327 327 329 330 329 332 330 328 325 325 325 324 322 321 321 320 321 320 319 318 318 317 316 316
307 305 305 305 305 307 307 307 308 310 314 314 316 317 319 322 322 323 321 321 321 320 321 322 323 326 325 326 328 328 328 328 327 326 328 331 327 327 324 323 323 323 322 321 319 320 319 318 317 317 317 317 317 317
308 306 305 305 305 307 306 308 310 312 313 315 319 321 322 320 322 320 322 321 321 321 323 323 325 328 327 327 327 329 327 327 326 328 330 328 327 325 323 322 323 321 320 319 319 319 318 319 319 318 319 318 317 317
309 308 307 306 306 305 305 306 310 312 312 319 319 318 322 322 322 321 319 319 321 324 325 323 326 325 327 329 327 325 327 327 329 330 329 325 328 325 323 322 322 322 321 321 320 320 320 319 317 315 313 313 312 312
309 309 308 307 309 306 306 307 307 310 310 317 319 321 321 320 320 320 320 323 325 326 328 326 326 325 326 328 327 328 330 328 327 327 325 326 326 324 323 322 322 322 321 320 318 317 315 314 313 312 310 309 309 309
308 309 308 308 308 308 308 308 307 306 310 313 318 322 321 320 320 321 321 323 325 325 328 326 328 326 326 328 329 329 328 328 325 324 324 326 325 324 323 321 320 319 318 316 315 313 312 310 310 310 309 308 308 309
307 308 308 308 308 307 307 310 309 311 312 313 315 315 319 321 321 317 318 320 323 328 329 327 327 327 327 329 328 327 327 323 323 324 324 324 325 324 322 319 318 316 314 313 311 310 310 310 309 309 309 308 308 308
306 309 308 307 307 309 310 310 313 315 315 314 314 314 317 317 319 319 319 322 323 324 326 326 325 327 328 328 327 325 324 324 323 323 323 325 324 320 318 317 315 314 312 311 311 311 311 309 309 309 308 308 308 307
307 308 308 307 307 308 313 314 313 316 318 319 319 318 318 317 317 318 319 322 324 325 325 325 326 326 326 325 324 324 324 324 324 323 322 322 321 319 317 315 314 311 311 311 311 310 309 308 308 307 307 307 307 306
308 307 307 306 306 308 310 311 314 318 319 319 318 318 319 319 319 320 320 322 324 325 326 327 326 325 324 323 323 322 324 324 323 321 322 321 320 317 316 313 310 310 311 311 311 309 308 307 307 307 306 306 306 306
308 308 308 308 307 307 309 312 317 318 320 321 320 321 322 321 322 323 324 324 326 325 326 325 324 324 324 324 324 324 325 323 323 323 322 321 317 315 314 311 310 310 310 310 310 308 307 307 306 306 306 306 306 305
310 308 307 306 309 310 313 312 316 316 318 320 320 321 322 325 327 327 325 325 324 324 323 324 324 324 324 329 327 325 323 323 322 320 319 316 317 315 314 311 310 310 310 310 309 307 306 306 306 306 306 306 304 305
309 310 312 311 314 315 316 316 318 318 319 320 320 322 322 323 325 323 326 325 324 324 324 325 325 326 326 325 326 324 322 322 322 320 318 317 315 314 313 310 309 310 310 309 307 306 306 305 305 306 306 305 305 305
309 311 315 315 315 317 317 319 319 320 321 322 321 322 324 327 323 326 329 326 326 326 325 327 326 326 326 325 325 324 322 320 320 319 317 316 315 314 312 310 309 309 308 307 306 306 306 305 306 305 306 306 305 305
311 312 312 313 316 318 318 318 319 320 320 322 323 324 325 327 327 327 327 328 326 326 327 327 326 325 325 325 324 323 321 319 319 320 318 316 315 313 311 309 309 308 307 306 306 305 305 306 305 306 307 306 305 304
314 315 316 317 318 318 319 321 321 322 323 323 324 324 325 325 326 328 327 326 325 325 326 326 326 326 325 324 324 322 320 319 319 319 318 317 315 312 312 311 310 308 307 306 306 306 306 306 306 306 306 305 303 303
314 317 317 316 317 318 319 319 320 322 323 320 319 322 326 329 327 327 326 325 325 324 325 324 324 324 325 323 320 318 317 318 319 318 317 316 315 313 312 311 310 308 307 307 307 306 306 306 306 306 306 306 305 305
314 316 318 318 318 318 319 319 321 320 321 322 323 326 326 325 327 328 326 323 323 324 324 323 322 322 321 319 317 314 315 313 312 312 313 314 314 313 311 310 309 308 308 307 307 307 307 306 306 306 306 306 306 305
315 316 316 318 318 318 319 319 322 321 322 324 323 323 324 326 324 324 323 322 321 323 324 323 322 320 319 317 315 313 311 311 309 311 311 312 313 312 311 311 310 309 309 308 307 307 307 307 307 306 306 306 306 305
316 316 317 317 317 318 318 318 320 321 320 320 320 320 324 324 322 321 320 321 323 323 323 323 322 320 320 318 315 315 312 310 309 310 311 311 310 308 308 308 308 308 308 308 308 307 306 307 306 306 305 305 306 305
315 316 316 317 317 317 316 316 317 318 317 319 323 325 326 325 323 321 320 319 318 320 320 320 318 318 319 319 318 316 314 312 310 309 310 310 309 309 309 308 308 308 307 307 308 308 307 306 307 306 306 306 306 305
315 315 317 318 318 318 318 318 317 318 323 326 326 325 324 325 326 324 320 318 318 317 312 314 311 310 312 313 312 312 314 314 315 313 310 309 308 308 308 307 307 307 307 307 307 307 308 307 307 306 306 306 306 306
317 316 316 316 317 319 320 322 324 328 327 326 325 323 323 324 325 322 320 316 314 313 310 309 309 309 309 309 309 309 308 309 309 309 308 307 307 307 307 307 307 307 307 307 307 306 307 307 306 306 306 306 306 306

GFSWCAN_925_thetae_099.txt.gz
Theta_e
310 308 308 309 310 311 311 311 311 312 313 313 311 313 315 309 308 311 321 324 326 326 325 322 322 321 320 322 324 324 322 322 322 324 324 326 327 327 327 327 328 328 329 328 328 333 331 326 324 327 332 329 331 333
308 308 309 310 311 311 312 312 312 312 313 312 311 312 315 308 308 310 319 323 322 327 327 323 321 321 321 323 323 323 325 324 324 323 323 326 325 326 324 326 326 329 326 330 327 334 329 327 330 328 328 329 329 330
308 310 310 311 310 311 312 312 313 313 313 312 311 312 315 308 308 310 318 322 321 325 324 323 322 321 320 320 318 323 322 324 322 324 325 324 325 323 326 326 326 324 327 327 327 326 325 324 325 325 325 325 325 327
310 310 309 310 310 311 312 312 313 313 312 311 311 313 314 308 308 309 317 319 322 325 324 323 322 322 320 319 319 320 324 322 323 321 323 323 323 323 324 325 323 323 327 324 326 326 326 325 324 324 323 322 322 324
310 309 311 311 311 311 312 312 313 312 312 311 311 315 313 307 308 309 314 317 321 325 325 324 323 321 320 320 320 320 321 322 321 322 322 323 323 324 322 323 324 324 323 323 324 324 326 324 324 323 323 322 322 322
309 308 310 311 311 312 312 313 312 312 311 310 312 315 310 307 307 314 319 317 319 321 327 325 324 323 320 321 321 321 322 323 323 323 323 323 324 321 324 326 326 325 323 323 324 324 324 324 324 324 322 323 323 322
307 306 309 311 312 313 313 313 312 312 311 311 314 315 307 307 308 317 321 321 320 322 323 321 326 324 322 322 322 322 321 323 324 324 324 324 325 321 324 328 327 324 323 324 324 325 324 324 324 323 322 322 321 321
307 305 307 311 312 312 313 312 312 311 311 312 314 311 307 306 307 311 315 317 319 321 321 322 326 325 322 323 323 324 324 324 325 326 326 325 328 326 328 328 327 326 325 324 325 324 324 324 323 324 322 322 322 321
306 305 306 309 312 312 312 312 312 311 313 314 311 306 309 311 315 316 318 318 318 323 323 322 326 326 323 323 323 325 325 326 327 326 326 328 328 335 329 329 329 327 326 325 324 323 323 324 324 323 322 321 321 320
307 305 305 307 309 311 311 312 312 313 314 311 308 313 316 316 319 314 320 325 321 319 323 326 323 329 323 323 325 326 325 325 329 328 329 329 331 329 330 329 329 327 325 325 325 325 323 324 324 323 321 320 318 318
308 305 305 305 306 308 309 309 310 311 312 310 314 319 321 318 318 321 320 321 322 322 320 320 323 327 324 326 325 325 327 326 328 329 329 334 337 330 330 329 329 327 325 324 324 324 323 323 322 321 320 318 318 318
309 308 305 305 305 305 307 307 308 309 313 314 318 320 321 322 323 321 321 320 321 320 321 320 321 327 326 326 329 328 328 327 328 328 328 334 331 330 328 326 327 327 326 325 323 323 322 322 320 320 319 319 318 318
309 309 307 305 306 306 307 308 309 311 312 316 319 322 324 322 325 321 323 322 321 320 322 321 319 326 328 327 327 328 328 327 327 328 331 332 332 330 328 326 325 324 323 323 322 322 320 319 319 319 319 319 317 317
309 309 309 307 306 305 306 308 310 312 313 320 320 318 321 323 323 322 322 322 320 321 323 323 324 325 325 327 325 326 325 326 328 330 331 331 333 329 327 325 325 324 323 322 321 320 321 321 321 320 319 317 316 315
309 309 309 309 307 308 306 306 309 312 312 318 319 323 323 323 322 322 321 322 323 323 323 323 326 326 326 325 324 326 328 328 326 327 327 333 331 329 327 325 324 323 323 322 321 321 321 320 319 317 315 313 312 311
309 308 309 308 308 307 307 307 307 307 310 313 318 323 322 322 321 321 322 322 325 328 329 327 326 325 325 324 325 325 326 328 327 325 329 332 330 328 327 325 323 321 321 321 320 320 318 317 316 314 312 310 310 310
308 309 308 308 308 307 308 311 311 312 313 316 316 316 319 321 321 322 322 325 327 332 331 329 327 326 324 326 328 325 326 326 325 325 327 330 330 328 326 324 322 320 320 319 318 317 315 314 312 311 311 310 310 310
309 309 308 307 309 309 312 313 314 315 316 316 316 316 317 319 323 321 321 324 326 329 329 326 325 328 327 328 327 327 326 325 325 325 327 330 329 325 323 323 321 320 319 317 315 313 312 312 311 311 311 310 309 309
307 308 308 307 309 310 313 314 315 317 319 319 318 317 317 317 320 321 321 323 324 325 328 327 328 326 326 325 324 324 324 325 327 327 327 328 326 324 322 320 319 318 316 313 313 312 312 311 310 310 309 308 309 308
307 307 306 306 307 311 311 314 315 318 321 320 320 321 321 321 319 320 321 322 324 326 328 328 326 325 324 323 322 323 323 325 325 326 328 327 324 322 320 318 317 314 313 313 312 311 311 310 309 309 309 308 308 308
308 308 308 308 307 311 313 312 318 319 321 322 321 322 322 322 322 322 321 321 323 325 325 325 325 324 324 329 324 323 324 325 325 326 325 325 323 320 319 317 314 312 312 313 313 311 309 309 309 308 308 306 307 307
310 309 310 309 311 313 314 314 317 318 320 321 323 323 325 325 327 325 324 326 325 323 322 322 323 323 324 326 326 326 323 327 327 324 322 321 322 320 319 315 313 313 312 312 312 311 309 309 309 308 308 308 306 307
309 311 313 310 312 316 319 317 319 318 320 321 320 322 323 325 329 326 329 327 325 324 322 323 325 323 325 323 326 328 328 327 326 325 323 322 320 318 317 314 313 312 312 311 311 310 308 309 307 308 308 307 306 307
310 313 315 316 317 320 318 321 320 321 321 321 322 324 326 328 327 327 326 325 324 324 324 328 325 326 326 329 327 327 327 326 324 324 322 321 320 317 316 314 313 311 311 311 309 308 308 308 307 305 308 308 307 307
312 314 317 316 317 319 319 319 320 321 323 323 323 324 327 327 329 328 328 328 328 328 328 330 328 327 326 326 325 324 325 325 324 324 320 318 317 316 315 314 312 311 310 309 308 308 308 307 307 307 307 308 307 307
315 314 319 318 319 320 319 320 321 322 322 323 325 326 325 326 325 327 327 329 327 324 324 325 327 327 326 327 327 325 325 324 322 320 319 317 316 316 316 314 312 311 309 308 308 307 308 308 307 308 308 307 305 305
313 317 318 317 318 319 320 320 321 323 322 324 323 324 324 328 328 328 328 325 325 323 324 323 323 324 327 325 324 323 323 322 321 320 319 318 317 316 314 313 312 310 309 307 307 307 307 308 308 308 308 308 307 306
316 316 319 320 319 318 319 320 321 320 318 319 321 326 327 327 328 329 332 326 325 325 324 323 322 323 323 323 322 321 321 320 320 319 319 318 318 316 314 313 312 309 309 308 308 308 307 308 308 308 308 308 308 307
316 316 316 319 319 320 319 320 321 319 320 322 325 326 325 326 325 325 325 325 325 324 325 324 323 322 322 321 319 319 320 318 318 318 318 317 317 315 313 312 310 309 309 308 307 308 308 308 308 308 308 308 308 307
316 315 317 317 318 318 319 319 322 320 322 322 321 322 325 326 325 323 323 323 325 325 325 325 325 322 321 320 319 317 316 316 314 314 314 313 314 313 313 312 311 310 309 309 308 307 307 307 307 307 307 307 307 307
315 315 316 317 317 318 318 318 318 319 321 321 324 326 327 327 324 323 322 321 321 321 322 323 323 322 320 320 319 318 315 312 313 313 311 311 310 310 310 310 310 309 309 309 309 309 308 307 307 308 308 308 307 307
314 315 316 318 319 319 318 319 319 320 322 327 326 325 324 326 327 326 319 318 318 318 316 317 319 317 315 313 316 316 317 316 317 315 313 312 311 310 310 310 309 309 309 309 309 308 308 309 309 308 308 308 308 308
316 318 318 318 319 319 319 321 322 326 327 326 325 323 323 323 324 323 318 316 316 316 316 314 312 311 311 311 312 313 313 313 312 312 313 313 312 310 309 309 309 308 308 308 307 308 307 308 309 309 308 308 308 307

GFSWCAN_925_thetae_102.txt.gz
Theta_e
312 310 309 309 309 310 311 311 311 312 312 312 313 312 314 315 309 309 317 323 323 330 328 324 321 322 322 323 325 324 322 323 322 325 325 328 328 331 330 330 331 332 331 331 334 338 338 329 328 328 337 331 333 335
309 308 309 310 310 310 310 311 311 312 313 313 313 312 313 315 309 309 315 323 322 325 329 326 322 321 321 323 324 325 326 328 324 325 325 325 326 325 327 327 326 329 331 333 333 339 333 330 334 332 331 331 330 332
307 308 310 310 309 310 311 311 312 313 313 313 313 311 312 314 309 308 314 319 323 321 321 322 324 322 322 320 320 321 324 323 325 323 327 324 326 325 326 326 327 326 327 328 329 333 329 326 326 326 327 327 326 328
308 309 309 310 311 311 311 311 312 313 313 313 312 311 313 314 308 308 314 317 320 324 325 322 319 321 320 320 320 319 323 325 324 323 322 324 324 324 324 328 324 326 328 324 326 328 326 325 324 325 324 323 323 325
309 310 308 308 310 311 311 311 312 312 312 312 312 311 314 313 308 308 311 315 319 324 329 327 322 322 321 320 320 320 321 323 322 323 323 324 324 326 325 323 324 323 324 324 324 328 332 326 325 324 324 323 322 323
308 309 307 309 311 312 312 312 312 312 312 311 311 312 315 310 308 312 318 316 317 320 326 329 325 324 321 320 321 321 322 323 323 323 324 324 326 326 323 326 327 324 324 324 325 325 325 324 325 325 323 323 323 323
308 308 306 308 311 312 313 313 313 313 311 311 312 314 314 307 308 315 319 320 319 322 325 327 327 325 322 321 322 322 322 323 323 324 324 325 327 322 321 327 327 326 325 325 324 326 326 325 326 324 323 323 322 322
308 308 306 307 311 312 313 313 313 312 311 312 313 315 309 307 307 310 315 317 318 321 320 319 325 328 324 322 323 323 324 324 325 326 326 326 329 327 328 327 327 327 325 325 325 325 325 325 324 325 323 323 323 322
308 307 306 306 309 311 312 312 312 312 312 312 314 310 309 309 314 315 316 319 317 322 323 319 321 328 324 324 323 324 324 326 325 326 326 326 327 339 331 330 329 329 328 327 326 325 324 325 325 325 324 323 322 322
308 308 305 305 307 310 311 312 312 312 313 313 310 312 317 314 318 315 320 324 320 319 324 327 322 332 328 323 323 327 325 326 330 330 327 330 332 334 330 330 330 329 328 326 327 326 325 325 326 326 324 324 321 320
308 308 305 305 305 306 309 310 311 312 313 310 314 319 322 318 318 319 319 323 321 317 317 322 324 329 328 325 327 326 327 326 329 332 330 332 333 334 331 330 332 329 328 326 325 325 325 328 325 325 323 320 319 319
308 309 308 305 305 305 307 307 308 311 312 313 314 319 320 317 321 321 322 319 322 321 320 319 319 328 326 329 327 327 331 328 330 327 329 341 330 333 332 329 329 329 327 326 324 326 324 324 322 321 320 320 319 319
308 309 309 307 305 306 307 307 308 310 311 315 318 322 322 321 325 325 324 323 321 321 320 320 320 328 329 327 330 330 331 327 325 331 331 334 337 333 330 328 327 327 326 325 325 323 323 322 320 320 320 320 319 319
309 310 309 308 306 306 307 307 309 312 313 319 320 319 323 324 324 323 323 323 322 321 323 321 321 329 327 326 326 325 324 325 329 330 329 328 340 334 330 328 327 326 325 325 324 322 322 321 322 322 321 320 318 317
308 309 309 309 308 306 307 306 310 311 312 319 319 322 323 322 323 324 323 323 323 322 323 322 320 322 331 327 325 325 325 327 326 326 327 338 339 335 330 327 326 325 324 324 323 322 323 322 321 319 318 317 315 314
308 309 309 309 309 307 306 306 310 309 311 314 317 321 323 324 324 324 324 323 323 325 324 324 327 327 328 328 324 324 324 325 325 330 335 337 338 333 332 327 325 325 323 322 322 322 321 320 319 318 315 313 312 312
309 310 309 308 308 308 308 311 308 311 314 315 319 318 319 323 323 322 324 325 326 330 330 330 327 328 328 328 324 323 324 324 327 331 332 337 337 335 330 327 325 323 322 322 320 319 320 318 317 316 313 312 312 312
308 310 309 308 308 309 311 313 315 315 316 317 318 320 320 319 322 323 322 324 327 328 330 326 325 328 328 326 325 325 325 327 326 329 333 335 336 332 327 327 325 323 322 321 319 318 317 315 314 313 312 312 311 311
310 309 308 308 311 311 316 315 315 319 318 318 319 317 318 319 323 323 323 327 326 325 327 326 324 326 326 326 326 329 327 328 329 329 333 333 330 328 326 324 322 321 320 319 318 316 314 313 312 312 312 311 310 311
308 308 308 308 308 311 312 314 315 318 322 322 321 321 321 320 319 320 321 322 327 324 325 329 326 325 328 325 324 327 326 328 328 330 331 330 328 327 325 323 321 320 319 317 315 313 314 313 311 311 311 310 310 309
307 307 307 307 310 312 313 316 317 319 320 322 322 323 323 322 322 321 322 321 323 324 325 326 328 326 326 324 322 327 329 325 326 327 328 329 326 324 323 322 320 319 316 314 314 313 312 312 311 310 309 309 308 308
310 308 310 310 311 314 316 315 318 320 320 321 322 324 325 326 324 324 323 325 323 322 323 323 326 324 326 325 327 328 325 325 326 324 325 325 325 324 321 320 319 317 314 314 313 313 312 310 310 310 310 309 308 308
310 310 312 313 315 316 316 316 320 318 320 322 322 322 323 325 325 325 329 326 325 324 325 324 326 325 329 326 325 326 327 326 326 324 325 325 324 322 320 320 318 315 314 313 313 313 312 310 309 310 309 308 309 308
311 314 316 317 316 317 318 321 320 320 321 322 322 324 326 327 326 330 329 327 326 325 326 331 327 326 327 331 325 330 330 328 325 324 324 323 322 322 320 319 316 314 313 312 312 312 311 310 309 309 309 309 308 308
314 314 317 316 319 319 320 320 320 321 323 324 324 325 328 329 330 329 327 327 329 328 328 329 327 327 327 327 327 325 325 325 324 327 324 322 322 321 320 318 316 315 313 312 312 311 310 310 309 308 307 308 309 308
315 316 315 318 318 320 320 320 321 322 322 322 324 327 328 328 327 326 330 328 326 327 325 327 327 326 327 328 327 326 324 324 323 325 323 322 321 319 319 318 317 315 312 311 311 310 309 309 308 308 308 307 308 308
317 318 318 318 319 320 320 321 323 324 324 325 325 327 326 326 328 328 324 325 327 324 323 323 323 325 326 327 325 324 324 324 324 323 322 320 318 318 317 317 317 313 311 310 310 309 309 309 309 308 308 309 309 307
317 317 319 321 320 319 319 321 323 322 321 321 323 325 326 326 328 324 323 320 325 325 324 323 323 325 325 325 324 322 322 323 321 320 319 318 317 317 316 317 315 312 311 309 309 308 308 308 308 308 308 308 309 309
317 316 316 318 321 321 321 323 321 319 318 321 325 324 324 325 327 326 325 325 325 325 325 324 323 323 323 323 323 323 322 322 320 321 322 321 320 318 318 316 311 311 310 308 308 308 308 308 308 308 308 308 309 309
316 315 316 318 320 321 320 321 321 319 319 320 321 324 325 328 324 324 323 323 324 324 324 324 324 324 323 321 320 320 321 320 319 320 319 318 318 316 315 312 312 311 311 310 308 308 308 308 308 308 308 308 309 309
315 316 316 317 319 319 319 319 321 321 320 321 320 325 328 329 325 323 320 319 321 321 321 321 321 321 319 319 321 318 316 315 314 313 313 314 316 316 314 313 312 311 310 310 309 309 308 308 308 308 308 308 308 308
315 316 317 319 319 319 319 320 319 321 326 327 326 324 325 327 329 322 318 318 318 318 317 318 318 317 315 317 317 316 315 315 316 316 315 312 312 312 312 312 312 311 310 310 310 310 310 309 309 309 308 309 309 309
316 316 317 317 318 320 320 320 323 326 327 327 324 324 324 323 323 321 318 317 317 317 317 316 316 313 312 313 314 314 315 315 314 313 314 313 312 312 311 310 310 310 310 310 310 309 309 309 309 309 310 310 309 309

GFSWCAN_925_thetae_105.txt.gz
Theta_e
315 313 311 309 309 309 309 310 310 311 311 312 312 312 313 312 314 312 311 316 321 328 327 329 326 326 323 323 327 324 324 323 322 325 328 334 330 328 328 331 335 334 333 335 329 331 336 330 330 329 333 332 334 341
312 309 308 309 310 310 310 309 310 311 312 313 313 312 313 312 314 311 313 318 322 327 326 321 320 321 321 323 324 327 329 329 327 327 330 330 329 326 327 332 327 332 332 335 333 332 325 328 332 332 331 329 329 330
310 307 309 310 309 310 311 310 310 311 312 313 313 313 312 312 314 311 311 311 319 326 320 318 319 324 322 321 319 322 325 327 328 325 328 329 328 327 330 328 330 330 329 332 333 331 332 331 326 327 326 324 325 325
310 308 310 309 308 309 311 311 310 311 312 313 313 313 311 312 314 310 311 315 315 323 328 321 318 320 322 321 319 319 321 326 325 325 325 324 327 325 326 329 327 329 327 325 333 332 327 326 326 325 323 323 323 324
308 309 309 308 308 310 311 311 311 312 312 312 313 312 311 313 314 308 308 310 312 321 328 326 325 325 320 320 320 319 320 324 326 324 324 325 329 328 326 322 325 324 326 324 330 330 328 327 326 326 323 322 323 324
310 308 309 307 307 310 312 312 313 312 312 312 311 311 312 314 309 310 319 315 311 316 327 330 327 324 321 321 320 322 322 324 325 325 325 328 327 326 323 330 326 325 325 324 330 327 326 327 327 324 324 324 323 324
309 307 309 307 306 310 312 313 313 313 312 311 311 312 314 313 308 313 318 318 317 317 327 329 329 326 322 322 322 322 322 325 325 325 326 327 326 324 322 326 328 327 327 326 327 326 326 326 326 325 325 324 323 324
308 307 309 307 306 309 312 313 313 313 312 311 311 314 314 308 307 309 313 315 315 322 324 326 327 327 324 324 324 323 324 324 328 327 328 329 329 329 329 327 328 329 327 326 325 325 326 324 325 324 324 324 322 322
306 308 308 306 306 309 311 312 312 312 311 311 312 313 309 307 313 314 313 317 317 322 326 323 325 332 325 325 324 325 326 328 326 327 326 330 330 335 333 330 332 330 328 327 326 326 325 326 327 325 324 323 323 323
306 308 308 305 305 306 310 311 311 312 312 313 312 311 316 313 315 317 319 325 324 322 326 329 325 332 329 328 325 327 326 328 331 330 331 331 335 334 332 330 331 332 328 327 327 327 326 327 326 325 324 322 321 321
306 308 308 306 305 305 305 308 309 311 313 310 313 321 320 317 317 321 322 325 324 321 320 323 325 329 327 329 329 328 331 329 333 333 333 335 334 331 332 334 331 330 329 327 328 326 328 325 324 322 321 320 320 321
306 308 308 308 305 305 305 307 308 311 311 312 313 315 320 321 322 321 324 322 325 321 321 317 321 329 329 327 331 330 332 332 332 329 333 336 334 336 333 332 332 332 329 328 326 326 326 324 322 320 320 320 320 319
306 308 309 309 307 305 307 306 308 310 312 313 317 320 322 322 320 323 324 325 324 325 323 319 320 326 328 328 330 330 331 332 326 333 334 330 338 336 333 331 330 329 328 327 327 325 324 323 320 320 321 320 319 318
306 309 309 309 308 306 307 306 308 310 312 318 320 318 321 322 323 324 324 324 323 326 323 323 323 331 328 329 330 330 330 329 332 333 333 332 337 334 332 330 329 329 327 327 325 324 324 323 322 321 320 319 319 317
306 308 310 310 310 307 306 306 309 311 313 318 319 320 322 321 322 324 326 324 324 323 325 325 325 331 329 331 328 325 326 327 329 330 328 336 335 333 331 330 329 328 327 324 323 324 324 322 321 320 317 315 314 313
307 308 309 310 310 308 307 307 310 310 311 315 317 321 321 323 324 324 325 325 325 327 325 326 328 329 328 329 328 328 325 327 327 337 337 334 333 332 331 329 327 326 324 323 323 323 323 321 319 317 315 314 312 312
307 309 310 310 308 307 306 309 307 311 315 315 317 317 319 322 322 322 324 326 326 328 329 330 329 328 327 328 328 327 326 325 335 337 335 334 334 333 331 330 326 324 324 324 324 322 320 318 316 316 315 313 312 312
308 310 310 309 308 307 308 309 314 313 316 316 318 319 320 321 322 323 323 327 329 326 322 327 327 328 330 329 328 325 328 332 333 333 334 334 334 332 330 326 325 325 324 323 322 321 319 318 318 316 313 312 312 311
309 310 308 308 309 311 315 315 316 318 319 318 319 318 320 320 320 321 325 323 323 324 324 327 328 328 328 330 330 329 327 328 331 331 331 332 332 330 329 325 325 324 323 322 321 321 318 316 314 314 313 312 312 312
308 308 307 308 310 310 313 315 315 317 319 324 322 322 321 324 325 324 324 325 327 324 324 324 326 325 326 329 327 329 327 327 327 329 330 330 330 330 328 326 324 324 323 321 318 317 315 314 313 313 313 312 311 310
307 307 307 308 309 309 313 315 318 319 320 322 322 324 324 325 326 325 325 323 326 327 324 324 323 323 323 323 323 325 324 327 329 330 331 331 329 328 327 323 322 321 320 318 316 314 315 314 313 311 310 310 309 308
310 308 309 308 310 312 315 315 318 319 321 321 322 323 325 327 326 326 327 328 326 326 327 326 324 325 325 322 322 322 321 321 327 327 329 328 328 326 324 321 320 319 319 316 315 314 313 314 312 311 309 309 309 308
309 309 310 312 314 314 314 315 320 320 320 322 323 323 325 327 328 327 330 328 325 327 328 329 330 323 323 323 322 322 321 322 328 328 327 327 326 324 323 321 320 319 317 315 314 315 313 312 311 311 310 310 308 307
311 313 316 317 315 314 317 322 322 321 321 321 323 324 325 327 328 330 327 327 326 327 326 330 329 330 331 331 329 332 329 327 328 328 327 326 326 324 322 321 320 320 316 314 314 315 312 311 310 310 310 309 309 307
313 311 313 308 318 319 320 321 322 323 324 325 324 326 329 330 331 331 330 330 330 329 327 326 327 330 328 329 328 326 329 329 328 327 326 326 324 322 321 321 321 319 315 314 314 313 311 311 310 310 309 309 309 308
313 315 314 318 318 320 320 321 322 323 323 323 326 328 329 329 328 329 332 329 329 328 328 329 331 327 328 327 327 328 325 326 326 325 326 324 323 322 321 321 317 316 314 313 313 312 311 310 310 309 308 308 307 309
314 316 317 317 320 320 321 322 324 325 324 326 327 327 328 327 329 328 324 324 325 325 324 323 325 325 328 328 325 325 324 325 324 325 325 324 323 321 321 319 318 316 314 312 312 311 311 310 309 309 308 307 308 308
315 318 319 321 321 320 320 321 322 323 322 322 323 326 326 326 325 324 324 323 323 322 324 324 325 324 325 326 325 325 325 323 323 322 321 318 318 318 318 317 317 315 312 311 310 310 310 310 309 309 308 308 310 308
317 317 317 319 320 322 323 322 320 319 320 322 326 326 325 325 322 321 321 322 325 324 322 322 322 324 324 324 324 324 323 322 322 323 322 320 319 316 317 317 316 315 312 310 309 309 308 309 309 309 309 309 309 309
315 316 317 318 319 322 322 321 321 319 317 319 322 322 320 320 322 322 322 321 323 325 324 324 323 321 321 320 321 319 319 320 321 318 319 318 317 317 316 314 312 311 309 308 308 308 308 308 308 308 308 309 309 309
315 317 317 317 318 319 321 320 319 320 322 324 322 323 322 324 323 318 319 319 319 319 319 320 319 317 318 319 318 316 315 315 314 314 314 314 317 317 316 316 315 313 310 308 308 308 308 309 309 309 309 309 309 308
315 315 318 318 319 319 320 321 321 324 325 324 326 320 326 328 326 320 318 318 318 318 318 318 317 316 316 315 315 315 315 316 315 315 314 313 316 314 313 313 313 312 312 310 309 309 309 309 309 309 309 309 308 309
316 316 317 318 319 321 321 322 326 328 327 327 326 324 323 324 324 322 318 316 316 317 316 316 316 314 314 314 315 315 315 315 315 314 313 312 312 311 312 312 312 311 311 311 310 310 310 309 309 309 309 309 309 309

GFSWCAN_925_thetae_108.txt.gz
Theta_e
316 315 313 310 308 310 310 310 310 309 310 311 312 312 312 312 312 313 315 313 314 322 323 324 323 322 320 319 319 317 319 317 315 320 324 324 326 324 324 325 331 332 327 331 324 328 329 327 329 331 330 332 335 334
316 313 309 308 309 310 309 311 310 310 310 311 312 312 312 312 312 313 310 314 313 319 321 323 322 319 316 317 319 318 319 321 319 321 321 324 325 323 321 326 323 329 328 332 331 327 322 324 328 328 327 336 336 331
315 314 309 309 310 309 308 310 311 311 310 311 312 313 313 312 312 313 311 309 316 321 321 318 315 319 318 318 319 315 315 320 319 315 320 321 321 320 324 322 327 326 323 327 325 326 329 328 324 325 324 322 323 330
314 314 309 309 309 307 309 310 310 311 311 311 312 313 313 311 311 313 312 313 311 315 322 322 323 321 320 322 321 319 318 320 317 315 316 315 320 316 319 321 323 321 320 323 326 326 326 324 322 320 321 322 324 324
311 313 310 309 308 307 308 311 312 312 312 311 311 312 312 311 312 313 311 309 309 316 321 320 320 321 320 321 320 318 319 316 317 315 315 316 319 319 316 314 318 319 318 322 326 323 320 322 321 320 320 320 322 322
310 311 311 309 308 306 307 312 313 313 312 312 312 311 311 312 314 308 311 315 311 312 318 325 322 323 321 321 318 316 315 315 315 316 316 318 319 316 316 320 318 317 319 319 326 323 320 322 322 321 320 321 321 319
309 310 309 307 309 307 308 312 313 313 313 312 311 311 311 313 311 310 314 315 314 313 320 324 324 321 320 317 316 316 316 316 315 316 319 320 319 314 315 319 319 322 321 322 321 320 323 322 321 320 322 322 322 322
310 309 307 308 308 306 309 311 313 313 313 312 311 312 313 313 308 308 313 314 311 315 319 321 320 324 321 317 318 315 317 315 316 318 318 322 321 320 321 318 322 322 321 321 321 320 320 320 319 320 321 320 319 319
310 308 307 308 306 306 309 311 312 311 311 312 312 313 310 307 309 312 312 315 316 320 318 318 320 327 322 320 317 318 316 318 316 319 319 321 321 324 322 321 330 321 321 321 320 320 320 320 320 320 320 319 318 319
308 306 307 308 306 305 306 308 311 312 312 312 313 310 309 313 311 315 319 319 318 315 318 323 321 324 325 323 319 320 318 320 324 322 320 320 320 322 323 322 326 323 321 320 322 322 322 322 320 319 318 319 318 318
306 306 308 308 306 305 305 305 309 311 313 311 311 312 318 316 317 315 317 320 320 318 314 319 319 322 322 325 324 323 325 320 324 323 324 325 326 325 325 323 323 323 321 322 319 319 319 320 319 318 317 318 319 318
306 306 308 308 308 305 305 306 308 310 311 312 311 313 317 319 318 317 319 318 321 320 316 317 319 322 322 321 323 324 326 326 328 321 327 325 325 323 325 327 325 322 322 322 323 323 321 318 318 317 318 319 318 318
305 306 308 309 309 306 306 307 307 309 311 312 315 319 319 317 315 320 321 320 320 321 317 316 322 319 321 321 323 323 327 327 326 326 327 321 321 326 324 325 326 324 324 323 323 322 321 319 318 318 318 319 317 316
305 307 308 309 309 307 306 307 308 310 311 316 319 319 317 318 318 319 321 321 318 320 319 313 323 322 322 321 323 326 324 325 326 327 327 323 328 326 324 323 324 324 324 323 321 320 319 319 318 318 317 316 315 314
305 307 308 310 310 308 306 306 309 311 313 317 318 319 320 317 317 320 321 323 322 321 320 319 324 324 325 325 326 327 329 330 325 327 323 322 327 324 323 323 322 322 320 320 321 319 319 318 317 317 316 315 313 312
305 307 308 309 310 309 306 306 309 310 311 314 316 320 318 319 320 321 321 323 322 323 321 322 322 326 326 326 327 326 323 324 322 324 323 326 325 323 322 322 320 320 319 319 319 319 318 316 314 313 313 312 312 312
306 308 310 310 309 308 307 308 308 311 315 316 315 314 316 317 319 318 321 322 322 325 325 326 324 324 321 325 326 324 322 318 330 330 325 325 326 323 321 320 320 320 320 319 319 319 318 316 314 312 310 312 312 312
308 310 310 309 307 306 307 309 312 313 315 313 313 314 315 316 319 321 319 322 322 321 322 326 322 324 324 326 324 320 318 324 327 327 327 326 325 322 323 319 320 320 320 320 319 318 316 314 312 310 311 312 312 311
309 309 309 308 308 310 312 312 313 317 315 314 314 315 317 317 316 318 321 321 321 320 319 319 323 324 321 319 321 324 321 322 327 325 326 326 326 324 321 321 321 320 320 319 318 316 315 315 313 311 311 311 311 310
307 308 308 308 310 310 313 313 314 315 317 318 316 318 316 316 317 318 321 321 322 320 320 323 323 321 320 320 319 322 323 323 325 324 323 325 326 325 322 322 321 320 319 319 318 318 316 314 314 312 312 311 311 311
308 307 307 308 309 309 312 313 315 315 315 317 317 318 320 318 319 322 322 320 323 322 323 321 318 316 317 320 321 322 321 321 323 324 324 325 325 325 322 322 322 320 319 316 313 313 313 312 313 313 312 312 311 311
309 308 308 308 309 311 313 313 313 315 317 317 317 317 320 321 320 320 321 323 324 320 318 318 317 317 321 320 320 322 323 324 323 320 320 323 323 322 320 321 321 320 318 316 313 312 313 314 313 312 312 312 311 308
308 309 310 311 312 312 311 313 317 316 318 318 320 320 320 320 319 319 321 320 319 318 318 319 321 320 320 320 321 321 322 322 321 323 323 322 325 325 322 320 320 319 317 315 316 314 313 313 313 311 310 310 308 307
309 311 314 315 313 310 313 317 317 319 320 319 319 323 322 320 320 322 324 321 319 319 320 319 320 320 319 319 319 317 320 320 321 325 327 326 322 322 322 319 318 318 317 316 315 314 313 313 313 311 309 309 308 308
313 309 310 308 314 317 319 320 321 320 322 321 323 322 322 321 323 324 325 323 323 323 323 321 323 322 322 321 321 322 322 324 320 322 324 325 324 321 320 320 319 318 318 315 312 313 312 311 310 310 309 309 308 307
310 311 311 317 317 319 319 321 321 321 321 322 322 322 322 323 325 327 326 322 322 323 322 321 321 324 324 322 321 319 321 321 325 322 323 325 323 321 320 318 317 318 319 315 313 312 311 311 309 310 308 308 308 308
312 315 315 313 316 319 318 320 320 321 323 324 324 324 325 327 328 325 320 319 321 322 323 323 323 322 321 323 325 324 321 321 324 325 325 324 323 322 321 319 318 319 319 314 313 312 311 310 309 309 308 308 308 308
313 314 317 318 318 318 320 320 322 322 320 319 320 324 327 326 322 319 319 321 321 323 321 322 322 322 323 324 324 326 324 325 325 325 324 324 324 323 322 320 320 319 315 313 312 312 311 310 309 309 309 308 307 307
315 317 316 317 318 320 321 321 319 317 317 318 322 325 322 321 321 320 320 321 321 322 324 322 321 320 319 323 324 324 322 322 318 317 316 316 316 315 314 315 315 315 314 312 312 311 310 310 309 309 309 308 307 308
313 314 315 317 318 323 320 320 320 318 316 319 320 318 319 318 320 320 320 320 321 321 322 318 316 317 317 317 313 314 317 320 320 317 315 313 313 314 315 315 315 313 313 313 313 312 309 309 309 308 308 308 308 309
312 315 316 317 317 321 319 318 319 320 321 321 320 320 320 321 322 317 317 318 317 318 317 315 315 315 314 314 314 314 314 316 316 316 316 315 317 317 317 316 315 314 314 313 312 310 308 308 309 308 308 308 308 308
312 314 316 318 317 317 319 319 320 323 323 323 323 321 321 323 322 317 316 317 317 316 316 315 314 314 315 315 315 315 315 315 315 314 313 315 316 315 316 316 315 314 311 309 307 308 308 308 308 308 308 308 308 308
314 314 315 316 317 320 321 323 324 325 324 323 322 322 322 321 321 317 316 315 315 315 315 315 314 314 315 315 315 315 315 316 315 313 314 313 312 315 315 315 315 313 312 312 309 308 308 308 308 308 308 308 308 308

GFSWCAN_925_thetae_111.txt.gz
Theta_e
314 316 315 312 308 308 309 309 310 310 310 310 310 312 311 311 312 311 313 313 312 314 317 322 322 322 319 316 316 314 317 315 312 319 322 322 323 323 322 322 329 328 326 326 321 326 327 324 327 329 327 334 333 333
313 313 315 311 308 309 309 308 310 310 310 310 310 311 312 312 312 311 312 311 311 309 314 321 322 322 322 319 316 315 318 317 316 318 319 320 322 321 318 324 323 330 325 327 326 325 320 321 326 325 328 333 333 335
311 313 314 314 308 310 308 308 309 310 310 310 310 312 313 313 312 311 313 313 311 314 319 317 321 314 317 320 317 316 313 317 316 313 316 318 322 318 322 322 323 322 322 326 324 325 327 325 324 324 327 329 330 333
309 310 312 313 309 309 308 307 310 311 311 311 311 312 313 313 312 311 313 312 311 310 319 318 321 321 319 321 318 315 318 316 313 311 313 312 318 313 317 319 322 322 321 324 323 325 325 325 321 321 323 325 329 331
308 309 309 311 309 309 307 307 309 311 312 312 311 311 311 311 311 311 312 313 312 311 317 317 317 315 317 318 320 319 318 315 313 313 313 314 315 317 312 313 318 317 316 323 323 321 320 321 319 320 323 323 324 326
307 308 308 309 310 309 308 306 310 312 313 312 311 311 310 310 312 312 308 313 310 310 314 321 319 320 322 320 315 314 312 313 312 314 314 314 315 313 315 315 314 314 314 316 321 318 318 319 318 319 321 320 321 326
306 308 308 309 308 308 308 307 311 312 312 313 312 311 310 311 312 308 311 311 309 310 315 321 321 319 320 314 314 313 313 314 313 314 315 317 316 311 313 320 319 317 318 320 319 320 322 321 319 319 321 320 321 323
307 309 309 309 308 308 306 309 311 312 312 312 312 311 312 313 312 310 313 312 311 309 316 321 319 321 319 316 317 312 314 312 314 315 317 319 318 315 317 313 315 320 321 319 319 319 318 316 317 319 319 320 320 322
307 309 309 308 308 307 306 308 310 311 311 311 311 312 312 309 306 310 311 311 310 316 316 314 316 325 320 317 315 316 313 316 314 318 316 318 319 323 320 317 323 320 320 320 319 318 317 318 318 317 317 319 319 318
309 309 308 307 308 306 305 305 308 310 311 311 312 309 307 310 311 315 319 317 315 312 315 319 319 322 323 321 320 319 316 318 322 319 316 320 319 317 317 317 321 318 317 317 319 320 319 319 318 317 317 318 318 316
308 307 306 308 308 306 305 305 306 309 312 312 309 310 314 317 315 314 317 317 318 318 312 318 318 319 319 326 324 321 320 318 322 320 321 321 320 320 322 319 320 318 317 317 319 317 318 318 316 316 316 318 318 316
306 306 306 308 308 307 305 305 307 309 311 311 311 312 315 316 314 316 317 317 319 318 314 316 317 316 321 321 326 325 326 325 326 321 325 322 322 320 321 322 322 319 318 320 319 318 319 318 317 316 316 317 317 316
305 306 306 307 308 308 306 306 307 308 310 311 314 318 315 314 313 317 319 318 317 318 315 317 321 319 319 319 321 324 327 325 321 324 325 320 317 320 320 322 323 320 320 321 321 320 319 316 317 317 316 316 316 314
305 305 307 308 309 309 306 307 307 309 311 315 318 316 316 316 316 316 317 317 316 317 318 316 320 319 318 320 321 325 322 323 326 324 324 321 318 319 320 322 324 322 320 320 320 318 316 316 316 317 317 316 314 313
305 305 307 308 309 309 306 306 308 310 312 317 318 318 318 314 314 316 317 319 319 319 317 317 322 321 322 322 322 323 327 327 325 325 323 317 317 321 321 321 321 320 320 318 317 316 316 316 316 314 314 314 313 312
305 306 307 308 310 309 306 306 309 310 311 314 316 318 316 316 317 317 320 322 320 320 319 321 323 323 323 323 327 325 326 327 322 319 317 316 319 321 320 320 319 318 318 317 317 317 316 316 315 313 313 313 312 312
306 307 310 309 309 309 306 307 308 311 314 316 316 312 314 315 315 315 317 321 319 321 323 325 325 325 321 323 324 322 322 316 319 324 323 321 321 321 319 318 317 317 317 316 316 315 315 315 312 311 310 311 312 312
306 309 309 309 309 307 307 308 311 313 315 313 312 312 313 314 315 316 318 320 320 321 321 325 321 322 323 325 323 320 319 317 320 322 322 320 319 319 321 318 318 318 317 317 316 314 312 311 311 310 310 311 311 311
307 308 309 308 306 308 309 309 311 317 315 311 311 311 312 314 314 315 318 320 319 320 321 320 322 323 322 319 320 320 319 319 321 322 322 321 321 321 319 318 318 318 317 316 315 313 313 312 312 311 311 310 310 310
307 308 308 308 309 310 312 312 313 313 315 314 314 315 314 314 315 316 318 319 320 319 320 320 320 318 317 317 317 317 316 318 320 323 323 324 322 320 318 318 318 318 317 316 315 314 312 311 310 310 310 310 310 309
307 307 307 308 309 309 311 313 313 313 313 314 316 318 319 317 320 321 318 317 318 319 319 316 317 315 313 315 317 316 316 318 320 321 322 323 322 320 318 319 318 317 316 315 315 313 313 312 311 311 311 310 311 310
308 308 308 308 309 311 312 312 313 313 315 315 315 315 317 319 320 318 318 320 319 318 317 317 318 317 315 318 318 320 320 321 321 320 322 323 322 321 318 318 318 316 317 317 316 313 313 314 313 312 311 311 311 311
308 309 310 309 312 311 311 310 313 314 316 316 318 318 317 318 317 317 320 318 318 316 316 315 316 317 316 319 320 321 322 322 319 318 318 319 322 323 322 320 320 318 316 317 316 314 313 315 314 312 311 311 311 311
309 310 313 314 312 311 311 314 313 316 317 317 317 320 320 318 316 318 321 319 316 315 317 317 317 317 315 316 317 317 320 321 320 321 321 321 321 321 323 320 319 319 319 317 315 314 313 312 312 311 311 311 310 309
312 310 312 309 314 316 316 319 319 318 320 319 321 320 319 318 321 321 322 319 319 319 318 317 318 317 317 317 316 317 319 320 317 317 320 323 323 320 321 321 319 319 318 315 313 312 312 313 312 311 310 309 307 307
310 309 311 315 315 317 318 321 321 319 318 320 320 318 319 320 323 324 324 322 319 319 319 319 321 319 321 320 318 318 320 321 319 318 320 321 323 322 320 317 316 316 317 318 316 313 311 312 311 310 309 308 308 307
310 312 311 310 314 318 316 317 319 319 321 323 321 323 324 326 327 323 318 316 319 319 321 321 321 318 318 319 322 323 322 322 323 323 324 323 323 323 323 320 319 319 317 316 316 315 312 311 310 309 309 308 308 308
311 312 316 317 315 315 319 318 319 321 319 317 318 324 326 325 321 317 315 318 319 320 322 321 319 319 319 320 322 323 322 321 323 323 322 322 322 322 322 322 322 322 321 319 316 316 315 312 311 310 308 308 308 309
312 315 315 316 317 319 319 319 318 317 314 316 320 322 320 318 320 320 321 321 320 320 320 315 315 316 316 316 319 322 322 322 320 320 320 318 317 317 318 318 320 319 316 314 313 313 312 311 309 309 308 308 309 308
312 310 313 314 318 320 319 319 321 318 316 319 318 318 319 319 318 318 317 316 316 316 315 314 314 314 313 313 313 315 317 319 321 318 315 312 311 312 312 312 311 310 310 311 310 311 314 311 312 311 308 308 308 307
310 311 312 313 318 320 318 318 319 320 320 320 319 320 320 320 319 317 316 316 316 315 314 313 313 314 313 313 313 314 315 316 316 316 315 314 317 317 316 315 315 315 315 315 313 312 312 312 311 310 309 308 308 307
309 311 312 315 316 318 319 321 321 322 322 323 323 320 321 321 320 313 315 315 315 313 313 313 313 313 314 314 314 314 314 313 313 313 314 314 314 316 316 316 315 315 313 313 313 313 312 311 308 307 308 307 307 308
311 310 312 313 315 320 320 321 319 323 322 323 322 320 318 320 319 314 315 314 314 314 314 314 314 315 315 315 315 315 315 313 313 314 313 312 314 315 314 313 314 314 314 314 313 312 311 310 310 308 307 307 308 307

GFSWCAN_925_thetae_114.txt.gz
Theta_e
312 312 312 313 314 310 308 310 309 309 309 310 310 310 311 312 312 312 311 312 311 310 311 318 321 321 319 315 315 312 315 314 311 318 320 321 321 322 321 320 327 323 324 324 321 324 324 323 327 332 327 332 334 335
310 311 311 311 313 312 308 310 307 309 310 310 311 310 311 312 312 312 311 310 312 309 310 313 315 317 320 321 317 313 315 314 312 316 317 318 322 319 316 323 321 327 322 324 322 322 318 319 324 324 326 331 331 333
307 308 309 311 311 312 308 309 307 308 310 311 311 311 312 313 313 312 311 312 310 308 313 315 318 317 317 319 320 313 314 315 314 312 315 318 321 316 321 320 322 322 320 324 322 324 324 324 323 326 330 331 331 330
305 306 308 310 310 311 309 309 306 307 311 311 312 311 312 313 313 312 311 312 312 307 315 316 319 318 319 317 319 318 313 314 310 309 311 313 317 313 317 317 321 320 321 321 322 324 325 323 323 321 326 328 332 328
304 305 306 308 308 309 310 309 307 307 310 312 312 311 311 311 311 311 311 311 312 309 314 314 314 316 317 317 319 316 314 312 311 312 311 313 311 314 310 312 317 316 320 323 323 321 320 320 320 321 328 330 331 331
304 304 305 307 307 308 309 309 307 309 311 312 312 311 311 311 311 311 307 311 313 313 311 317 314 318 320 318 317 314 312 311 311 313 312 310 313 313 315 315 313 313 312 316 320 318 317 318 319 319 324 325 326 328
304 304 305 307 308 309 309 308 307 310 311 312 313 311 310 310 311 309 309 309 311 310 312 318 319 318 319 313 313 313 312 311 313 312 314 315 315 310 313 317 318 316 315 315 318 318 320 318 319 319 320 322 326 329
304 304 306 308 309 308 308 307 308 310 312 312 311 311 311 312 312 311 314 312 309 309 314 321 319 317 318 314 317 312 314 311 313 314 315 316 315 312 316 313 313 317 320 320 318 317 318 316 317 319 319 322 326 327
304 305 307 309 309 308 307 306 307 310 311 311 310 311 312 311 307 308 311 311 310 312 316 314 316 320 318 316 314 316 313 317 312 317 317 317 316 321 318 315 315 319 321 319 317 316 316 318 318 318 319 322 323 320
305 306 308 309 308 308 307 305 305 307 310 311 311 310 307 308 314 311 315 311 309 312 313 318 317 321 321 319 319 318 315 316 320 317 315 319 319 317 316 315 315 318 317 317 319 318 317 317 318 318 320 320 320 318
307 308 309 307 307 309 307 305 305 307 310 311 309 309 312 315 314 313 316 317 316 317 311 315 318 317 316 325 324 320 318 317 322 319 320 319 319 316 317 317 315 316 315 316 318 318 317 318 316 316 317 318 317 317
308 307 307 306 308 308 307 305 306 308 310 310 310 311 313 315 314 316 317 315 317 316 312 314 317 315 318 320 324 323 324 322 324 319 323 323 320 317 316 320 318 316 316 317 317 317 316 316 316 317 317 316 316 315
306 306 306 307 307 308 308 306 306 307 309 310 312 317 316 315 316 317 319 318 316 316 315 316 319 318 318 319 322 324 325 325 320 323 324 322 317 317 317 319 319 318 317 318 318 318 318 317 316 316 316 316 315 315
304 305 305 306 308 308 308 306 307 307 310 313 318 316 315 316 315 315 315 315 313 315 317 314 318 317 315 320 322 326 324 324 325 323 323 322 320 317 318 318 320 320 319 320 319 318 316 315 315 316 316 315 315 314
304 305 305 306 308 309 307 306 306 309 311 316 317 318 318 314 313 314 314 316 316 316 315 319 319 317 318 321 320 322 325 326 324 324 320 316 315 315 317 319 321 320 318 318 316 316 315 315 315 314 315 315 314 313
305 305 306 307 309 309 307 306 308 310 311 314 316 318 314 316 314 315 315 317 317 317 317 317 321 320 321 320 324 324 325 326 323 321 317 316 315 315 317 318 320 319 317 316 316 315 315 315 314 313 313 313 313 313
305 306 309 309 309 309 306 307 309 311 314 316 316 312 313 312 313 312 313 316 316 318 321 321 322 322 318 321 324 322 322 319 318 320 320 320 320 318 317 318 317 317 315 314 314 315 315 314 312 311 310 311 312 312
306 308 309 309 309 307 306 308 311 313 316 315 313 312 310 310 312 312 314 316 316 318 319 323 323 324 324 325 324 320 318 318 317 319 320 319 318 316 317 317 316 316 314 314 314 313 312 311 312 312 311 311 312 312
306 308 309 308 307 307 308 309 309 316 316 311 310 309 309 310 309 310 313 316 317 318 320 318 323 325 323 320 320 320 319 318 320 320 319 318 317 317 317 318 316 315 314 313 312 312 312 313 313 311 310 310 310 310
307 308 309 307 307 310 312 311 311 312 314 313 312 315 312 312 313 315 316 319 319 320 320 322 320 319 318 317 316 317 316 316 319 322 322 320 318 317 317 317 316 315 314 313 312 312 310 310 310 310 311 310 309 308
307 307 307 307 308 309 311 312 311 312 311 312 314 315 316 316 320 320 320 317 319 321 318 314 315 315 312 313 314 314 313 315 318 320 320 321 320 318 317 317 316 315 313 312 312 311 312 312 310 311 311 310 310 310
308 307 308 308 309 310 310 311 313 312 311 313 313 315 317 319 319 319 318 318 319 317 315 317 318 318 315 316 314 315 317 316 317 318 319 321 320 318 317 315 315 314 314 314 314 312 313 313 311 310 310 311 311 310
308 308 309 309 312 311 311 309 314 312 315 315 316 317 316 317 315 315 318 316 317 314 313 313 314 315 314 316 317 318 318 318 317 318 317 319 322 322 319 317 318 316 314 315 316 314 314 313 312 311 311 310 310 309
308 310 313 313 312 312 311 312 311 314 315 316 316 319 319 317 314 318 320 317 315 314 316 316 315 316 314 314 315 315 317 319 319 319 319 318 318 320 321 319 319 319 319 317 317 316 315 313 312 311 310 309 308 309
311 311 312 310 313 314 314 316 318 316 319 318 320 319 318 317 321 320 321 318 316 318 317 317 316 316 316 316 314 314 317 318 317 317 319 321 319 319 320 321 319 319 319 318 314 314 313 312 312 311 310 310 309 308
310 309 310 315 314 315 318 321 321 320 318 319 319 318 318 320 322 323 324 322 319 317 317 319 319 318 317 316 318 317 317 318 319 316 318 320 321 320 320 319 318 318 318 318 315 314 313 312 311 310 309 310 310 309
310 311 309 308 312 316 316 316 317 318 320 322 321 322 323 325 325 322 318 315 317 318 319 320 318 318 318 317 319 321 321 320 320 320 319 321 320 320 322 320 318 321 320 318 316 315 313 312 311 311 310 309 309 309
309 310 313 314 314 314 317 317 317 319 318 316 317 324 325 324 320 318 315 317 318 319 320 318 316 315 315 316 318 320 322 321 321 321 321 320 321 321 321 322 323 322 321 320 320 318 316 314 311 311 310 310 309 309
311 312 314 316 316 318 319 318 318 316 314 315 319 320 319 317 319 320 319 318 317 319 316 313 314 314 315 316 318 319 320 320 320 321 322 319 320 318 320 321 321 321 321 319 317 315 315 314 313 311 310 309 308 309
311 311 315 315 317 317 318 318 320 317 316 318 317 317 318 317 318 315 315 315 314 312 312 312 312 312 312 313 314 315 317 318 318 319 318 317 315 314 313 314 314 314 313 313 312 310 311 310 309 310 309 309 307 307
309 309 311 314 319 318 318 318 319 319 320 319 318 319 320 319 318 315 314 314 314 313 313 311 312 312 312 312 312 312 312 314 314 314 314 315 314 311 312 311 311 310 311 311 312 313 313 313 313 314 313 310 308 306
307 310 311 314 318 319 319 320 321 320 322 322 321 320 321 321 318 312 314 314 314 312 311 312 312 312 313 314 313 312 312 312 313 312 312 312 312 314 315 315 315 313 314 314 314 313 313 312 311 311 310 310 310 308
309 308 310 314 319 320 320 319 319 323 322 323 322 321 319 319 318 313 314 314 314 313 313 313 314 314 315 315 315 315 313 313 313 311 310 313 315 314 315 314 314 314 313 312 312 311 311 311 311 310 310 309 309 308

GFSWCAN_925_thetae_117.txt.gz
Theta_e
309 310 310 311 310 311 313 310 310 308 308 309 310 311 311 311 312 312 312 312 312 313 315 316 322 323 322 319 320 317 320 318 321 326 327 330 331 331 327 326 331 332 335 337 331 335 331 326 329 335 332 334 339 342
307 307 308 309 310 310 311 310 310 308 307 310 311 311 311 311 312 313 312 310 311 312 315 312 314 314 319 321 322 319 320 321 322 324 325 327 330 326 327 330 325 336 330 336 332 331 328 327 329 329 330 337 338 340
305 305 306 308 308 309 310 310 309 308 307 309 311 312 312 312 312 313 311 311 310 310 313 314 317 316 315 314 316 319 320 320 320 320 325 327 331 325 329 329 329 328 326 332 330 330 329 329 328 328 333 335 337 338
304 304 304 306 307 309 309 309 310 309 307 309 312 312 311 312 313 313 312 311 312 311 317 320 317 318 319 318 318 317 316 316 317 318 322 326 326 322 326 326 328 327 328 331 330 329 329 329 329 328 332 335 334 334
303 303 303 304 306 308 308 309 310 309 308 310 312 312 311 311 312 312 312 311 312 312 316 316 314 316 317 316 318 319 318 319 319 320 322 323 321 323 319 322 327 326 331 331 325 332 332 332 327 330 336 337 334 333
303 304 303 303 305 307 307 308 309 308 309 310 312 312 312 311 310 311 312 311 311 312 313 319 317 319 319 318 318 316 316 318 318 321 320 318 319 324 325 328 325 324 324 327 328 327 327 328 327 326 333 335 334 333
303 304 304 304 305 307 308 309 308 307 310 311 312 313 311 310 310 311 312 309 310 312 313 319 322 321 318 315 316 316 316 317 319 320 323 325 322 321 323 329 326 323 323 322 322 325 325 326 329 327 328 332 331 333
304 304 304 305 306 308 308 308 307 308 310 311 312 311 311 311 312 311 312 311 310 311 312 323 324 320 321 319 321 317 320 319 318 321 320 324 320 320 326 325 323 323 323 323 324 324 325 327 326 326 326 331 335 334
304 304 304 306 308 309 308 308 306 307 309 311 311 310 311 311 311 309 310 312 311 309 319 320 322 325 322 321 319 320 320 324 319 323 323 324 325 333 328 328 323 325 327 327 325 323 323 326 327 326 327 330 333 334
305 305 305 307 308 308 308 307 305 306 308 310 311 311 314 309 310 310 312 311 311 312 316 322 320 323 325 324 323 323 321 323 323 323 320 325 328 328 327 326 327 326 326 325 325 324 324 325 326 326 327 328 330 331
307 306 306 308 308 307 308 307 305 306 308 310 312 311 310 313 314 316 320 318 315 320 318 320 321 319 321 330 328 325 324 323 326 326 325 328 328 326 328 327 326 323 324 325 327 326 325 325 325 326 326 326 327 328
307 308 308 308 307 308 308 306 305 306 310 310 310 310 312 318 317 318 321 318 319 319 317 318 320 319 322 326 329 327 329 328 328 324 328 333 328 328 327 327 328 324 324 324 324 325 324 324 324 324 325 325 325 326
306 306 306 306 307 308 308 307 306 307 308 310 311 316 318 317 318 321 321 322 321 320 319 318 321 321 324 326 327 328 327 329 325 328 332 330 328 326 327 324 326 325 323 324 323 323 322 323 323 323 324 324 322 321
305 305 306 306 307 308 308 308 306 307 308 313 317 316 319 319 318 319 319 319 318 319 322 318 323 323 322 326 328 327 325 325 328 329 328 327 331 332 328 325 325 325 324 324 324 323 322 321 321 322 323 322 321 320
304 304 305 306 307 308 309 307 306 308 310 316 318 320 318 317 316 317 317 319 321 321 320 323 323 323 325 325 326 326 328 328 326 326 325 327 329 325 324 324 325 326 326 326 324 324 323 322 321 321 320 320 321 319
304 305 305 306 307 308 308 306 307 309 311 314 317 319 318 319 319 318 319 321 321 322 321 323 324 325 325 325 326 327 327 328 327 326 325 324 328 328 324 323 325 327 326 326 324 323 323 322 321 320 319 319 319 316
305 306 308 307 308 309 307 306 308 311 314 316 317 316 317 317 317 318 317 320 320 323 326 325 324 324 322 325 326 325 325 325 328 323 327 327 328 329 327 324 325 326 326 324 323 323 322 321 320 318 319 317 317 316
306 308 309 309 309 307 306 308 311 313 316 315 317 316 315 315 316 317 317 319 322 324 325 324 324 324 325 323 324 324 324 323 324 325 326 327 327 326 324 326 325 325 324 323 322 321 319 318 318 319 318 317 316 315
306 308 308 308 308 307 309 310 310 315 316 315 314 314 314 314 314 315 317 319 321 321 323 324 325 324 324 326 327 325 326 326 328 328 327 326 325 325 324 324 324 323 323 322 320 320 319 319 319 318 316 315 316 315
307 307 308 308 307 310 313 312 311 315 317 316 315 316 316 317 316 317 316 320 321 322 323 324 325 323 323 324 323 323 322 324 324 328 329 329 324 323 323 323 323 321 320 319 319 318 318 317 317 315 315 316 316 315
306 307 308 307 307 309 311 312 314 314 315 316 316 316 318 316 320 323 321 319 321 323 323 323 322 321 321 321 319 319 320 320 324 325 327 329 325 323 322 322 320 319 319 318 318 317 316 317 316 315 314 314 314 314
307 307 307 308 309 310 311 310 313 314 314 316 316 317 320 322 322 323 320 322 322 321 321 321 321 321 321 320 320 319 319 320 320 321 320 321 327 326 324 321 320 321 320 320 319 318 317 317 315 315 314 313 312 311
307 308 309 309 311 310 311 310 315 316 318 318 317 320 320 321 320 320 324 322 321 319 319 320 320 319 320 320 320 320 320 320 323 324 324 325 326 325 322 321 321 322 322 320 319 318 318 316 312 313 312 310 310 310
308 309 312 312 312 314 313 315 314 316 318 320 320 321 321 321 321 324 325 322 322 322 323 323 322 324 324 322 323 323 321 321 323 324 323 323 326 325 324 322 322 322 322 322 320 319 317 314 311 311 311 310 310 311
311 312 312 313 314 314 316 317 318 319 320 320 321 323 323 321 325 324 325 325 323 324 324 323 321 321 324 325 325 323 320 320 323 324 324 323 323 323 324 324 323 322 320 320 320 320 318 316 313 312 312 314 313 312
313 311 312 315 316 317 319 320 321 321 320 321 322 322 323 325 325 326 325 323 322 321 323 321 319 319 322 323 324 326 324 320 321 324 324 323 324 324 324 325 325 323 320 320 320 319 317 315 315 314 312 312 312 313
311 312 312 310 313 316 318 318 319 321 322 323 323 323 325 326 325 323 320 320 322 321 321 320 320 319 320 320 320 321 321 320 321 321 320 320 322 323 324 324 325 325 321 320 320 319 317 315 315 314 313 312 313 313
311 312 315 316 316 317 318 320 320 322 321 320 320 325 324 324 325 322 322 320 319 319 319 316 315 315 316 317 317 319 322 321 321 321 320 319 320 321 321 321 321 321 321 320 319 318 317 317 316 315 313 314 314 313
312 313 314 317 317 319 320 320 321 319 318 319 323 324 323 321 320 319 317 317 315 317 316 316 316 315 317 319 318 320 321 323 325 326 326 326 325 322 319 321 321 321 321 320 318 318 317 317 316 315 316 316 313 310
312 312 316 316 317 318 318 319 321 319 318 320 320 320 321 321 320 316 314 315 315 315 314 314 314 316 318 317 317 317 317 318 319 322 324 321 318 314 315 315 316 316 316 316 315 315 315 315 314 313 311 310 309 310
311 312 314 316 318 318 318 318 319 319 320 320 319 321 322 322 320 315 314 314 314 314 314 315 314 314 315 315 315 316 316 314 315 315 316 315 314 314 314 313 313 313 313 313 313 313 312 312 312 311 310 309 308 309
311 313 314 317 319 318 319 320 320 321 322 322 321 320 322 323 321 317 314 315 315 315 313 315 316 315 315 314 314 313 313 313 312 310 311 313 313 316 316 315 314 314 314 314 315 315 314 315 314 314 313 312 310 310
312 312 315 316 316 318 319 319 320 323 322 322 322 321 322 321 319 318 314 314 314 315 315 314 313 313 313 314 314 315 312 311 310 309 312 314 314 314 315 314 314 315 315 314 314 314 315 314 313 313 312 311 311 311

GFSWCAN_925_thetae_120.txt.gz
Theta_e
307 307 308 309 310 310 310 311 311 310 308 308 310 310 311 311 311 312 314 313 314 318 318 318 319 324 326 324 323 322 320 321 322 324 324 326 324 330 330 329 330 331 333 332 331 334 334 329 331 336 336 338 341 344
305 305 305 306 308 309 309 310 311 310 308 307 309 311 311 311 311 312 314 312 312 314 318 316 317 317 318 320 324 322 324 322 322 324 325 326 327 331 328 331 329 335 331 334 331 333 334 332 332 332 333 340 342 343
304 304 304 305 306 308 308 309 310 309 309 307 309 311 312 312 312 312 314 311 311 315 318 318 319 318 318 317 317 323 322 325 324 328 325 325 328 327 328 328 330 331 332 331 333 333 333 333 332 332 336 339 342 339
303 303 303 303 304 306 308 309 309 309 310 308 310 312 312 312 312 313 313 313 312 314 320 321 320 321 320 318 317 317 320 321 323 326 326 325 326 329 327 331 330 331 332 329 328 331 333 334 336 336 337 340 340 337
303 303 304 304 303 305 306 308 308 309 310 308 310 312 312 312 312 313 313 312 312 314 320 320 317 318 317 318 320 319 317 321 324 326 326 325 327 328 327 328 326 331 330 327 328 327 335 334 334 336 339 338 338 337
303 303 304 304 304 304 306 307 308 309 309 309 310 312 313 312 311 311 313 313 312 311 317 320 319 320 321 319 320 322 321 322 323 324 326 325 327 327 326 326 326 327 329 331 328 329 332 331 331 332 336 336 335 336
303 303 304 304 304 305 306 308 308 309 308 309 311 313 313 311 311 312 315 312 312 311 317 320 323 322 322 321 322 324 322 322 324 324 325 326 327 324 323 325 325 325 329 331 329 331 331 329 329 331 334 335 334 335
303 303 304 304 304 305 307 309 309 308 308 310 311 312 311 311 311 312 313 311 311 313 315 321 324 323 323 322 322 321 323 324 324 325 325 325 325 325 323 323 322 326 329 329 328 329 328 329 329 329 329 331 335 336
304 305 305 304 305 307 309 308 308 306 308 309 311 311 311 311 313 315 310 309 312 312 320 322 323 326 324 323 323 324 325 325 325 325 324 326 324 329 324 324 324 327 330 328 328 330 328 330 329 328 329 330 331 333
305 305 305 305 305 308 309 308 307 306 306 309 311 312 315 314 311 311 312 316 314 315 316 320 322 324 325 324 323 324 323 325 326 326 326 324 325 326 325 326 330 328 329 328 330 331 330 329 329 328 329 328 330 334
306 307 306 305 307 308 308 308 306 306 306 309 312 314 313 313 313 316 321 319 319 321 319 320 321 321 323 331 325 325 324 324 327 327 325 326 328 326 326 326 327 329 330 329 329 329 329 329 329 329 328 327 328 330
307 307 307 307 308 308 308 308 306 307 309 311 311 311 312 318 319 321 322 321 321 322 321 320 321 321 321 327 332 329 326 327 327 326 326 331 329 327 326 326 327 330 328 328 328 328 328 328 327 328 327 327 327 328
307 307 307 307 307 307 308 307 306 306 308 310 311 315 319 320 323 322 322 322 322 320 320 320 321 321 324 327 330 330 327 326 327 329 327 328 327 327 327 327 328 327 329 328 328 328 328 327 326 327 328 327 326 329
306 306 306 306 307 308 308 308 306 307 308 313 316 321 320 319 320 321 320 320 320 321 323 321 321 323 323 325 326 327 327 327 326 327 328 326 329 331 331 331 330 328 328 329 329 328 328 328 328 327 327 327 328 328
304 304 305 306 306 308 308 308 306 307 309 314 317 322 319 319 319 319 320 320 322 323 324 322 323 325 325 323 323 326 326 328 326 325 324 324 329 332 331 330 329 328 328 329 330 329 328 328 328 328 327 328 327 327
304 304 305 306 306 307 308 306 307 308 311 314 317 320 320 320 320 320 320 321 322 324 326 324 323 322 322 322 323 323 322 324 324 326 326 328 330 333 335 331 329 329 328 328 328 328 328 328 328 328 327 327 327 326
305 306 306 306 307 308 307 307 308 311 314 316 318 318 319 320 319 320 320 321 324 326 324 324 323 323 323 324 322 322 323 321 321 324 326 331 333 334 334 333 329 329 331 328 329 328 328 328 327 328 328 326 326 325
306 307 308 308 309 307 307 308 311 314 316 317 319 319 318 318 319 318 319 320 324 325 324 323 323 325 325 324 323 323 324 323 324 326 327 330 333 334 332 332 331 329 330 330 329 329 328 328 328 328 327 326 325 324
306 308 309 308 308 307 311 311 311 315 316 316 317 317 317 317 317 317 318 320 320 324 325 325 325 325 324 323 322 322 323 324 323 325 327 329 331 332 331 330 331 330 330 330 330 329 328 327 327 326 325 324 324 323
306 308 308 308 308 310 314 313 312 315 317 318 317 319 319 319 320 320 319 319 324 324 325 325 324 324 324 324 324 326 325 324 326 326 326 328 329 329 330 330 329 330 330 329 329 327 327 326 326 325 324 323 323 322
306 307 308 308 307 310 312 314 315 316 317 318 318 319 320 319 320 322 323 322 324 322 322 323 323 323 324 323 322 323 324 324 325 325 325 326 329 329 328 328 328 328 328 328 328 326 325 326 325 323 322 322 322 321
307 307 308 308 309 312 312 311 314 314 316 318 317 318 321 324 323 322 322 323 323 323 323 323 323 323 325 325 324 324 324 324 324 323 322 322 327 330 329 328 328 328 326 325 325 325 325 325 323 322 321 321 320 319
307 308 309 310 312 311 312 313 315 316 319 320 319 321 322 322 324 322 325 326 326 324 323 324 325 326 327 325 325 325 325 324 325 325 324 324 326 329 328 327 326 327 327 325 324 324 324 323 320 321 321 320 319 319
308 309 312 313 312 314 313 316 316 318 319 320 321 322 323 324 324 326 325 324 325 327 327 327 327 328 327 329 328 325 326 325 325 325 326 327 329 331 328 326 325 325 325 325 325 324 324 322 320 320 321 320 319 318
310 311 311 310 313 314 316 318 319 319 322 321 322 322 325 324 327 326 326 328 328 327 327 326 325 324 327 328 328 327 327 325 326 326 326 326 325 327 327 326 326 325 325 325 325 324 324 323 320 320 319 317 316 315
314 312 314 314 317 318 319 320 321 322 322 323 323 324 326 326 325 328 327 326 324 324 326 324 323 323 324 325 327 328 328 326 325 326 325 326 325 326 326 326 325 326 325 324 325 324 324 323 321 319 318 315 315 316
313 314 314 312 314 316 317 319 321 323 323 324 324 325 325 326 327 325 323 323 323 322 322 321 322 323 323 323 324 325 325 326 326 326 326 326 325 326 326 326 326 326 326 324 324 324 324 322 321 320 319 317 316 316
313 314 317 317 316 317 319 321 322 323 323 323 323 324 324 325 325 322 321 319 319 322 322 318 320 319 320 322 323 325 327 326 326 326 325 325 325 325 326 326 326 324 324 324 323 323 323 323 322 320 317 314 314 314
314 314 316 320 319 320 321 322 323 322 321 323 324 325 324 320 318 320 319 317 318 319 318 318 318 320 323 324 325 326 326 325 325 326 327 328 329 324 324 325 325 325 324 322 321 320 321 320 320 319 318 317 316 315
315 313 317 318 319 319 320 320 323 321 321 321 322 322 321 321 319 317 318 317 317 318 318 318 319 320 321 321 320 319 319 319 319 320 321 320 319 318 318 319 320 320 321 321 321 320 318 317 317 318 318 317 316 313
315 316 316 318 318 318 318 319 320 321 320 321 321 322 321 320 317 316 317 317 317 318 319 319 319 319 319 318 318 318 317 315 314 315 316 318 319 319 318 318 317 317 317 317 317 317 318 318 318 318 317 316 312 311
315 315 316 318 320 317 319 320 320 322 322 322 321 320 322 322 318 317 316 317 318 318 317 318 319 319 318 316 315 314 314 313 313 314 316 317 317 318 318 318 317 316 316 316 316 316 316 317 317 316 316 315 312 310
315 316 316 315 315 316 319 320 321 322 322 320 320 321 320 318 317 317 316 316 315 314 314 314 315 314 315 314 315 314 314 314 311 311 312 313 315 316 316 316 315 315 315 314 313 314 315 315 315 316 316 313 311 310